<?xml version="1.0" encoding="UTF-8" standalone="no" ?>
<gpx xmlns="http://www.topografix.com/GPX/1/1" xmlns:xsi="http://www.w3.org/2001/XMLSchema-instance" xsi:schemaLocation="http://www.topografix.com/GPX/1/1 http://www.topografix.com/GPX/1/1/gpx.xsd" version="1.1" creator="VisuGPX - https://www.visugpx.com">
  <metadata>
    <name>EVREUX forêt d'Evreux et de St michel</name>
    <desc><![CDATA[Une belle balade près d'Evreux agréable et bien variée]]></desc>
  </metadata>
  <trk>
    <name><![CDATA[Evreux Cubrider-MNT]]></name>
    <trkseg>
      <trkpt lat="49.02265" lon="1.12595">
        <ele>64.855904</ele>
        <time>2017-01-29T13:30:08Z</time>
      </trkpt>
      <trkpt lat="49.02273" lon="1.12578">
        <ele>65</ele>
        <time>2017-01-29T13:36:35Z</time>
      </trkpt>
      <trkpt lat="49.02273" lon="1.12565">
        <ele>65</ele>
        <time>2017-01-29T13:36:37Z</time>
      </trkpt>
      <trkpt lat="49.02283" lon="1.1255">
        <ele>65</ele>
        <time>2017-01-29T13:36:42Z</time>
      </trkpt>
      <trkpt lat="49.02293" lon="1.12535">
        <ele>65</ele>
        <time>2017-01-29T13:36:49Z</time>
      </trkpt>
      <trkpt lat="49.02303" lon="1.1252">
        <ele>65</ele>
        <time>2017-01-29T13:36:54Z</time>
      </trkpt>
      <trkpt lat="49.02323" lon="1.12493">
        <ele>65.60379</ele>
        <time>2017-01-29T13:37:03Z</time>
      </trkpt>
      <trkpt lat="49.02338" lon="1.12483">
        <ele>65.869949</ele>
        <time>2017-01-29T13:37:10Z</time>
      </trkpt>
      <trkpt lat="49.02348" lon="1.12498">
        <ele>65.980873</ele>
        <time>2017-01-29T13:37:17Z</time>
      </trkpt>
      <trkpt lat="49.0236" lon="1.12513">
        <ele>66.25</ele>
        <time>2017-01-29T13:37:24Z</time>
      </trkpt>
      <trkpt lat="49.02373" lon="1.1253">
        <ele>66.394081</ele>
        <time>2017-01-29T13:37:28Z</time>
      </trkpt>
      <trkpt lat="49.02385" lon="1.12545">
        <ele>66.421501</ele>
        <time>2017-01-29T13:37:32Z</time>
      </trkpt>
      <trkpt lat="49.024" lon="1.12563">
        <ele>66.785622</ele>
        <time>2017-01-29T13:38:13Z</time>
      </trkpt>
      <trkpt lat="49.02413" lon="1.12553">
        <ele>68.047501</ele>
        <time>2017-01-29T13:38:19Z</time>
      </trkpt>
      <trkpt lat="49.02423" lon="1.12533">
        <ele>69.256874</ele>
        <time>2017-01-29T13:38:22Z</time>
      </trkpt>
      <trkpt lat="49.02438" lon="1.1252">
        <ele>70.775002</ele>
        <time>2017-01-29T13:38:26Z</time>
      </trkpt>
      <trkpt lat="49.02458" lon="1.12503">
        <ele>73.569717</ele>
        <time>2017-01-29T13:38:31Z</time>
      </trkpt>
      <trkpt lat="49.0247" lon="1.12488">
        <ele>74.538475</ele>
        <time>2017-01-29T13:38:35Z</time>
      </trkpt>
      <trkpt lat="49.02483" lon="1.12478">
        <ele>75.510406</ele>
        <time>2017-01-29T13:38:38Z</time>
      </trkpt>
      <trkpt lat="49.02495" lon="1.1246">
        <ele>76.009048</ele>
        <time>2017-01-29T13:38:42Z</time>
      </trkpt>
      <trkpt lat="49.0251" lon="1.12443">
        <ele>75.006561</ele>
        <time>2017-01-29T13:38:46Z</time>
      </trkpt>
      <trkpt lat="49.02533" lon="1.12418">
        <ele>74.469826</ele>
        <time>2017-01-29T13:38:52Z</time>
      </trkpt>
      <trkpt lat="49.0255" lon="1.12415">
        <ele>74.951248</ele>
        <time>2017-01-29T13:38:56Z</time>
      </trkpt>
      <trkpt lat="49.02568" lon="1.12418">
        <ele>75.836304</ele>
        <time>2017-01-29T13:39:00Z</time>
      </trkpt>
      <trkpt lat="49.02595" lon="1.1242">
        <ele>76.651566</ele>
        <time>2017-01-29T13:39:06Z</time>
      </trkpt>
      <trkpt lat="49.0261" lon="1.1242">
        <ele>76.929741</ele>
        <time>2017-01-29T13:39:09Z</time>
      </trkpt>
      <trkpt lat="49.02628" lon="1.12423">
        <ele>77.399406</ele>
        <time>2017-01-29T13:39:13Z</time>
      </trkpt>
      <trkpt lat="49.02648" lon="1.12428">
        <ele>78.010941</ele>
        <time>2017-01-29T13:39:18Z</time>
      </trkpt>
      <trkpt lat="49.02663" lon="1.12433">
        <ele>78.53125</ele>
        <time>2017-01-29T13:39:22Z</time>
      </trkpt>
      <trkpt lat="49.0268" lon="1.12438">
        <ele>78.239914</ele>
        <time>2017-01-29T13:39:26Z</time>
      </trkpt>
      <trkpt lat="49.02695" lon="1.12448">
        <ele>79.335098</ele>
        <time>2017-01-29T13:39:30Z</time>
      </trkpt>
      <trkpt lat="49.02708" lon="1.12458">
        <ele>79.425003</ele>
        <time>2017-01-29T13:39:33Z</time>
      </trkpt>
      <trkpt lat="49.0272" lon="1.12468">
        <ele>79.331314</ele>
        <time>2017-01-29T13:39:36Z</time>
      </trkpt>
      <trkpt lat="49.0273" lon="1.12483">
        <ele>79.41468</ele>
        <time>2017-01-29T13:39:39Z</time>
      </trkpt>
      <trkpt lat="49.0274" lon="1.125">
        <ele>79.081573</ele>
        <time>2017-01-29T13:39:42Z</time>
      </trkpt>
      <trkpt lat="49.02753" lon="1.12528">
        <ele>79.901031</ele>
        <time>2017-01-29T13:39:46Z</time>
      </trkpt>
      <trkpt lat="49.02763" lon="1.12545">
        <ele>80.696999</ele>
        <time>2017-01-29T13:39:49Z</time>
      </trkpt>
      <trkpt lat="49.02773" lon="1.12563">
        <ele>80.883072</ele>
        <time>2017-01-29T13:39:52Z</time>
      </trkpt>
      <trkpt lat="49.02788" lon="1.12575">
        <ele>79.599998</ele>
        <time>2017-01-29T13:39:55Z</time>
      </trkpt>
      <trkpt lat="49.02803" lon="1.12583">
        <ele>78.730003</ele>
        <time>2017-01-29T13:39:58Z</time>
      </trkpt>
      <trkpt lat="49.02818" lon="1.12588">
        <ele>79.259377</ele>
        <time>2017-01-29T13:40:01Z</time>
      </trkpt>
      <trkpt lat="49.02833" lon="1.12593">
        <ele>79.790627</ele>
        <time>2017-01-29T13:40:04Z</time>
      </trkpt>
      <trkpt lat="49.02848" lon="1.12593">
        <ele>79.933975</ele>
        <time>2017-01-29T13:40:07Z</time>
      </trkpt>
      <trkpt lat="49.02865" lon="1.1259">
        <ele>81.105904</ele>
        <time>2017-01-29T13:40:11Z</time>
      </trkpt>
      <trkpt lat="49.02883" lon="1.12585">
        <ele>81.713356</ele>
        <time>2017-01-29T13:40:15Z</time>
      </trkpt>
      <trkpt lat="49.02915" lon="1.12575">
        <ele>81.123749</ele>
        <time>2017-01-29T13:40:23Z</time>
      </trkpt>
      <trkpt lat="49.02933" lon="1.12573">
        <ele>81.111198</ele>
        <time>2017-01-29T13:40:27Z</time>
      </trkpt>
      <trkpt lat="49.0295" lon="1.12578">
        <ele>82.147987</ele>
        <time>2017-01-29T13:40:31Z</time>
      </trkpt>
      <trkpt lat="49.0297" lon="1.12583">
        <ele>83.014778</ele>
        <time>2017-01-29T13:40:35Z</time>
      </trkpt>
      <trkpt lat="49.03" lon="1.1259">
        <ele>83.521004</ele>
        <time>2017-01-29T13:40:41Z</time>
      </trkpt>
      <trkpt lat="49.03015" lon="1.12593">
        <ele>83.043625</ele>
        <time>2017-01-29T13:40:45Z</time>
      </trkpt>
      <trkpt lat="49.03033" lon="1.1259">
        <ele>82.583748</ele>
        <time>2017-01-29T13:40:48Z</time>
      </trkpt>
      <trkpt lat="49.0305" lon="1.12583">
        <ele>82.43</ele>
        <time>2017-01-29T13:40:51Z</time>
      </trkpt>
      <trkpt lat="49.03068" lon="1.1257">
        <ele>81.628128</ele>
        <time>2017-01-29T13:40:54Z</time>
      </trkpt>
      <trkpt lat="49.03083" lon="1.1256">
        <ele>82.422874</ele>
        <time>2017-01-29T13:40:57Z</time>
      </trkpt>
      <trkpt lat="49.031" lon="1.12548">
        <ele>83.435249</ele>
        <time>2017-01-29T13:41:00Z</time>
      </trkpt>
      <trkpt lat="49.03118" lon="1.1254">
        <ele>84.217644</ele>
        <time>2017-01-29T13:41:04Z</time>
      </trkpt>
      <trkpt lat="49.03143" lon="1.12533">
        <ele>85.049004</ele>
        <time>2017-01-29T13:41:09Z</time>
      </trkpt>
      <trkpt lat="49.0316" lon="1.12525">
        <ele>85.255501</ele>
        <time>2017-01-29T13:41:13Z</time>
      </trkpt>
      <trkpt lat="49.03178" lon="1.12513">
        <ele>85.238861</ele>
        <time>2017-01-29T13:41:17Z</time>
      </trkpt>
      <trkpt lat="49.03193" lon="1.12508">
        <ele>85.779152</ele>
        <time>2017-01-29T13:41:20Z</time>
      </trkpt>
      <trkpt lat="49.03208" lon="1.125">
        <ele>85.56736</ele>
        <time>2017-01-29T13:41:23Z</time>
      </trkpt>
      <trkpt lat="49.03225" lon="1.12495">
        <ele>85.495712</ele>
        <time>2017-01-29T13:41:27Z</time>
      </trkpt>
      <trkpt lat="49.0324" lon="1.12495">
        <ele>86.340797</ele>
        <time>2017-01-29T13:41:30Z</time>
      </trkpt>
      <trkpt lat="49.03255" lon="1.12495">
        <ele>86.996002</ele>
        <time>2017-01-29T13:41:34Z</time>
      </trkpt>
      <trkpt lat="49.03273" lon="1.12495">
        <ele>87.568398</ele>
        <time>2017-01-29T13:41:38Z</time>
      </trkpt>
      <trkpt lat="49.03288" lon="1.12488">
        <ele>86.606247</ele>
        <time>2017-01-29T13:41:41Z</time>
      </trkpt>
      <trkpt lat="49.03303" lon="1.12478">
        <ele>87.268997</ele>
        <time>2017-01-29T13:41:45Z</time>
      </trkpt>
      <trkpt lat="49.03315" lon="1.12458">
        <ele>86.895218</ele>
        <time>2017-01-29T13:41:47Z</time>
      </trkpt>
      <trkpt lat="49.0332" lon="1.12433">
        <ele>84.923485</ele>
        <time>2017-01-29T13:41:50Z</time>
      </trkpt>
      <trkpt lat="49.0333" lon="1.12385">
        <ele>84.521591</ele>
        <time>2017-01-29T13:41:56Z</time>
      </trkpt>
      <trkpt lat="49.03335" lon="1.1236">
        <ele>84.941376</ele>
        <time>2017-01-29T13:41:59Z</time>
      </trkpt>
      <trkpt lat="49.03335" lon="1.12338">
        <ele>84.962372</ele>
        <time>2017-01-29T13:42:02Z</time>
      </trkpt>
      <trkpt lat="49.03338" lon="1.12315">
        <ele>85.708595</ele>
        <time>2017-01-29T13:42:05Z</time>
      </trkpt>
      <trkpt lat="49.03345" lon="1.12293">
        <ele>87.758934</ele>
        <time>2017-01-29T13:42:09Z</time>
      </trkpt>
      <trkpt lat="49.03355" lon="1.12273">
        <ele>89.239998</ele>
        <time>2017-01-29T13:42:12Z</time>
      </trkpt>
      <trkpt lat="49.0337" lon="1.12255">
        <ele>89.913353</ele>
        <time>2017-01-29T13:42:16Z</time>
      </trkpt>
      <trkpt lat="49.03385" lon="1.12233">
        <ele>86.958595</ele>
        <time>2017-01-29T13:42:21Z</time>
      </trkpt>
      <trkpt lat="49.03403" lon="1.12205">
        <ele>84.440697</ele>
        <time>2017-01-29T13:42:26Z</time>
      </trkpt>
      <trkpt lat="49.03415" lon="1.12185">
        <ele>84.449791</ele>
        <time>2017-01-29T13:42:31Z</time>
      </trkpt>
      <trkpt lat="49.03425" lon="1.12168">
        <ele>84.419502</ele>
        <time>2017-01-29T13:42:34Z</time>
      </trkpt>
      <trkpt lat="49.03435" lon="1.12148">
        <ele>85.274666</ele>
        <time>2017-01-29T13:42:37Z</time>
      </trkpt>
      <trkpt lat="49.03443" lon="1.12125">
        <ele>87.121437</ele>
        <time>2017-01-29T13:42:41Z</time>
      </trkpt>
      <trkpt lat="49.03453" lon="1.12098">
        <ele>89.199448</ele>
        <time>2017-01-29T13:42:47Z</time>
      </trkpt>
      <trkpt lat="49.0346" lon="1.1208">
        <ele>90.400787</ele>
        <time>2017-01-29T13:42:52Z</time>
      </trkpt>
      <trkpt lat="49.03445" lon="1.12093">
        <ele>88.81881</ele>
        <time>2017-01-29T13:43:04Z</time>
      </trkpt>
      <trkpt lat="49.03435" lon="1.12113">
        <ele>87.042648</ele>
        <time>2017-01-29T13:43:08Z</time>
      </trkpt>
      <trkpt lat="49.0342" lon="1.12133">
        <ele>84.830002</ele>
        <time>2017-01-29T13:43:11Z</time>
      </trkpt>
      <trkpt lat="49.03413" lon="1.1215">
        <ele>84.03492</ele>
        <time>2017-01-29T13:43:15Z</time>
      </trkpt>
      <trkpt lat="49.03403" lon="1.12165">
        <ele>84.138794</ele>
        <time>2017-01-29T13:43:17Z</time>
      </trkpt>
      <trkpt lat="49.03388" lon="1.12188">
        <ele>84.111389</ele>
        <time>2017-01-29T13:43:22Z</time>
      </trkpt>
      <trkpt lat="49.03378" lon="1.12203">
        <ele>84.01387</ele>
        <time>2017-01-29T13:43:25Z</time>
      </trkpt>
      <trkpt lat="49.03365" lon="1.1222">
        <ele>84.495575</ele>
        <time>2017-01-29T13:43:28Z</time>
      </trkpt>
      <trkpt lat="49.03353" lon="1.12235">
        <ele>85.558754</ele>
        <time>2017-01-29T13:43:30Z</time>
      </trkpt>
      <trkpt lat="49.0334" lon="1.1225">
        <ele>85.181877</ele>
        <time>2017-01-29T13:43:34Z</time>
      </trkpt>
      <trkpt lat="49.03328" lon="1.12265">
        <ele>84.459877</ele>
        <time>2017-01-29T13:43:36Z</time>
      </trkpt>
      <trkpt lat="49.03305" lon="1.12285">
        <ele>83.041328</ele>
        <time>2017-01-29T13:43:41Z</time>
      </trkpt>
      <trkpt lat="49.03273" lon="1.12313">
        <ele>82.364258</ele>
        <time>2017-01-29T13:43:48Z</time>
      </trkpt>
      <trkpt lat="49.03258" lon="1.12323">
        <ele>82.541168</ele>
        <time>2017-01-29T13:43:52Z</time>
      </trkpt>
      <trkpt lat="49.03243" lon="1.12333">
        <ele>82.577499</ele>
        <time>2017-01-29T13:43:54Z</time>
      </trkpt>
      <trkpt lat="49.03213" lon="1.1235">
        <ele>83.605003</ele>
        <time>2017-01-29T13:44:00Z</time>
      </trkpt>
      <trkpt lat="49.0319" lon="1.1236">
        <ele>84.352089</ele>
        <time>2017-01-29T13:44:04Z</time>
      </trkpt>
      <trkpt lat="49.03173" lon="1.12368">
        <ele>84.73838</ele>
        <time>2017-01-29T13:44:07Z</time>
      </trkpt>
      <trkpt lat="49.03153" lon="1.12373">
        <ele>85.309998</ele>
        <time>2017-01-29T13:44:10Z</time>
      </trkpt>
      <trkpt lat="49.03125" lon="1.1238">
        <ele>86.139999</ele>
        <time>2017-01-29T13:44:14Z</time>
      </trkpt>
      <trkpt lat="49.03105" lon="1.12383">
        <ele>86.769997</ele>
        <time>2017-01-29T13:44:19Z</time>
      </trkpt>
      <trkpt lat="49.03088" lon="1.12383">
        <ele>87.184998</ele>
        <time>2017-01-29T13:44:21Z</time>
      </trkpt>
      <trkpt lat="49.03063" lon="1.12383">
        <ele>87.717834</ele>
        <time>2017-01-29T13:44:26Z</time>
      </trkpt>
      <trkpt lat="49.03033" lon="1.1238">
        <ele>88.087967</ele>
        <time>2017-01-29T13:44:31Z</time>
      </trkpt>
      <trkpt lat="49.0299" lon="1.12373">
        <ele>87.83625</ele>
        <time>2017-01-29T13:44:39Z</time>
      </trkpt>
      <trkpt lat="49.02948" lon="1.12365">
        <ele>86.004776</ele>
        <time>2017-01-29T13:44:45Z</time>
      </trkpt>
      <trkpt lat="49.02915" lon="1.1236">
        <ele>83.976662</ele>
        <time>2017-01-29T13:44:50Z</time>
      </trkpt>
      <trkpt lat="49.02898" lon="1.12358">
        <ele>82.916252</ele>
        <time>2017-01-29T13:44:52Z</time>
      </trkpt>
      <trkpt lat="49.02883" lon="1.12353">
        <ele>82.261253</ele>
        <time>2017-01-29T13:44:56Z</time>
      </trkpt>
      <trkpt lat="49.02865" lon="1.1235">
        <ele>81.956253</ele>
        <time>2017-01-29T13:45:00Z</time>
      </trkpt>
      <trkpt lat="49.02818" lon="1.1234">
        <ele>80.568977</ele>
        <time>2017-01-29T13:45:07Z</time>
      </trkpt>
      <trkpt lat="49.02798" lon="1.12338">
        <ele>79.741409</ele>
        <time>2017-01-29T13:45:10Z</time>
      </trkpt>
      <trkpt lat="49.02775" lon="1.12333">
        <ele>78.602501</ele>
        <time>2017-01-29T13:45:15Z</time>
      </trkpt>
      <trkpt lat="49.0276" lon="1.12328">
        <ele>77.909996</ele>
        <time>2017-01-29T13:45:17Z</time>
      </trkpt>
      <trkpt lat="49.02743" lon="1.12325">
        <ele>77.178368</ele>
        <time>2017-01-29T13:45:21Z</time>
      </trkpt>
      <trkpt lat="49.02685" lon="1.12318">
        <ele>75.081436</ele>
        <time>2017-01-29T13:45:31Z</time>
      </trkpt>
      <trkpt lat="49.02668" lon="1.12313">
        <ele>74.205597</ele>
        <time>2017-01-29T13:45:33Z</time>
      </trkpt>
      <trkpt lat="49.02648" lon="1.1231">
        <ele>73.303558</ele>
        <time>2017-01-29T13:45:36Z</time>
      </trkpt>
      <trkpt lat="49.02618" lon="1.12305">
        <ele>72.058784</ele>
        <time>2017-01-29T13:45:41Z</time>
      </trkpt>
      <trkpt lat="49.026" lon="1.12305">
        <ele>72</ele>
        <time>2017-01-29T13:45:45Z</time>
      </trkpt>
      <trkpt lat="49.02583" lon="1.12305">
        <ele>72</ele>
        <time>2017-01-29T13:45:48Z</time>
      </trkpt>
      <trkpt lat="49.02563" lon="1.12308">
        <ele>71.805</ele>
        <time>2017-01-29T13:45:52Z</time>
      </trkpt>
      <trkpt lat="49.0254" lon="1.1231">
        <ele>71.305</ele>
        <time>2017-01-29T13:45:55Z</time>
      </trkpt>
      <trkpt lat="49.02525" lon="1.12315">
        <ele>70.970001</ele>
        <time>2017-01-29T13:45:58Z</time>
      </trkpt>
      <trkpt lat="49.02508" lon="1.12318">
        <ele>70.580002</ele>
        <time>2017-01-29T13:46:01Z</time>
      </trkpt>
      <trkpt lat="49.02488" lon="1.12325">
        <ele>70.129997</ele>
        <time>2017-01-29T13:46:04Z</time>
      </trkpt>
      <trkpt lat="49.0247" lon="1.12333">
        <ele>69.95385</ele>
        <time>2017-01-29T13:46:07Z</time>
      </trkpt>
      <trkpt lat="49.02455" lon="1.1234">
        <ele>69.708076</ele>
        <time>2017-01-29T13:46:10Z</time>
      </trkpt>
      <trkpt lat="49.02438" lon="1.12348">
        <ele>69.210152</ele>
        <time>2017-01-29T13:46:12Z</time>
      </trkpt>
      <trkpt lat="49.0242" lon="1.12358">
        <ele>68.494576</ele>
        <time>2017-01-29T13:46:15Z</time>
      </trkpt>
      <trkpt lat="49.02403" lon="1.1237">
        <ele>67.538666</ele>
        <time>2017-01-29T13:46:19Z</time>
      </trkpt>
      <trkpt lat="49.02385" lon="1.12383">
        <ele>66.984802</ele>
        <time>2017-01-29T13:46:24Z</time>
      </trkpt>
      <trkpt lat="49.02368" lon="1.12395">
        <ele>66.849113</ele>
        <time>2017-01-29T13:46:27Z</time>
      </trkpt>
      <trkpt lat="49.0235" lon="1.12408">
        <ele>66.575928</ele>
        <time>2017-01-29T13:46:29Z</time>
      </trkpt>
      <trkpt lat="49.02338" lon="1.12418">
        <ele>66.317268</ele>
        <time>2017-01-29T13:46:32Z</time>
      </trkpt>
      <trkpt lat="49.02323" lon="1.12435">
        <ele>66.068787</ele>
        <time>2017-01-29T13:46:34Z</time>
      </trkpt>
      <trkpt lat="49.02308" lon="1.1245">
        <ele>65.949371</ele>
        <time>2017-01-29T13:46:38Z</time>
      </trkpt>
      <trkpt lat="49.02295" lon="1.12468">
        <ele>65.563881</ele>
        <time>2017-01-29T13:46:40Z</time>
      </trkpt>
      <trkpt lat="49.02265" lon="1.1251">
        <ele>65.011284</ele>
        <time>2017-01-29T13:46:47Z</time>
      </trkpt>
      <trkpt lat="49.02253" lon="1.1253">
        <ele>65</ele>
        <time>2017-01-29T13:46:50Z</time>
      </trkpt>
      <trkpt lat="49.02218" lon="1.12583">
        <ele>65</ele>
        <time>2017-01-29T13:46:58Z</time>
      </trkpt>
      <trkpt lat="49.02193" lon="1.1262">
        <ele>64.247498</ele>
        <time>2017-01-29T13:47:04Z</time>
      </trkpt>
      <trkpt lat="49.02183" lon="1.12638">
        <ele>64.066689</ele>
        <time>2017-01-29T13:47:07Z</time>
      </trkpt>
      <trkpt lat="49.0217" lon="1.12658">
        <ele>64</ele>
        <time>2017-01-29T13:47:10Z</time>
      </trkpt>
      <trkpt lat="49.02143" lon="1.127">
        <ele>64</ele>
        <time>2017-01-29T13:47:17Z</time>
      </trkpt>
      <trkpt lat="49.02113" lon="1.1274">
        <ele>64.071297</ele>
        <time>2017-01-29T13:47:24Z</time>
      </trkpt>
      <trkpt lat="49.02093" lon="1.12768">
        <ele>64.478325</ele>
        <time>2017-01-29T13:47:29Z</time>
      </trkpt>
      <trkpt lat="49.02078" lon="1.12783">
        <ele>64.84375</ele>
        <time>2017-01-29T13:47:32Z</time>
      </trkpt>
      <trkpt lat="49.02065" lon="1.12798">
        <ele>65</ele>
        <time>2017-01-29T13:47:35Z</time>
      </trkpt>
      <trkpt lat="49.02053" lon="1.1281">
        <ele>65</ele>
        <time>2017-01-29T13:47:39Z</time>
      </trkpt>
      <trkpt lat="49.02035" lon="1.1283">
        <ele>65</ele>
        <time>2017-01-29T13:47:43Z</time>
      </trkpt>
      <trkpt lat="49.0202" lon="1.12845">
        <ele>65</ele>
        <time>2017-01-29T13:47:46Z</time>
      </trkpt>
      <trkpt lat="49.02" lon="1.1286">
        <ele>65</ele>
        <time>2017-01-29T13:47:50Z</time>
      </trkpt>
      <trkpt lat="49.01975" lon="1.1288">
        <ele>65</ele>
        <time>2017-01-29T13:47:55Z</time>
      </trkpt>
      <trkpt lat="49.01958" lon="1.12895">
        <ele>65</ele>
        <time>2017-01-29T13:47:59Z</time>
      </trkpt>
      <trkpt lat="49.01915" lon="1.1293">
        <ele>65</ele>
        <time>2017-01-29T13:48:09Z</time>
      </trkpt>
      <trkpt lat="49.01903" lon="1.12943">
        <ele>65</ele>
        <time>2017-01-29T13:48:11Z</time>
      </trkpt>
      <trkpt lat="49.01855" lon="1.12985">
        <ele>65</ele>
        <time>2017-01-29T13:48:22Z</time>
      </trkpt>
      <trkpt lat="49.0184" lon="1.12998">
        <ele>65</ele>
        <time>2017-01-29T13:48:25Z</time>
      </trkpt>
      <trkpt lat="49.01828" lon="1.13013">
        <ele>65</ele>
        <time>2017-01-29T13:48:28Z</time>
      </trkpt>
      <trkpt lat="49.01815" lon="1.13028">
        <ele>65</ele>
        <time>2017-01-29T13:48:30Z</time>
      </trkpt>
      <trkpt lat="49.01803" lon="1.13045">
        <ele>65.275002</ele>
        <time>2017-01-29T13:48:34Z</time>
      </trkpt>
      <trkpt lat="49.01788" lon="1.13065">
        <ele>65.614998</ele>
        <time>2017-01-29T13:48:38Z</time>
      </trkpt>
      <trkpt lat="49.01775" lon="1.13083">
        <ele>65.894997</ele>
        <time>2017-01-29T13:48:40Z</time>
      </trkpt>
      <trkpt lat="49.01763" lon="1.131">
        <ele>66</ele>
        <time>2017-01-29T13:48:43Z</time>
      </trkpt>
      <trkpt lat="49.01753" lon="1.13118">
        <ele>66</ele>
        <time>2017-01-29T13:48:46Z</time>
      </trkpt>
      <trkpt lat="49.0173" lon="1.13155">
        <ele>66.161842</ele>
        <time>2017-01-29T13:48:53Z</time>
      </trkpt>
      <trkpt lat="49.0172" lon="1.13175">
        <ele>66.606247</ele>
        <time>2017-01-29T13:48:55Z</time>
      </trkpt>
      <trkpt lat="49.01713" lon="1.13195">
        <ele>67.066246</ele>
        <time>2017-01-29T13:48:59Z</time>
      </trkpt>
      <trkpt lat="49.01703" lon="1.1322">
        <ele>67.540001</ele>
        <time>2017-01-29T13:49:03Z</time>
      </trkpt>
      <trkpt lat="49.01693" lon="1.1324">
        <ele>67.764999</ele>
        <time>2017-01-29T13:49:05Z</time>
      </trkpt>
      <trkpt lat="49.01688" lon="1.1326">
        <ele>67.879997</ele>
        <time>2017-01-29T13:49:09Z</time>
      </trkpt>
      <trkpt lat="49.0168" lon="1.1329">
        <ele>68.586334</ele>
        <time>2017-01-29T13:49:12Z</time>
      </trkpt>
      <trkpt lat="49.01673" lon="1.13313">
        <ele>70.092247</ele>
        <time>2017-01-29T13:49:16Z</time>
      </trkpt>
      <trkpt lat="49.0167" lon="1.13335">
        <ele>70.863579</ele>
        <time>2017-01-29T13:49:18Z</time>
      </trkpt>
      <trkpt lat="49.01665" lon="1.13358">
        <ele>71.597435</ele>
        <time>2017-01-29T13:49:22Z</time>
      </trkpt>
      <trkpt lat="49.0166" lon="1.13383">
        <ele>72.099327</ele>
        <time>2017-01-29T13:49:24Z</time>
      </trkpt>
      <trkpt lat="49.01653" lon="1.13423">
        <ele>73.190018</ele>
        <time>2017-01-29T13:49:30Z</time>
      </trkpt>
      <trkpt lat="49.01653" lon="1.13445">
        <ele>73.318497</ele>
        <time>2017-01-29T13:49:33Z</time>
      </trkpt>
      <trkpt lat="49.01648" lon="1.13468">
        <ele>74.050163</ele>
        <time>2017-01-29T13:49:36Z</time>
      </trkpt>
      <trkpt lat="49.01645" lon="1.1349">
        <ele>74.592697</ele>
        <time>2017-01-29T13:49:39Z</time>
      </trkpt>
      <trkpt lat="49.01645" lon="1.13513">
        <ele>75.859955</ele>
        <time>2017-01-29T13:49:42Z</time>
      </trkpt>
      <trkpt lat="49.01645" lon="1.13568">
        <ele>79.134651</ele>
        <time>2017-01-29T13:49:49Z</time>
      </trkpt>
      <trkpt lat="49.01645" lon="1.1359">
        <ele>80.720497</ele>
        <time>2017-01-29T13:49:52Z</time>
      </trkpt>
      <trkpt lat="49.01645" lon="1.13613">
        <ele>82.316231</ele>
        <time>2017-01-29T13:49:55Z</time>
      </trkpt>
      <trkpt lat="49.01648" lon="1.13638">
        <ele>82.82251</ele>
        <time>2017-01-29T13:49:58Z</time>
      </trkpt>
      <trkpt lat="49.01648" lon="1.1366">
        <ele>83.292</ele>
        <time>2017-01-29T13:50:01Z</time>
      </trkpt>
      <trkpt lat="49.01645" lon="1.13683">
        <ele>84.207748</ele>
        <time>2017-01-29T13:50:04Z</time>
      </trkpt>
      <trkpt lat="49.0163" lon="1.13688">
        <ele>86.211876</ele>
        <time>2017-01-29T13:50:07Z</time>
      </trkpt>
      <trkpt lat="49.01615" lon="1.13693">
        <ele>87.962952</ele>
        <time>2017-01-29T13:50:10Z</time>
      </trkpt>
      <trkpt lat="49.01598" lon="1.13688">
        <ele>89.826248</ele>
        <time>2017-01-29T13:50:16Z</time>
      </trkpt>
      <trkpt lat="49.0158" lon="1.13683">
        <ele>93.320251</ele>
        <time>2017-01-29T13:50:22Z</time>
      </trkpt>
      <trkpt lat="49.01565" lon="1.13685">
        <ele>96.584435</ele>
        <time>2017-01-29T13:50:27Z</time>
      </trkpt>
      <trkpt lat="49.0156" lon="1.13665">
        <ele>96.335098</ele>
        <time>2017-01-29T13:50:33Z</time>
      </trkpt>
      <trkpt lat="49.01558" lon="1.1364">
        <ele>95.122925</ele>
        <time>2017-01-29T13:50:41Z</time>
      </trkpt>
      <trkpt lat="49.01555" lon="1.13618">
        <ele>94.552765</ele>
        <time>2017-01-29T13:50:48Z</time>
      </trkpt>
      <trkpt lat="49.01538" lon="1.136">
        <ele>98.435623</ele>
        <time>2017-01-29T13:51:05Z</time>
      </trkpt>
      <trkpt lat="49.01538" lon="1.13578">
        <ele>98.808647</ele>
        <time>2017-01-29T13:51:13Z</time>
      </trkpt>
      <trkpt lat="49.01528" lon="1.13563">
        <ele>101.500526</ele>
        <time>2017-01-29T13:51:21Z</time>
      </trkpt>
      <trkpt lat="49.01518" lon="1.13548">
        <ele>104.331245</ele>
        <time>2017-01-29T13:51:29Z</time>
      </trkpt>
      <trkpt lat="49.0151" lon="1.1353">
        <ele>106.608749</ele>
        <time>2017-01-29T13:51:35Z</time>
      </trkpt>
      <trkpt lat="49.01493" lon="1.13498">
        <ele>109.911331</ele>
        <time>2017-01-29T13:51:52Z</time>
      </trkpt>
      <trkpt lat="49.01485" lon="1.1348">
        <ele>110.825722</ele>
        <time>2017-01-29T13:52:00Z</time>
      </trkpt>
      <trkpt lat="49.0149" lon="1.1346">
        <ele>110.420998</ele>
        <time>2017-01-29T13:54:01Z</time>
      </trkpt>
      <trkpt lat="49.0149" lon="1.13435">
        <ele>110.513969</ele>
        <time>2017-01-29T13:54:06Z</time>
      </trkpt>
      <trkpt lat="49.01485" lon="1.13408">
        <ele>110.977837</ele>
        <time>2017-01-29T13:54:10Z</time>
      </trkpt>
      <trkpt lat="49.01488" lon="1.13383">
        <ele>110.431602</ele>
        <time>2017-01-29T13:54:12Z</time>
      </trkpt>
      <trkpt lat="49.0149" lon="1.13358">
        <ele>109.841125</ele>
        <time>2017-01-29T13:54:16Z</time>
      </trkpt>
      <trkpt lat="49.0149" lon="1.13333">
        <ele>109.337303</ele>
        <time>2017-01-29T13:54:19Z</time>
      </trkpt>
      <trkpt lat="49.01493" lon="1.1331">
        <ele>108.437492</ele>
        <time>2017-01-29T13:54:22Z</time>
      </trkpt>
      <trkpt lat="49.0149" lon="1.13283">
        <ele>108.184196</ele>
        <time>2017-01-29T13:54:24Z</time>
      </trkpt>
      <trkpt lat="49.01495" lon="1.13255">
        <ele>106.586243</ele>
        <time>2017-01-29T13:54:28Z</time>
      </trkpt>
      <trkpt lat="49.015" lon="1.13225">
        <ele>104.685165</ele>
        <time>2017-01-29T13:54:30Z</time>
      </trkpt>
      <trkpt lat="49.01498" lon="1.13195">
        <ele>104.346352</ele>
        <time>2017-01-29T13:54:34Z</time>
      </trkpt>
      <trkpt lat="49.015" lon="1.13165">
        <ele>102.866425</ele>
        <time>2017-01-29T13:54:37Z</time>
      </trkpt>
      <trkpt lat="49.015" lon="1.1313">
        <ele>100.950874</ele>
        <time>2017-01-29T13:54:40Z</time>
      </trkpt>
      <trkpt lat="49.01498" lon="1.13098">
        <ele>99.214783</ele>
        <time>2017-01-29T13:54:42Z</time>
      </trkpt>
      <trkpt lat="49.01493" lon="1.1307">
        <ele>98.249802</ele>
        <time>2017-01-29T13:54:47Z</time>
      </trkpt>
      <trkpt lat="49.0149" lon="1.13043">
        <ele>95.873016</ele>
        <time>2017-01-29T13:54:51Z</time>
      </trkpt>
      <trkpt lat="49.01478" lon="1.1302">
        <ele>96.415001</ele>
        <time>2017-01-29T13:54:54Z</time>
      </trkpt>
      <trkpt lat="49.01473" lon="1.12995">
        <ele>95.236237</ele>
        <time>2017-01-29T13:54:58Z</time>
      </trkpt>
      <trkpt lat="49.01465" lon="1.12978">
        <ele>95.516479</ele>
        <time>2017-01-29T13:55:06Z</time>
      </trkpt>
      <trkpt lat="49.0145" lon="1.12975">
        <ele>98.365646</ele>
        <time>2017-01-29T13:55:12Z</time>
      </trkpt>
      <trkpt lat="49.0143" lon="1.12968">
        <ele>100.61515</ele>
        <time>2017-01-29T13:55:19Z</time>
      </trkpt>
      <trkpt lat="49.01415" lon="1.12965">
        <ele>102.635201</ele>
        <time>2017-01-29T13:55:25Z</time>
      </trkpt>
      <trkpt lat="49.014" lon="1.12963">
        <ele>104.954475</ele>
        <time>2017-01-29T13:55:30Z</time>
      </trkpt>
      <trkpt lat="49.01385" lon="1.1296">
        <ele>107.483101</ele>
        <time>2017-01-29T13:55:35Z</time>
      </trkpt>
      <trkpt lat="49.0137" lon="1.1296">
        <ele>110.215073</ele>
        <time>2017-01-29T13:55:39Z</time>
      </trkpt>
      <trkpt lat="49.01353" lon="1.12955">
        <ele>112.168053</ele>
        <time>2017-01-29T13:55:46Z</time>
      </trkpt>
      <trkpt lat="49.01338" lon="1.12955">
        <ele>113.445999</ele>
        <time>2017-01-29T13:55:52Z</time>
      </trkpt>
      <trkpt lat="49.01318" lon="1.12955">
        <ele>115.130135</ele>
        <time>2017-01-29T13:56:12Z</time>
      </trkpt>
      <trkpt lat="49.01303" lon="1.12955">
        <ele>116.100815</ele>
        <time>2017-01-29T13:56:22Z</time>
      </trkpt>
      <trkpt lat="49.01288" lon="1.12955">
        <ele>117.074844</ele>
        <time>2017-01-29T13:56:29Z</time>
      </trkpt>
      <trkpt lat="49.01258" lon="1.12953">
        <ele>118.708748</ele>
        <time>2017-01-29T13:56:46Z</time>
      </trkpt>
      <trkpt lat="49.01243" lon="1.12943">
        <ele>119.629997</ele>
        <time>2017-01-29T13:57:17Z</time>
      </trkpt>
      <trkpt lat="49.01233" lon="1.1296">
        <ele>119.727501</ele>
        <time>2017-01-29T13:57:23Z</time>
      </trkpt>
      <trkpt lat="49.01223" lon="1.12978">
        <ele>119.925003</ele>
        <time>2017-01-29T13:57:29Z</time>
      </trkpt>
      <trkpt lat="49.01213" lon="1.12995">
        <ele>120.131874</ele>
        <time>2017-01-29T13:57:34Z</time>
      </trkpt>
      <trkpt lat="49.012" lon="1.1301">
        <ele>120.476875</ele>
        <time>2017-01-29T13:57:39Z</time>
      </trkpt>
      <trkpt lat="49.01188" lon="1.13028">
        <ele>120.790627</ele>
        <time>2017-01-29T13:57:46Z</time>
      </trkpt>
      <trkpt lat="49.01175" lon="1.13043">
        <ele>120.899376</ele>
        <time>2017-01-29T13:57:50Z</time>
      </trkpt>
      <trkpt lat="49.01163" lon="1.13065">
        <ele>120.854378</ele>
        <time>2017-01-29T13:57:57Z</time>
      </trkpt>
      <trkpt lat="49.01153" lon="1.13083">
        <ele>120.831879</ele>
        <time>2017-01-29T13:58:01Z</time>
      </trkpt>
      <trkpt lat="49.01135" lon="1.13103">
        <ele>121.485001</ele>
        <time>2017-01-29T13:58:05Z</time>
      </trkpt>
      <trkpt lat="49.01125" lon="1.13118">
        <ele>122.161247</ele>
        <time>2017-01-29T13:58:10Z</time>
      </trkpt>
      <trkpt lat="49.01113" lon="1.13135">
        <ele>122.973122</ele>
        <time>2017-01-29T13:58:15Z</time>
      </trkpt>
      <trkpt lat="49.011" lon="1.1315">
        <ele>123.748749</ele>
        <time>2017-01-29T13:58:19Z</time>
      </trkpt>
      <trkpt lat="49.0109" lon="1.13165">
        <ele>124.260002</ele>
        <time>2017-01-29T13:58:24Z</time>
      </trkpt>
      <trkpt lat="49.0108" lon="1.13183">
        <ele>124.7425</ele>
        <time>2017-01-29T13:58:28Z</time>
      </trkpt>
      <trkpt lat="49.01068" lon="1.13198">
        <ele>125.238129</ele>
        <time>2017-01-29T13:58:33Z</time>
      </trkpt>
      <trkpt lat="49.01055" lon="1.13213">
        <ele>125.733124</ele>
        <time>2017-01-29T13:58:38Z</time>
      </trkpt>
      <trkpt lat="49.01043" lon="1.13228">
        <ele>126.230003</ele>
        <time>2017-01-29T13:58:42Z</time>
      </trkpt>
      <trkpt lat="49.0103" lon="1.13243">
        <ele>126.510002</ele>
        <time>2017-01-29T13:58:46Z</time>
      </trkpt>
      <trkpt lat="49.01018" lon="1.13258">
        <ele>126.790001</ele>
        <time>2017-01-29T13:58:49Z</time>
      </trkpt>
      <trkpt lat="49.01003" lon="1.13278">
        <ele>127.129997</ele>
        <time>2017-01-29T13:58:55Z</time>
      </trkpt>
      <trkpt lat="49.00993" lon="1.13293">
        <ele>127.355003</ele>
        <time>2017-01-29T13:58:58Z</time>
      </trkpt>
      <trkpt lat="49.0098" lon="1.13313">
        <ele>127.639999</ele>
        <time>2017-01-29T13:59:04Z</time>
      </trkpt>
      <trkpt lat="49.00968" lon="1.1333">
        <ele>127.919998</ele>
        <time>2017-01-29T13:59:09Z</time>
      </trkpt>
      <trkpt lat="49.00958" lon="1.13345">
        <ele>128</ele>
        <time>2017-01-29T13:59:13Z</time>
      </trkpt>
      <trkpt lat="49.00945" lon="1.1336">
        <ele>128</ele>
        <time>2017-01-29T13:59:16Z</time>
      </trkpt>
      <trkpt lat="49.00935" lon="1.13375">
        <ele>128</ele>
        <time>2017-01-29T13:59:21Z</time>
      </trkpt>
      <trkpt lat="49.0092" lon="1.13395">
        <ele>128</ele>
        <time>2017-01-29T13:59:25Z</time>
      </trkpt>
      <trkpt lat="49.00905" lon="1.13423">
        <ele>128</ele>
        <time>2017-01-29T13:59:31Z</time>
      </trkpt>
      <trkpt lat="49.0089" lon="1.13443">
        <ele>127.901253</ele>
        <time>2017-01-29T13:59:36Z</time>
      </trkpt>
      <trkpt lat="49.00878" lon="1.13458">
        <ele>127.685623</ele>
        <time>2017-01-29T13:59:40Z</time>
      </trkpt>
      <trkpt lat="49.00868" lon="1.13473">
        <ele>127.384888</ele>
        <time>2017-01-29T13:59:43Z</time>
      </trkpt>
      <trkpt lat="49.00855" lon="1.13488">
        <ele>127.13736</ele>
        <time>2017-01-29T13:59:47Z</time>
      </trkpt>
      <trkpt lat="49.00843" lon="1.13505">
        <ele>127.000648</ele>
        <time>2017-01-29T13:59:52Z</time>
      </trkpt>
      <trkpt lat="49.00815" lon="1.1354">
        <ele>126.139374</ele>
        <time>2017-01-29T13:59:59Z</time>
      </trkpt>
      <trkpt lat="49.00805" lon="1.13555">
        <ele>125.698128</ele>
        <time>2017-01-29T14:00:03Z</time>
      </trkpt>
      <trkpt lat="49.00785" lon="1.1358">
        <ele>124.923752</ele>
        <time>2017-01-29T14:00:08Z</time>
      </trkpt>
      <trkpt lat="49.00775" lon="1.13595">
        <ele>124.707497</ele>
        <time>2017-01-29T14:00:12Z</time>
      </trkpt>
      <trkpt lat="49.00763" lon="1.13613">
        <ele>124.455627</ele>
        <time>2017-01-29T14:00:16Z</time>
      </trkpt>
      <trkpt lat="49.00738" lon="1.13645">
        <ele>123.988747</ele>
        <time>2017-01-29T14:00:22Z</time>
      </trkpt>
      <trkpt lat="49.00728" lon="1.1366">
        <ele>123.772499</ele>
        <time>2017-01-29T14:00:24Z</time>
      </trkpt>
      <trkpt lat="49.00718" lon="1.1368">
        <ele>123.483124</ele>
        <time>2017-01-29T14:00:28Z</time>
      </trkpt>
      <trkpt lat="49.00703" lon="1.137">
        <ele>123.195</ele>
        <time>2017-01-29T14:00:31Z</time>
      </trkpt>
      <trkpt lat="49.0069" lon="1.13715">
        <ele>122.980003</ele>
        <time>2017-01-29T14:00:34Z</time>
      </trkpt>
      <trkpt lat="49.0068" lon="1.1373">
        <ele>122.763748</ele>
        <time>2017-01-29T14:00:37Z</time>
      </trkpt>
      <trkpt lat="49.00665" lon="1.13748">
        <ele>122.512497</ele>
        <time>2017-01-29T14:00:41Z</time>
      </trkpt>
      <trkpt lat="49.00653" lon="1.13765">
        <ele>122.285622</ele>
        <time>2017-01-29T14:00:45Z</time>
      </trkpt>
      <trkpt lat="49.00635" lon="1.13785">
        <ele>122.393753</ele>
        <time>2017-01-29T14:00:48Z</time>
      </trkpt>
      <trkpt lat="49.00623" lon="1.13805">
        <ele>122.389999</ele>
        <time>2017-01-29T14:00:52Z</time>
      </trkpt>
      <trkpt lat="49.00608" lon="1.1382">
        <ele>122.510628</ele>
        <time>2017-01-29T14:00:54Z</time>
      </trkpt>
      <trkpt lat="49.00598" lon="1.13835">
        <ele>122.519371</ele>
        <time>2017-01-29T14:00:58Z</time>
      </trkpt>
      <trkpt lat="49.0058" lon="1.13855">
        <ele>122.660004</ele>
        <time>2017-01-29T14:01:01Z</time>
      </trkpt>
      <trkpt lat="49.0057" lon="1.1387">
        <ele>122.885002</ele>
        <time>2017-01-29T14:01:04Z</time>
      </trkpt>
      <trkpt lat="49.00558" lon="1.13888">
        <ele>123.339996</ele>
        <time>2017-01-29T14:01:09Z</time>
      </trkpt>
      <trkpt lat="49.00565" lon="1.1391">
        <ele>123.010002</ele>
        <time>2017-01-29T14:01:13Z</time>
      </trkpt>
      <trkpt lat="49.00573" lon="1.13943">
        <ele>122.845001</ele>
        <time>2017-01-29T14:01:19Z</time>
      </trkpt>
      <trkpt lat="49.00575" lon="1.13973">
        <ele>122.800003</ele>
        <time>2017-01-29T14:01:22Z</time>
      </trkpt>
      <trkpt lat="49.00573" lon="1.1401">
        <ele>123.159378</ele>
        <time>2017-01-29T14:01:29Z</time>
      </trkpt>
      <trkpt lat="49.00568" lon="1.14033">
        <ele>123.606873</ele>
        <time>2017-01-29T14:01:33Z</time>
      </trkpt>
      <trkpt lat="49.00555" lon="1.14048">
        <ele>124.143448</ele>
        <time>2017-01-29T14:01:37Z</time>
      </trkpt>
      <trkpt lat="49.00543" lon="1.14033">
        <ele>124.35743</ele>
        <time>2017-01-29T14:01:42Z</time>
      </trkpt>
      <trkpt lat="49.00538" lon="1.1401">
        <ele>124.383499</ele>
        <time>2017-01-29T14:01:46Z</time>
      </trkpt>
      <trkpt lat="49.0053" lon="1.13978">
        <ele>124.599998</ele>
        <time>2017-01-29T14:01:51Z</time>
      </trkpt>
      <trkpt lat="49.00523" lon="1.13953">
        <ele>124.919998</ele>
        <time>2017-01-29T14:01:55Z</time>
      </trkpt>
      <trkpt lat="49.00518" lon="1.13928">
        <ele>125.139999</ele>
        <time>2017-01-29T14:01:59Z</time>
      </trkpt>
      <trkpt lat="49.0051" lon="1.13908">
        <ele>125.459999</ele>
        <time>2017-01-29T14:02:03Z</time>
      </trkpt>
      <trkpt lat="49.00503" lon="1.13888">
        <ele>125.790001</ele>
        <time>2017-01-29T14:02:05Z</time>
      </trkpt>
      <trkpt lat="49.0049" lon="1.1384">
        <ele>126.176453</ele>
        <time>2017-01-29T14:02:12Z</time>
      </trkpt>
      <trkpt lat="49.00485" lon="1.1382">
        <ele>126.137939</ele>
        <time>2017-01-29T14:02:16Z</time>
      </trkpt>
      <trkpt lat="49.0048" lon="1.13793">
        <ele>125.942863</ele>
        <time>2017-01-29T14:02:20Z</time>
      </trkpt>
      <trkpt lat="49.0047" lon="1.13768">
        <ele>126.154236</ele>
        <time>2017-01-29T14:02:23Z</time>
      </trkpt>
      <trkpt lat="49.00465" lon="1.13748">
        <ele>126.276779</ele>
        <time>2017-01-29T14:02:27Z</time>
      </trkpt>
      <trkpt lat="49.00455" lon="1.13698">
        <ele>126.404999</ele>
        <time>2017-01-29T14:02:33Z</time>
      </trkpt>
      <trkpt lat="49.00453" lon="1.13675">
        <ele>126.459999</ele>
        <time>2017-01-29T14:02:35Z</time>
      </trkpt>
      <trkpt lat="49.00448" lon="1.1365">
        <ele>126.565002</ele>
        <time>2017-01-29T14:02:39Z</time>
      </trkpt>
      <trkpt lat="49.0044" lon="1.1363">
        <ele>126.724998</ele>
        <time>2017-01-29T14:02:41Z</time>
      </trkpt>
      <trkpt lat="49.00433" lon="1.13605">
        <ele>126.885002</ele>
        <time>2017-01-29T14:02:46Z</time>
      </trkpt>
      <trkpt lat="49.00428" lon="1.13583">
        <ele>126.995041</ele>
        <time>2017-01-29T14:02:49Z</time>
      </trkpt>
      <trkpt lat="49.00423" lon="1.13553">
        <ele>127.099998</ele>
        <time>2017-01-29T14:02:54Z</time>
      </trkpt>
      <trkpt lat="49.00418" lon="1.1353">
        <ele>127.205002</ele>
        <time>2017-01-29T14:02:57Z</time>
      </trkpt>
      <trkpt lat="49.0041" lon="1.135">
        <ele>127.587502</ele>
        <time>2017-01-29T14:03:00Z</time>
      </trkpt>
      <trkpt lat="49.00403" lon="1.13473">
        <ele>128.153122</ele>
        <time>2017-01-29T14:03:04Z</time>
      </trkpt>
      <trkpt lat="49.00398" lon="1.13448">
        <ele>128.625626</ele>
        <time>2017-01-29T14:03:07Z</time>
      </trkpt>
      <trkpt lat="49.00393" lon="1.13428">
        <ele>128.740005</ele>
        <time>2017-01-29T14:03:10Z</time>
      </trkpt>
      <trkpt lat="49.00385" lon="1.134">
        <ele>128.899994</ele>
        <time>2017-01-29T14:03:15Z</time>
      </trkpt>
      <trkpt lat="49.00378" lon="1.13375">
        <ele>129.123749</ele>
        <time>2017-01-29T14:03:18Z</time>
      </trkpt>
      <trkpt lat="49.0037" lon="1.13345">
        <ele>129.725632</ele>
        <time>2017-01-29T14:03:23Z</time>
      </trkpt>
      <trkpt lat="49.00363" lon="1.13313">
        <ele>130.363754</ele>
        <time>2017-01-29T14:03:28Z</time>
      </trkpt>
      <trkpt lat="49.0036" lon="1.13288">
        <ele>130.429993</ele>
        <time>2017-01-29T14:03:33Z</time>
      </trkpt>
      <trkpt lat="49.00355" lon="1.13265">
        <ele>130.535004</ele>
        <time>2017-01-29T14:03:35Z</time>
      </trkpt>
      <trkpt lat="49.00348" lon="1.13235">
        <ele>130.657257</ele>
        <time>2017-01-29T14:03:40Z</time>
      </trkpt>
      <trkpt lat="49.0034" lon="1.13218">
        <ele>130.806458</ele>
        <time>2017-01-29T14:03:43Z</time>
      </trkpt>
      <trkpt lat="49.00335" lon="1.1319">
        <ele>130.937454</ele>
        <time>2017-01-29T14:03:47Z</time>
      </trkpt>
      <trkpt lat="49.0033" lon="1.1317">
        <ele>130.994431</ele>
        <time>2017-01-29T14:03:51Z</time>
      </trkpt>
      <trkpt lat="49.00325" lon="1.13143">
        <ele>130.774353</ele>
        <time>2017-01-29T14:03:54Z</time>
      </trkpt>
      <trkpt lat="49.0032" lon="1.13118">
        <ele>130.665298</ele>
        <time>2017-01-29T14:03:58Z</time>
      </trkpt>
      <trkpt lat="49.00315" lon="1.13095">
        <ele>130.779999</ele>
        <time>2017-01-29T14:04:02Z</time>
      </trkpt>
      <trkpt lat="49.0031" lon="1.13075">
        <ele>130.990005</ele>
        <time>2017-01-29T14:04:04Z</time>
      </trkpt>
      <trkpt lat="49.00303" lon="1.13055">
        <ele>131.309998</ele>
        <time>2017-01-29T14:04:08Z</time>
      </trkpt>
      <trkpt lat="49.00298" lon="1.13035">
        <ele>131.476929</ele>
        <time>2017-01-29T14:04:10Z</time>
      </trkpt>
      <trkpt lat="49.00293" lon="1.13015">
        <ele>131.423538</ele>
        <time>2017-01-29T14:04:13Z</time>
      </trkpt>
      <trkpt lat="49.0028" lon="1.13">
        <ele>131.642685</ele>
        <time>2017-01-29T14:04:16Z</time>
      </trkpt>
      <trkpt lat="49.00275" lon="1.12978">
        <ele>131.560944</ele>
        <time>2017-01-29T14:04:19Z</time>
      </trkpt>
      <trkpt lat="49.0027" lon="1.12958">
        <ele>131.506882</ele>
        <time>2017-01-29T14:04:22Z</time>
      </trkpt>
      <trkpt lat="49.00265" lon="1.12928">
        <ele>131.27562</ele>
        <time>2017-01-29T14:04:27Z</time>
      </trkpt>
      <trkpt lat="49.00258" lon="1.129">
        <ele>131.190628</ele>
        <time>2017-01-29T14:04:30Z</time>
      </trkpt>
      <trkpt lat="49.0025" lon="1.12875">
        <ele>131.141876</ele>
        <time>2017-01-29T14:04:34Z</time>
      </trkpt>
      <trkpt lat="49.00243" lon="1.1285">
        <ele>131.09375</ele>
        <time>2017-01-29T14:04:41Z</time>
      </trkpt>
      <trkpt lat="49.00228" lon="1.12843">
        <ele>131.368744</ele>
        <time>2017-01-29T14:04:49Z</time>
      </trkpt>
      <trkpt lat="49.0021" lon="1.12843">
        <ele>131.752502</ele>
        <time>2017-01-29T14:04:53Z</time>
      </trkpt>
      <trkpt lat="49.00193" lon="1.1284">
        <ele>132.097198</ele>
        <time>2017-01-29T14:04:58Z</time>
      </trkpt>
      <trkpt lat="49.0017" lon="1.12835">
        <ele>132.4496</ele>
        <time>2017-01-29T14:05:04Z</time>
      </trkpt>
      <trkpt lat="49.00155" lon="1.12833">
        <ele>132.651581</ele>
        <time>2017-01-29T14:05:07Z</time>
      </trkpt>
      <trkpt lat="49.0014" lon="1.1283">
        <ele>132.851868</ele>
        <time>2017-01-29T14:05:12Z</time>
      </trkpt>
      <trkpt lat="49.00125" lon="1.1283">
        <ele>133.16687</ele>
        <time>2017-01-29T14:05:17Z</time>
      </trkpt>
      <trkpt lat="49.00088" lon="1.12828">
        <ele>133.923462</ele>
        <time>2017-01-29T14:05:25Z</time>
      </trkpt>
      <trkpt lat="49.0007" lon="1.12828">
        <ele>134.369308</ele>
        <time>2017-01-29T14:05:28Z</time>
      </trkpt>
      <trkpt lat="49.00053" lon="1.12825">
        <ele>134.846329</ele>
        <time>2017-01-29T14:05:33Z</time>
      </trkpt>
      <trkpt lat="49.00033" lon="1.12825">
        <ele>135.617111</ele>
        <time>2017-01-29T14:05:37Z</time>
      </trkpt>
      <trkpt lat="49.00018" lon="1.12823">
        <ele>136.076447</ele>
        <time>2017-01-29T14:05:41Z</time>
      </trkpt>
      <trkpt lat="48.99993" lon="1.1282">
        <ele>136.703476</ele>
        <time>2017-01-29T14:05:47Z</time>
      </trkpt>
      <trkpt lat="48.9996" lon="1.12818">
        <ele>137.487503</ele>
        <time>2017-01-29T14:05:54Z</time>
      </trkpt>
      <trkpt lat="48.99945" lon="1.12815">
        <ele>137.738754</ele>
        <time>2017-01-29T14:05:57Z</time>
      </trkpt>
      <trkpt lat="48.99918" lon="1.12813">
        <ele>138.256256</ele>
        <time>2017-01-29T14:06:03Z</time>
      </trkpt>
      <trkpt lat="48.99898" lon="1.12813">
        <ele>138.6875</ele>
        <time>2017-01-29T14:06:07Z</time>
      </trkpt>
      <trkpt lat="48.9988" lon="1.1281">
        <ele>138.990036</ele>
        <time>2017-01-29T14:06:12Z</time>
      </trkpt>
      <trkpt lat="48.9986" lon="1.12805">
        <ele>139.091309</ele>
        <time>2017-01-29T14:06:16Z</time>
      </trkpt>
      <trkpt lat="48.99845" lon="1.12803">
        <ele>139.233688</ele>
        <time>2017-01-29T14:06:21Z</time>
      </trkpt>
      <trkpt lat="48.9983" lon="1.12803">
        <ele>139.409073</ele>
        <time>2017-01-29T14:06:25Z</time>
      </trkpt>
      <trkpt lat="48.99815" lon="1.12798">
        <ele>139.418686</ele>
        <time>2017-01-29T14:06:28Z</time>
      </trkpt>
      <trkpt lat="48.99798" lon="1.12795">
        <ele>139.450729</ele>
        <time>2017-01-29T14:06:31Z</time>
      </trkpt>
      <trkpt lat="48.99783" lon="1.12793">
        <ele>139.544006</ele>
        <time>2017-01-29T14:06:34Z</time>
      </trkpt>
      <trkpt lat="48.99753" lon="1.1279">
        <ele>140.018494</ele>
        <time>2017-01-29T14:06:40Z</time>
      </trkpt>
      <trkpt lat="48.99733" lon="1.12788">
        <ele>140.113754</ele>
        <time>2017-01-29T14:06:46Z</time>
      </trkpt>
      <trkpt lat="48.99723" lon="1.12803">
        <ele>140.330002</ele>
        <time>2017-01-29T14:06:49Z</time>
      </trkpt>
      <trkpt lat="48.99715" lon="1.12825">
        <ele>140.656876</ele>
        <time>2017-01-29T14:06:52Z</time>
      </trkpt>
      <trkpt lat="48.99715" lon="1.12848">
        <ele>140.986252</ele>
        <time>2017-01-29T14:06:55Z</time>
      </trkpt>
      <trkpt lat="48.99718" lon="1.12873">
        <ele>141.577362</ele>
        <time>2017-01-29T14:06:58Z</time>
      </trkpt>
      <trkpt lat="48.9972" lon="1.12895">
        <ele>142.08374</ele>
        <time>2017-01-29T14:07:01Z</time>
      </trkpt>
      <trkpt lat="48.99725" lon="1.12918">
        <ele>142.48288</ele>
        <time>2017-01-29T14:07:04Z</time>
      </trkpt>
      <trkpt lat="48.99725" lon="1.12943">
        <ele>142.681015</ele>
        <time>2017-01-29T14:07:07Z</time>
      </trkpt>
      <trkpt lat="48.9973" lon="1.12965">
        <ele>142.819916</ele>
        <time>2017-01-29T14:07:10Z</time>
      </trkpt>
      <trkpt lat="48.99735" lon="1.12995">
        <ele>143</ele>
        <time>2017-01-29T14:07:13Z</time>
      </trkpt>
      <trkpt lat="48.99738" lon="1.13018">
        <ele>143</ele>
        <time>2017-01-29T14:07:16Z</time>
      </trkpt>
      <trkpt lat="48.99743" lon="1.1304">
        <ele>143</ele>
        <time>2017-01-29T14:07:19Z</time>
      </trkpt>
      <trkpt lat="48.99745" lon="1.1307">
        <ele>143.016541</ele>
        <time>2017-01-29T14:07:24Z</time>
      </trkpt>
      <trkpt lat="48.9975" lon="1.13093">
        <ele>143</ele>
        <time>2017-01-29T14:07:28Z</time>
      </trkpt>
      <trkpt lat="48.99753" lon="1.13115">
        <ele>143</ele>
        <time>2017-01-29T14:07:31Z</time>
      </trkpt>
      <trkpt lat="48.99758" lon="1.13143">
        <ele>143.258102</ele>
        <time>2017-01-29T14:07:34Z</time>
      </trkpt>
      <trkpt lat="48.9976" lon="1.13165">
        <ele>143.491226</ele>
        <time>2017-01-29T14:07:37Z</time>
      </trkpt>
      <trkpt lat="48.99765" lon="1.1319">
        <ele>143.656555</ele>
        <time>2017-01-29T14:07:41Z</time>
      </trkpt>
      <trkpt lat="48.9977" lon="1.13213">
        <ele>143.700714</ele>
        <time>2017-01-29T14:07:44Z</time>
      </trkpt>
      <trkpt lat="48.99773" lon="1.13235">
        <ele>143.836807</ele>
        <time>2017-01-29T14:07:47Z</time>
      </trkpt>
      <trkpt lat="48.99778" lon="1.13258">
        <ele>144.004333</ele>
        <time>2017-01-29T14:07:50Z</time>
      </trkpt>
      <trkpt lat="48.99785" lon="1.13283">
        <ele>144.085495</ele>
        <time>2017-01-29T14:07:53Z</time>
      </trkpt>
      <trkpt lat="48.99788" lon="1.13315">
        <ele>144.149841</ele>
        <time>2017-01-29T14:07:56Z</time>
      </trkpt>
      <trkpt lat="48.9979" lon="1.1334">
        <ele>144.125</ele>
        <time>2017-01-29T14:08:00Z</time>
      </trkpt>
      <trkpt lat="48.99795" lon="1.13365">
        <ele>144.020004</ele>
        <time>2017-01-29T14:08:04Z</time>
      </trkpt>
      <trkpt lat="48.998" lon="1.1339">
        <ele>143.99649</ele>
        <time>2017-01-29T14:08:06Z</time>
      </trkpt>
      <trkpt lat="48.99805" lon="1.13415">
        <ele>144</ele>
        <time>2017-01-29T14:08:10Z</time>
      </trkpt>
      <trkpt lat="48.99808" lon="1.13445">
        <ele>144</ele>
        <time>2017-01-29T14:08:14Z</time>
      </trkpt>
      <trkpt lat="48.99815" lon="1.1347">
        <ele>144</ele>
        <time>2017-01-29T14:08:17Z</time>
      </trkpt>
      <trkpt lat="48.9982" lon="1.13498">
        <ele>144</ele>
        <time>2017-01-29T14:08:20Z</time>
      </trkpt>
      <trkpt lat="48.99823" lon="1.13533">
        <ele>144.023636</ele>
        <time>2017-01-29T14:08:23Z</time>
      </trkpt>
      <trkpt lat="48.99813" lon="1.13555">
        <ele>144.256073</ele>
        <time>2017-01-29T14:08:27Z</time>
      </trkpt>
      <trkpt lat="48.99798" lon="1.1357">
        <ele>144.597809</ele>
        <time>2017-01-29T14:08:30Z</time>
      </trkpt>
      <trkpt lat="48.9978" lon="1.1358">
        <ele>144.840622</ele>
        <time>2017-01-29T14:08:35Z</time>
      </trkpt>
      <trkpt lat="48.9976" lon="1.1359">
        <ele>144.981064</ele>
        <time>2017-01-29T14:08:40Z</time>
      </trkpt>
      <trkpt lat="48.99743" lon="1.13595">
        <ele>145.225906</ele>
        <time>2017-01-29T14:08:44Z</time>
      </trkpt>
      <trkpt lat="48.9972" lon="1.13605">
        <ele>145.744995</ele>
        <time>2017-01-29T14:08:49Z</time>
      </trkpt>
      <trkpt lat="48.997" lon="1.13615">
        <ele>146</ele>
        <time>2017-01-29T14:08:53Z</time>
      </trkpt>
      <trkpt lat="48.99693" lon="1.13635">
        <ele>146</ele>
        <time>2017-01-29T14:08:58Z</time>
      </trkpt>
      <trkpt lat="48.99695" lon="1.1366">
        <ele>146</ele>
        <time>2017-01-29T14:09:02Z</time>
      </trkpt>
      <trkpt lat="48.997" lon="1.13685">
        <ele>146</ele>
        <time>2017-01-29T14:09:06Z</time>
      </trkpt>
      <trkpt lat="48.99703" lon="1.13708">
        <ele>146</ele>
        <time>2017-01-29T14:09:09Z</time>
      </trkpt>
      <trkpt lat="48.99705" lon="1.13733">
        <ele>146</ele>
        <time>2017-01-29T14:09:13Z</time>
      </trkpt>
      <trkpt lat="48.9971" lon="1.13753">
        <ele>146.236252</ele>
        <time>2017-01-29T14:09:16Z</time>
      </trkpt>
      <trkpt lat="48.99718" lon="1.13808">
        <ele>147</ele>
        <time>2017-01-29T14:09:22Z</time>
      </trkpt>
      <trkpt lat="48.9972" lon="1.1383">
        <ele>147</ele>
        <time>2017-01-29T14:09:25Z</time>
      </trkpt>
      <trkpt lat="48.99725" lon="1.1385">
        <ele>147</ele>
        <time>2017-01-29T14:09:29Z</time>
      </trkpt>
      <trkpt lat="48.9973" lon="1.13875">
        <ele>147</ele>
        <time>2017-01-29T14:09:32Z</time>
      </trkpt>
      <trkpt lat="48.99733" lon="1.13903">
        <ele>147</ele>
        <time>2017-01-29T14:09:36Z</time>
      </trkpt>
      <trkpt lat="48.99735" lon="1.1393">
        <ele>147</ele>
        <time>2017-01-29T14:09:40Z</time>
      </trkpt>
      <trkpt lat="48.9974" lon="1.1395">
        <ele>146.861877</ele>
        <time>2017-01-29T14:09:43Z</time>
      </trkpt>
      <trkpt lat="48.99743" lon="1.13978">
        <ele>146.45813</ele>
        <time>2017-01-29T14:09:47Z</time>
      </trkpt>
      <trkpt lat="48.99748" lon="1.14003">
        <ele>146.090622</ele>
        <time>2017-01-29T14:09:51Z</time>
      </trkpt>
      <trkpt lat="48.9975" lon="1.14028">
        <ele>146</ele>
        <time>2017-01-29T14:09:55Z</time>
      </trkpt>
      <trkpt lat="48.99755" lon="1.14048">
        <ele>146</ele>
        <time>2017-01-29T14:09:58Z</time>
      </trkpt>
      <trkpt lat="48.99758" lon="1.14075">
        <ele>146</ele>
        <time>2017-01-29T14:10:02Z</time>
      </trkpt>
      <trkpt lat="48.9976" lon="1.14103">
        <ele>146</ele>
        <time>2017-01-29T14:10:06Z</time>
      </trkpt>
      <trkpt lat="48.99765" lon="1.14123">
        <ele>146</ele>
        <time>2017-01-29T14:10:09Z</time>
      </trkpt>
      <trkpt lat="48.9977" lon="1.1415">
        <ele>145.923126</ele>
        <time>2017-01-29T14:10:13Z</time>
      </trkpt>
      <trkpt lat="48.99763" lon="1.1417">
        <ele>145.632507</ele>
        <time>2017-01-29T14:10:17Z</time>
      </trkpt>
      <trkpt lat="48.99748" lon="1.14183">
        <ele>145.3367</ele>
        <time>2017-01-29T14:10:22Z</time>
      </trkpt>
      <trkpt lat="48.99733" lon="1.14193">
        <ele>145.126816</ele>
        <time>2017-01-29T14:10:26Z</time>
      </trkpt>
      <trkpt lat="48.9972" lon="1.14203">
        <ele>145.021408</ele>
        <time>2017-01-29T14:10:28Z</time>
      </trkpt>
      <trkpt lat="48.99703" lon="1.14215">
        <ele>144.723755</ele>
        <time>2017-01-29T14:10:33Z</time>
      </trkpt>
      <trkpt lat="48.99685" lon="1.14223">
        <ele>144.229996</ele>
        <time>2017-01-29T14:10:38Z</time>
      </trkpt>
      <trkpt lat="48.99673" lon="1.14233">
        <ele>143.808121</ele>
        <time>2017-01-29T14:10:41Z</time>
      </trkpt>
      <trkpt lat="48.99658" lon="1.14238">
        <ele>143.404999</ele>
        <time>2017-01-29T14:10:45Z</time>
      </trkpt>
      <trkpt lat="48.99643" lon="1.14245">
        <ele>142.964996</ele>
        <time>2017-01-29T14:10:48Z</time>
      </trkpt>
      <trkpt lat="48.99598" lon="1.14265">
        <ele>142.297501</ele>
        <time>2017-01-29T14:10:57Z</time>
      </trkpt>
      <trkpt lat="48.99575" lon="1.14278">
        <ele>142.001877</ele>
        <time>2017-01-29T14:11:02Z</time>
      </trkpt>
      <trkpt lat="48.9956" lon="1.14288">
        <ele>141.52562</ele>
        <time>2017-01-29T14:11:06Z</time>
      </trkpt>
      <trkpt lat="48.99545" lon="1.14295">
        <ele>141.085632</ele>
        <time>2017-01-29T14:11:09Z</time>
      </trkpt>
      <trkpt lat="48.99525" lon="1.14303">
        <ele>140.58757</ele>
        <time>2017-01-29T14:11:13Z</time>
      </trkpt>
      <trkpt lat="48.9951" lon="1.14295">
        <ele>140.381622</ele>
        <time>2017-01-29T14:11:18Z</time>
      </trkpt>
      <trkpt lat="48.995" lon="1.14275">
        <ele>140.393753</ele>
        <time>2017-01-29T14:11:23Z</time>
      </trkpt>
      <trkpt lat="48.9949" lon="1.1425">
        <ele>140.553131</ele>
        <time>2017-01-29T14:11:27Z</time>
      </trkpt>
      <trkpt lat="48.99483" lon="1.14228">
        <ele>140.88562</ele>
        <time>2017-01-29T14:11:30Z</time>
      </trkpt>
      <trkpt lat="48.99478" lon="1.14203">
        <ele>141.183517</ele>
        <time>2017-01-29T14:11:35Z</time>
      </trkpt>
      <trkpt lat="48.9947" lon="1.14183">
        <ele>141.310043</ele>
        <time>2017-01-29T14:11:38Z</time>
      </trkpt>
      <trkpt lat="48.99465" lon="1.14163">
        <ele>141.387833</ele>
        <time>2017-01-29T14:11:41Z</time>
      </trkpt>
      <trkpt lat="48.9946" lon="1.14143">
        <ele>141.487503</ele>
        <time>2017-01-29T14:11:44Z</time>
      </trkpt>
      <trkpt lat="48.99453" lon="1.14115">
        <ele>141.733124</ele>
        <time>2017-01-29T14:11:48Z</time>
      </trkpt>
      <trkpt lat="48.9945" lon="1.14093">
        <ele>142.013123</ele>
        <time>2017-01-29T14:11:51Z</time>
      </trkpt>
      <trkpt lat="48.99445" lon="1.14068">
        <ele>142.035004</ele>
        <time>2017-01-29T14:11:54Z</time>
      </trkpt>
      <trkpt lat="48.9944" lon="1.14043">
        <ele>141.929993</ele>
        <time>2017-01-29T14:11:57Z</time>
      </trkpt>
      <trkpt lat="48.99433" lon="1.14015">
        <ele>141.781067</ele>
        <time>2017-01-29T14:12:00Z</time>
      </trkpt>
      <trkpt lat="48.99428" lon="1.13993">
        <ele>141.887695</ele>
        <time>2017-01-29T14:12:04Z</time>
      </trkpt>
      <trkpt lat="48.99423" lon="1.1397">
        <ele>141.930313</ele>
        <time>2017-01-29T14:12:06Z</time>
      </trkpt>
      <trkpt lat="48.99418" lon="1.13943">
        <ele>141.944351</ele>
        <time>2017-01-29T14:12:10Z</time>
      </trkpt>
      <trkpt lat="48.99413" lon="1.13923">
        <ele>141.936035</ele>
        <time>2017-01-29T14:12:13Z</time>
      </trkpt>
      <trkpt lat="48.99405" lon="1.139">
        <ele>141.940155</ele>
        <time>2017-01-29T14:12:16Z</time>
      </trkpt>
      <trkpt lat="48.99398" lon="1.13865">
        <ele>142.020004</ele>
        <time>2017-01-29T14:12:21Z</time>
      </trkpt>
      <trkpt lat="48.9939" lon="1.13838">
        <ele>141.720001</ele>
        <time>2017-01-29T14:12:24Z</time>
      </trkpt>
      <trkpt lat="48.99385" lon="1.1381">
        <ele>141.509995</ele>
        <time>2017-01-29T14:12:27Z</time>
      </trkpt>
      <trkpt lat="48.9938" lon="1.13785">
        <ele>141.300003</ele>
        <time>2017-01-29T14:12:30Z</time>
      </trkpt>
      <trkpt lat="48.99373" lon="1.13758">
        <ele>140.979996</ele>
        <time>2017-01-29T14:12:33Z</time>
      </trkpt>
      <trkpt lat="48.9937" lon="1.13735">
        <ele>140.74437</ele>
        <time>2017-01-29T14:12:37Z</time>
      </trkpt>
      <trkpt lat="48.99365" lon="1.1371">
        <ele>140.16687</ele>
        <time>2017-01-29T14:12:40Z</time>
      </trkpt>
      <trkpt lat="48.99358" lon="1.13675">
        <ele>139.350006</ele>
        <time>2017-01-29T14:12:44Z</time>
      </trkpt>
      <trkpt lat="48.99353" lon="1.1365">
        <ele>139.139999</ele>
        <time>2017-01-29T14:12:47Z</time>
      </trkpt>
      <trkpt lat="48.99348" lon="1.13628">
        <ele>138.929993</ele>
        <time>2017-01-29T14:12:50Z</time>
      </trkpt>
      <trkpt lat="48.99343" lon="1.13603">
        <ele>138.710007</ele>
        <time>2017-01-29T14:12:53Z</time>
      </trkpt>
      <trkpt lat="48.99335" lon="1.13578">
        <ele>138.389999</ele>
        <time>2017-01-29T14:12:56Z</time>
      </trkpt>
      <trkpt lat="48.99333" lon="1.1355">
        <ele>138.289993</ele>
        <time>2017-01-29T14:12:59Z</time>
      </trkpt>
      <trkpt lat="48.99325" lon="1.13533">
        <ele>138.026382</ele>
        <time>2017-01-29T14:13:02Z</time>
      </trkpt>
      <trkpt lat="48.99318" lon="1.13505">
        <ele>137.806793</ele>
        <time>2017-01-29T14:13:04Z</time>
      </trkpt>
      <trkpt lat="48.9931" lon="1.13458">
        <ele>137.494995</ele>
        <time>2017-01-29T14:13:11Z</time>
      </trkpt>
      <trkpt lat="48.99303" lon="1.1343">
        <ele>137.014999</ele>
        <time>2017-01-29T14:13:14Z</time>
      </trkpt>
      <trkpt lat="48.99293" lon="1.13385">
        <ele>136.531067</ele>
        <time>2017-01-29T14:13:19Z</time>
      </trkpt>
      <trkpt lat="48.99285" lon="1.13363">
        <ele>136.030838</ele>
        <time>2017-01-29T14:13:22Z</time>
      </trkpt>
      <trkpt lat="48.9928" lon="1.13333">
        <ele>135.543503</ele>
        <time>2017-01-29T14:13:26Z</time>
      </trkpt>
      <trkpt lat="48.99275" lon="1.13305">
        <ele>135.064957</ele>
        <time>2017-01-29T14:13:29Z</time>
      </trkpt>
      <trkpt lat="48.9927" lon="1.1328">
        <ele>134.68277</ele>
        <time>2017-01-29T14:13:32Z</time>
      </trkpt>
      <trkpt lat="48.99263" lon="1.13248">
        <ele>133.998749</ele>
        <time>2017-01-29T14:13:35Z</time>
      </trkpt>
      <trkpt lat="48.99255" lon="1.1322">
        <ele>133.272339</ele>
        <time>2017-01-29T14:13:39Z</time>
      </trkpt>
      <trkpt lat="48.99248" lon="1.13183">
        <ele>132.401871</ele>
        <time>2017-01-29T14:13:43Z</time>
      </trkpt>
      <trkpt lat="48.99243" lon="1.1316">
        <ele>131.860626</ele>
        <time>2017-01-29T14:13:46Z</time>
      </trkpt>
      <trkpt lat="48.99235" lon="1.13135">
        <ele>131.172501</ele>
        <time>2017-01-29T14:13:49Z</time>
      </trkpt>
      <trkpt lat="48.9923" lon="1.13108">
        <ele>130.557495</ele>
        <time>2017-01-29T14:13:52Z</time>
      </trkpt>
      <trkpt lat="48.99225" lon="1.13085">
        <ele>130.016876</ele>
        <time>2017-01-29T14:13:55Z</time>
      </trkpt>
      <trkpt lat="48.9922" lon="1.1305">
        <ele>129.509995</ele>
        <time>2017-01-29T14:13:58Z</time>
      </trkpt>
      <trkpt lat="48.9921" lon="1.13025">
        <ele>129.080002</ele>
        <time>2017-01-29T14:14:01Z</time>
      </trkpt>
      <trkpt lat="48.99205" lon="1.13005">
        <ele>129.00827</ele>
        <time>2017-01-29T14:14:04Z</time>
      </trkpt>
      <trkpt lat="48.99198" lon="1.12973">
        <ele>128.722794</ele>
        <time>2017-01-29T14:14:09Z</time>
      </trkpt>
      <trkpt lat="48.9919" lon="1.1294">
        <ele>128.488358</ele>
        <time>2017-01-29T14:14:13Z</time>
      </trkpt>
      <trkpt lat="48.99183" lon="1.12913">
        <ele>128.306259</ele>
        <time>2017-01-29T14:14:16Z</time>
      </trkpt>
      <trkpt lat="48.99178" lon="1.1289">
        <ele>128.080002</ele>
        <time>2017-01-29T14:14:19Z</time>
      </trkpt>
      <trkpt lat="48.99173" lon="1.12865">
        <ele>127.816872</ele>
        <time>2017-01-29T14:14:22Z</time>
      </trkpt>
      <trkpt lat="48.99165" lon="1.12838">
        <ele>127.544029</ele>
        <time>2017-01-29T14:14:25Z</time>
      </trkpt>
      <trkpt lat="48.99158" lon="1.12808">
        <ele>127.370003</ele>
        <time>2017-01-29T14:14:28Z</time>
      </trkpt>
      <trkpt lat="48.9915" lon="1.12775">
        <ele>127.21125</ele>
        <time>2017-01-29T14:14:31Z</time>
      </trkpt>
      <trkpt lat="48.99143" lon="1.12743">
        <ele>127.052498</ele>
        <time>2017-01-29T14:14:34Z</time>
      </trkpt>
      <trkpt lat="48.99135" lon="1.12718">
        <ele>127.004372</ele>
        <time>2017-01-29T14:14:36Z</time>
      </trkpt>
      <trkpt lat="48.99128" lon="1.12678">
        <ele>126.735626</ele>
        <time>2017-01-29T14:14:42Z</time>
      </trkpt>
      <trkpt lat="48.9912" lon="1.12653">
        <ele>126.760002</ele>
        <time>2017-01-29T14:14:45Z</time>
      </trkpt>
      <trkpt lat="48.99115" lon="1.12618">
        <ele>126.970001</ele>
        <time>2017-01-29T14:14:48Z</time>
      </trkpt>
      <trkpt lat="48.9911" lon="1.12598">
        <ele>127.190628</ele>
        <time>2017-01-29T14:14:51Z</time>
      </trkpt>
      <trkpt lat="48.99105" lon="1.12573">
        <ele>127.189255</ele>
        <time>2017-01-29T14:14:54Z</time>
      </trkpt>
      <trkpt lat="48.991" lon="1.1255">
        <ele>127.206467</ele>
        <time>2017-01-29T14:14:58Z</time>
      </trkpt>
      <trkpt lat="48.99095" lon="1.12528">
        <ele>127.28199</ele>
        <time>2017-01-29T14:15:00Z</time>
      </trkpt>
      <trkpt lat="48.9909" lon="1.12503">
        <ele>127.264999</ele>
        <time>2017-01-29T14:15:04Z</time>
      </trkpt>
      <trkpt lat="48.99085" lon="1.12478">
        <ele>127.212502</ele>
        <time>2017-01-29T14:15:06Z</time>
      </trkpt>
      <trkpt lat="48.99078" lon="1.12453">
        <ele>127.311073</ele>
        <time>2017-01-29T14:15:10Z</time>
      </trkpt>
      <trkpt lat="48.9907" lon="1.12428">
        <ele>127.086174</ele>
        <time>2017-01-29T14:15:12Z</time>
      </trkpt>
      <trkpt lat="48.99065" lon="1.124">
        <ele>126.560722</ele>
        <time>2017-01-29T14:15:16Z</time>
      </trkpt>
      <trkpt lat="48.99058" lon="1.12375">
        <ele>126.471878</ele>
        <time>2017-01-29T14:15:19Z</time>
      </trkpt>
      <trkpt lat="48.99053" lon="1.12343">
        <ele>126.30938</ele>
        <time>2017-01-29T14:15:23Z</time>
      </trkpt>
      <trkpt lat="48.99048" lon="1.12315">
        <ele>126.283562</ele>
        <time>2017-01-29T14:15:26Z</time>
      </trkpt>
      <trkpt lat="48.99043" lon="1.12295">
        <ele>126.734123</ele>
        <time>2017-01-29T14:15:29Z</time>
      </trkpt>
      <trkpt lat="48.99038" lon="1.12268">
        <ele>127.163567</ele>
        <time>2017-01-29T14:15:33Z</time>
      </trkpt>
      <trkpt lat="48.99033" lon="1.12248">
        <ele>127.512695</ele>
        <time>2017-01-29T14:15:36Z</time>
      </trkpt>
      <trkpt lat="48.99028" lon="1.12228">
        <ele>128.069702</ele>
        <time>2017-01-29T14:15:39Z</time>
      </trkpt>
      <trkpt lat="48.99018" lon="1.1219">
        <ele>128.94931</ele>
        <time>2017-01-29T14:15:45Z</time>
      </trkpt>
      <trkpt lat="48.9901" lon="1.1216">
        <ele>129.214996</ele>
        <time>2017-01-29T14:15:49Z</time>
      </trkpt>
      <trkpt lat="48.99005" lon="1.12138">
        <ele>129.324997</ele>
        <time>2017-01-29T14:15:54Z</time>
      </trkpt>
      <trkpt lat="48.99003" lon="1.12113">
        <ele>129.375</ele>
        <time>2017-01-29T14:15:58Z</time>
      </trkpt>
      <trkpt lat="48.98998" lon="1.12093">
        <ele>129.479996</ele>
        <time>2017-01-29T14:16:02Z</time>
      </trkpt>
      <trkpt lat="48.98993" lon="1.12068">
        <ele>129.585007</ele>
        <time>2017-01-29T14:16:06Z</time>
      </trkpt>
      <trkpt lat="48.98998" lon="1.12045">
        <ele>129.428085</ele>
        <time>2017-01-29T14:16:11Z</time>
      </trkpt>
      <trkpt lat="48.99003" lon="1.12025">
        <ele>128.25238</ele>
        <time>2017-01-29T14:16:15Z</time>
      </trkpt>
      <trkpt lat="48.99018" lon="1.12003">
        <ele>126.516907</ele>
        <time>2017-01-29T14:16:20Z</time>
      </trkpt>
      <trkpt lat="48.99013" lon="1.1198">
        <ele>125.402473</ele>
        <time>2017-01-29T14:16:24Z</time>
      </trkpt>
      <trkpt lat="48.99008" lon="1.11958">
        <ele>122.621361</ele>
        <time>2017-01-29T14:16:27Z</time>
      </trkpt>
      <trkpt lat="48.99" lon="1.1194">
        <ele>120.51252</ele>
        <time>2017-01-29T14:16:29Z</time>
      </trkpt>
      <trkpt lat="48.98988" lon="1.11928">
        <ele>119.462936</ele>
        <time>2017-01-29T14:16:31Z</time>
      </trkpt>
      <trkpt lat="48.9898" lon="1.1191">
        <ele>117.54158</ele>
        <time>2017-01-29T14:16:36Z</time>
      </trkpt>
      <trkpt lat="48.98988" lon="1.11888">
        <ele>113.102501</ele>
        <time>2017-01-29T14:16:39Z</time>
      </trkpt>
      <trkpt lat="48.99003" lon="1.11873">
        <ele>109.525002</ele>
        <time>2017-01-29T14:16:41Z</time>
      </trkpt>
      <trkpt lat="48.99018" lon="1.1187">
        <ele>108.091492</ele>
        <time>2017-01-29T14:16:45Z</time>
      </trkpt>
      <trkpt lat="48.9903" lon="1.1186">
        <ele>104.508232</ele>
        <time>2017-01-29T14:16:48Z</time>
      </trkpt>
      <trkpt lat="48.9903" lon="1.11833">
        <ele>99.347504</ele>
        <time>2017-01-29T14:16:52Z</time>
      </trkpt>
      <trkpt lat="48.9902" lon="1.11815">
        <ele>96.953316</ele>
        <time>2017-01-29T14:16:54Z</time>
      </trkpt>
      <trkpt lat="48.99005" lon="1.11805">
        <ele>96.024689</ele>
        <time>2017-01-29T14:16:57Z</time>
      </trkpt>
      <trkpt lat="48.9899" lon="1.11795">
        <ele>94.99749</ele>
        <time>2017-01-29T14:17:00Z</time>
      </trkpt>
      <trkpt lat="48.98978" lon="1.11785">
        <ele>93.877693</ele>
        <time>2017-01-29T14:17:04Z</time>
      </trkpt>
      <trkpt lat="48.98978" lon="1.11763">
        <ele>90.403999</ele>
        <time>2017-01-29T14:17:09Z</time>
      </trkpt>
      <trkpt lat="48.98995" lon="1.11763">
        <ele>89.117027</ele>
        <time>2017-01-29T14:17:13Z</time>
      </trkpt>
      <trkpt lat="48.99015" lon="1.11763">
        <ele>87.623947</ele>
        <time>2017-01-29T14:17:17Z</time>
      </trkpt>
      <trkpt lat="48.99033" lon="1.11765">
        <ele>86.724998</ele>
        <time>2017-01-29T14:17:22Z</time>
      </trkpt>
      <trkpt lat="48.99045" lon="1.11775">
        <ele>86.67775</ele>
        <time>2017-01-29T14:17:26Z</time>
      </trkpt>
      <trkpt lat="48.99068" lon="1.11793">
        <ele>87.85527</ele>
        <time>2017-01-29T14:17:32Z</time>
      </trkpt>
      <trkpt lat="48.9908" lon="1.11808">
        <ele>88.502327</ele>
        <time>2017-01-29T14:17:35Z</time>
      </trkpt>
      <trkpt lat="48.99095" lon="1.11825">
        <ele>88.099998</ele>
        <time>2017-01-29T14:17:40Z</time>
      </trkpt>
      <trkpt lat="48.99115" lon="1.11853">
        <ele>89.090698</ele>
        <time>2017-01-29T14:17:46Z</time>
      </trkpt>
      <trkpt lat="48.99128" lon="1.1187">
        <ele>90.661865</ele>
        <time>2017-01-29T14:17:49Z</time>
      </trkpt>
      <trkpt lat="48.99143" lon="1.1188">
        <ele>89.860519</ele>
        <time>2017-01-29T14:17:53Z</time>
      </trkpt>
      <trkpt lat="48.99158" lon="1.11888">
        <ele>88.941017</ele>
        <time>2017-01-29T14:17:56Z</time>
      </trkpt>
      <trkpt lat="48.99173" lon="1.1189">
        <ele>88.633026</ele>
        <time>2017-01-29T14:17:59Z</time>
      </trkpt>
      <trkpt lat="48.99193" lon="1.1189">
        <ele>87.883385</ele>
        <time>2017-01-29T14:18:03Z</time>
      </trkpt>
      <trkpt lat="48.99208" lon="1.11885">
        <ele>88.510399</ele>
        <time>2017-01-29T14:18:05Z</time>
      </trkpt>
      <trkpt lat="48.99223" lon="1.1188">
        <ele>89.509987</ele>
        <time>2017-01-29T14:18:09Z</time>
      </trkpt>
      <trkpt lat="48.99238" lon="1.11873">
        <ele>89.741653</ele>
        <time>2017-01-29T14:18:12Z</time>
      </trkpt>
      <trkpt lat="48.99255" lon="1.1186">
        <ele>89.952461</ele>
        <time>2017-01-29T14:18:15Z</time>
      </trkpt>
      <trkpt lat="48.99268" lon="1.11848">
        <ele>89.30423</ele>
        <time>2017-01-29T14:18:19Z</time>
      </trkpt>
      <trkpt lat="48.99275" lon="1.1183">
        <ele>87.23838</ele>
        <time>2017-01-29T14:18:22Z</time>
      </trkpt>
      <trkpt lat="48.99283" lon="1.11813">
        <ele>86.784409</ele>
        <time>2017-01-29T14:18:25Z</time>
      </trkpt>
      <trkpt lat="48.99293" lon="1.11798">
        <ele>87.182655</ele>
        <time>2017-01-29T14:18:28Z</time>
      </trkpt>
      <trkpt lat="48.99323" lon="1.1176">
        <ele>87.588028</ele>
        <time>2017-01-29T14:18:35Z</time>
      </trkpt>
      <trkpt lat="48.99333" lon="1.11743">
        <ele>87.727974</ele>
        <time>2017-01-29T14:18:38Z</time>
      </trkpt>
      <trkpt lat="48.99345" lon="1.11725">
        <ele>89.006874</ele>
        <time>2017-01-29T14:18:40Z</time>
      </trkpt>
      <trkpt lat="48.99355" lon="1.11708">
        <ele>88.736824</ele>
        <time>2017-01-29T14:18:43Z</time>
      </trkpt>
      <trkpt lat="48.99365" lon="1.1169">
        <ele>88.049278</ele>
        <time>2017-01-29T14:18:47Z</time>
      </trkpt>
      <trkpt lat="48.99373" lon="1.1167">
        <ele>87.193451</ele>
        <time>2017-01-29T14:18:50Z</time>
      </trkpt>
      <trkpt lat="48.9939" lon="1.11625">
        <ele>87.273773</ele>
        <time>2017-01-29T14:18:57Z</time>
      </trkpt>
      <trkpt lat="48.99395" lon="1.11605">
        <ele>88.080879</ele>
        <time>2017-01-29T14:19:00Z</time>
      </trkpt>
      <trkpt lat="48.99398" lon="1.11583">
        <ele>88.08226</ele>
        <time>2017-01-29T14:19:03Z</time>
      </trkpt>
      <trkpt lat="48.99398" lon="1.11555">
        <ele>87.629478</ele>
        <time>2017-01-29T14:19:07Z</time>
      </trkpt>
      <trkpt lat="48.99395" lon="1.1153">
        <ele>88.400627</ele>
        <time>2017-01-29T14:19:11Z</time>
      </trkpt>
      <trkpt lat="48.99388" lon="1.11508">
        <ele>87.536896</ele>
        <time>2017-01-29T14:19:14Z</time>
      </trkpt>
      <trkpt lat="48.99383" lon="1.11488">
        <ele>87.118378</ele>
        <time>2017-01-29T14:19:17Z</time>
      </trkpt>
      <trkpt lat="48.99373" lon="1.11468">
        <ele>85.755363</ele>
        <time>2017-01-29T14:19:19Z</time>
      </trkpt>
      <trkpt lat="48.99358" lon="1.11423">
        <ele>86.783142</ele>
        <time>2017-01-29T14:19:27Z</time>
      </trkpt>
      <trkpt lat="48.99358" lon="1.11398">
        <ele>85.415291</ele>
        <time>2017-01-29T14:19:31Z</time>
      </trkpt>
      <trkpt lat="48.99368" lon="1.11378">
        <ele>84.84446</ele>
        <time>2017-01-29T14:19:35Z</time>
      </trkpt>
      <trkpt lat="48.99383" lon="1.11368">
        <ele>84.949997</ele>
        <time>2017-01-29T14:19:38Z</time>
      </trkpt>
      <trkpt lat="48.99398" lon="1.1136">
        <ele>84.727936</ele>
        <time>2017-01-29T14:19:40Z</time>
      </trkpt>
      <trkpt lat="48.99413" lon="1.11355">
        <ele>84.337997</ele>
        <time>2017-01-29T14:19:43Z</time>
      </trkpt>
      <trkpt lat="48.9943" lon="1.11345">
        <ele>84.706818</ele>
        <time>2017-01-29T14:19:47Z</time>
      </trkpt>
      <trkpt lat="48.9945" lon="1.11335">
        <ele>85.131104</ele>
        <time>2017-01-29T14:19:51Z</time>
      </trkpt>
      <trkpt lat="48.9948" lon="1.11318">
        <ele>85.480087</ele>
        <time>2017-01-29T14:19:57Z</time>
      </trkpt>
      <trkpt lat="48.99495" lon="1.11308">
        <ele>84.959396</ele>
        <time>2017-01-29T14:20:00Z</time>
      </trkpt>
      <trkpt lat="48.99508" lon="1.11293">
        <ele>82.727249</ele>
        <time>2017-01-29T14:20:03Z</time>
      </trkpt>
      <trkpt lat="48.99523" lon="1.11278">
        <ele>82.876495</ele>
        <time>2017-01-29T14:20:05Z</time>
      </trkpt>
      <trkpt lat="48.9955" lon="1.1125">
        <ele>83.863998</ele>
        <time>2017-01-29T14:20:11Z</time>
      </trkpt>
      <trkpt lat="48.99568" lon="1.11235">
        <ele>83.349747</ele>
        <time>2017-01-29T14:20:15Z</time>
      </trkpt>
      <trkpt lat="48.9958" lon="1.11225">
        <ele>82.306274</ele>
        <time>2017-01-29T14:20:18Z</time>
      </trkpt>
      <trkpt lat="48.99595" lon="1.11215">
        <ele>80.766235</ele>
        <time>2017-01-29T14:20:22Z</time>
      </trkpt>
      <trkpt lat="48.99613" lon="1.11205">
        <ele>81.741501</ele>
        <time>2017-01-29T14:20:25Z</time>
      </trkpt>
      <trkpt lat="48.99648" lon="1.11185">
        <ele>83.394753</ele>
        <time>2017-01-29T14:20:32Z</time>
      </trkpt>
      <trkpt lat="48.99665" lon="1.11175">
        <ele>83.857964</ele>
        <time>2017-01-29T14:20:35Z</time>
      </trkpt>
      <trkpt lat="48.99685" lon="1.1116">
        <ele>82.597992</ele>
        <time>2017-01-29T14:20:40Z</time>
      </trkpt>
      <trkpt lat="48.99698" lon="1.11148">
        <ele>82.837128</ele>
        <time>2017-01-29T14:20:42Z</time>
      </trkpt>
      <trkpt lat="48.9972" lon="1.11123">
        <ele>84.578964</ele>
        <time>2017-01-29T14:20:48Z</time>
      </trkpt>
      <trkpt lat="48.99733" lon="1.11108">
        <ele>84.963875</ele>
        <time>2017-01-29T14:20:51Z</time>
      </trkpt>
      <trkpt lat="48.99745" lon="1.11088">
        <ele>85.064339</ele>
        <time>2017-01-29T14:20:54Z</time>
      </trkpt>
      <trkpt lat="48.99755" lon="1.11073">
        <ele>84.835999</ele>
        <time>2017-01-29T14:20:57Z</time>
      </trkpt>
      <trkpt lat="48.99768" lon="1.1106">
        <ele>86.11319</ele>
        <time>2017-01-29T14:21:00Z</time>
      </trkpt>
      <trkpt lat="48.99778" lon="1.11045">
        <ele>85.649353</ele>
        <time>2017-01-29T14:21:04Z</time>
      </trkpt>
      <trkpt lat="48.9979" lon="1.1103">
        <ele>84.919647</ele>
        <time>2017-01-29T14:21:06Z</time>
      </trkpt>
      <trkpt lat="48.99803" lon="1.11018">
        <ele>84.047028</ele>
        <time>2017-01-29T14:21:10Z</time>
      </trkpt>
      <trkpt lat="48.9983" lon="1.10985">
        <ele>83.010437</ele>
        <time>2017-01-29T14:21:16Z</time>
      </trkpt>
      <trkpt lat="48.99843" lon="1.10975">
        <ele>83.901749</ele>
        <time>2017-01-29T14:21:19Z</time>
      </trkpt>
      <trkpt lat="48.99855" lon="1.10965">
        <ele>84.229401</ele>
        <time>2017-01-29T14:21:23Z</time>
      </trkpt>
      <trkpt lat="48.99868" lon="1.10953">
        <ele>83.69265</ele>
        <time>2017-01-29T14:21:26Z</time>
      </trkpt>
      <trkpt lat="48.9988" lon="1.10933">
        <ele>81.977997</ele>
        <time>2017-01-29T14:21:30Z</time>
      </trkpt>
      <trkpt lat="48.9989" lon="1.10918">
        <ele>82.292564</ele>
        <time>2017-01-29T14:21:32Z</time>
      </trkpt>
      <trkpt lat="48.99905" lon="1.10893">
        <ele>81.374428</ele>
        <time>2017-01-29T14:21:38Z</time>
      </trkpt>
      <trkpt lat="48.99913" lon="1.10873">
        <ele>79.201599</ele>
        <time>2017-01-29T14:21:41Z</time>
      </trkpt>
      <trkpt lat="48.99928" lon="1.10878">
        <ele>79.994911</ele>
        <time>2017-01-29T14:21:46Z</time>
      </trkpt>
      <trkpt lat="48.9994" lon="1.1089">
        <ele>81.365128</ele>
        <time>2017-01-29T14:21:51Z</time>
      </trkpt>
      <trkpt lat="48.99953" lon="1.10905">
        <ele>82.67868</ele>
        <time>2017-01-29T14:21:55Z</time>
      </trkpt>
      <trkpt lat="48.99965" lon="1.1092">
        <ele>83.293594</ele>
        <time>2017-01-29T14:22:01Z</time>
      </trkpt>
      <trkpt lat="48.99993" lon="1.10955">
        <ele>83.787003</ele>
        <time>2017-01-29T14:22:12Z</time>
      </trkpt>
      <trkpt lat="49.0001" lon="1.10975">
        <ele>83.968422</ele>
        <time>2017-01-29T14:22:17Z</time>
      </trkpt>
      <trkpt lat="49.00028" lon="1.10998">
        <ele>83.967064</ele>
        <time>2017-01-29T14:22:23Z</time>
      </trkpt>
      <trkpt lat="49.0004" lon="1.11015">
        <ele>84.4674</ele>
        <time>2017-01-29T14:22:28Z</time>
      </trkpt>
      <trkpt lat="49.00053" lon="1.11033">
        <ele>85.0177</ele>
        <time>2017-01-29T14:22:32Z</time>
      </trkpt>
      <trkpt lat="49.00063" lon="1.1105">
        <ele>85.405289</ele>
        <time>2017-01-29T14:22:37Z</time>
      </trkpt>
      <trkpt lat="49.00063" lon="1.11073">
        <ele>87.193939</ele>
        <time>2017-01-29T14:22:44Z</time>
      </trkpt>
      <trkpt lat="49.0006" lon="1.111">
        <ele>90.901054</ele>
        <time>2017-01-29T14:22:51Z</time>
      </trkpt>
      <trkpt lat="49.00065" lon="1.1112">
        <ele>92.930313</ele>
        <time>2017-01-29T14:22:58Z</time>
      </trkpt>
      <trkpt lat="49.00073" lon="1.11138">
        <ele>94.555</ele>
        <time>2017-01-29T14:23:04Z</time>
      </trkpt>
      <trkpt lat="49.00083" lon="1.11155">
        <ele>96.574997</ele>
        <time>2017-01-29T14:23:13Z</time>
      </trkpt>
      <trkpt lat="49.00093" lon="1.1117">
        <ele>98.040161</ele>
        <time>2017-01-29T14:23:21Z</time>
      </trkpt>
      <trkpt lat="49.00103" lon="1.11185">
        <ele>99.369911</ele>
        <time>2017-01-29T14:23:29Z</time>
      </trkpt>
      <trkpt lat="49.0011" lon="1.11205">
        <ele>101.85125</ele>
        <time>2017-01-29T14:23:47Z</time>
      </trkpt>
      <trkpt lat="49.00128" lon="1.11213">
        <ele>100.697502</ele>
        <time>2017-01-29T14:23:52Z</time>
      </trkpt>
      <trkpt lat="49.00143" lon="1.11223">
        <ele>100.078751</ele>
        <time>2017-01-29T14:23:55Z</time>
      </trkpt>
      <trkpt lat="49.00163" lon="1.11233">
        <ele>99.081497</ele>
        <time>2017-01-29T14:23:58Z</time>
      </trkpt>
      <trkpt lat="49.00188" lon="1.11248">
        <ele>98.936249</ele>
        <time>2017-01-29T14:24:02Z</time>
      </trkpt>
      <trkpt lat="49.00205" lon="1.11258">
        <ele>98.761253</ele>
        <time>2017-01-29T14:24:05Z</time>
      </trkpt>
      <trkpt lat="49.0022" lon="1.1126">
        <ele>97.337502</ele>
        <time>2017-01-29T14:24:08Z</time>
      </trkpt>
      <trkpt lat="49.00235" lon="1.1127">
        <ele>97.43232</ele>
        <time>2017-01-29T14:24:11Z</time>
      </trkpt>
      <trkpt lat="49.0025" lon="1.11275">
        <ele>96.506073</ele>
        <time>2017-01-29T14:24:15Z</time>
      </trkpt>
      <trkpt lat="49.00265" lon="1.1128">
        <ele>95.669746</ele>
        <time>2017-01-29T14:24:18Z</time>
      </trkpt>
      <trkpt lat="49.00283" lon="1.1129">
        <ele>95.102379</ele>
        <time>2017-01-29T14:24:22Z</time>
      </trkpt>
      <trkpt lat="49.00295" lon="1.11305">
        <ele>96.542923</ele>
        <time>2017-01-29T14:24:26Z</time>
      </trkpt>
      <trkpt lat="49.0031" lon="1.1132">
        <ele>97.823013</ele>
        <time>2017-01-29T14:24:30Z</time>
      </trkpt>
      <trkpt lat="49.00318" lon="1.11338">
        <ele>100.248421</ele>
        <time>2017-01-29T14:24:35Z</time>
      </trkpt>
      <trkpt lat="49.00318" lon="1.11363">
        <ele>103.885139</ele>
        <time>2017-01-29T14:24:41Z</time>
      </trkpt>
      <trkpt lat="49.00305" lon="1.11375">
        <ele>107.613747</ele>
        <time>2017-01-29T14:24:48Z</time>
      </trkpt>
      <trkpt lat="49.0029" lon="1.11383">
        <ele>110.673752</ele>
        <time>2017-01-29T14:24:55Z</time>
      </trkpt>
      <trkpt lat="49.00275" lon="1.11388">
        <ele>113.358749</ele>
        <time>2017-01-29T14:25:01Z</time>
      </trkpt>
      <trkpt lat="49.0026" lon="1.11398">
        <ele>116.364334</ele>
        <time>2017-01-29T14:25:07Z</time>
      </trkpt>
      <trkpt lat="49.00245" lon="1.11403">
        <ele>118.277603</ele>
        <time>2017-01-29T14:25:13Z</time>
      </trkpt>
      <trkpt lat="49.0023" lon="1.1141">
        <ele>119.819687</ele>
        <time>2017-01-29T14:25:19Z</time>
      </trkpt>
      <trkpt lat="49.00215" lon="1.11415">
        <ele>120.837502</ele>
        <time>2017-01-29T14:25:24Z</time>
      </trkpt>
      <trkpt lat="49.002" lon="1.1142">
        <ele>121.643753</ele>
        <time>2017-01-29T14:25:30Z</time>
      </trkpt>
      <trkpt lat="49.00178" lon="1.1143">
        <ele>122.878593</ele>
        <time>2017-01-29T14:25:38Z</time>
      </trkpt>
      <trkpt lat="49.00163" lon="1.11438">
        <ele>123.595474</ele>
        <time>2017-01-29T14:25:44Z</time>
      </trkpt>
      <trkpt lat="49.00148" lon="1.11443">
        <ele>124.282967</ele>
        <time>2017-01-29T14:25:49Z</time>
      </trkpt>
      <trkpt lat="49.00128" lon="1.11455">
        <ele>125.457642</ele>
        <time>2017-01-29T14:25:58Z</time>
      </trkpt>
      <trkpt lat="49.00113" lon="1.1146">
        <ele>126.048561</ele>
        <time>2017-01-29T14:26:03Z</time>
      </trkpt>
      <trkpt lat="49.00098" lon="1.11468">
        <ele>126.671417</ele>
        <time>2017-01-29T14:26:09Z</time>
      </trkpt>
      <trkpt lat="49.00078" lon="1.11478">
        <ele>127.305</ele>
        <time>2017-01-29T14:26:16Z</time>
      </trkpt>
      <trkpt lat="49.00045" lon="1.11493">
        <ele>128</ele>
        <time>2017-01-29T14:26:27Z</time>
      </trkpt>
      <trkpt lat="49.00028" lon="1.115">
        <ele>128</ele>
        <time>2017-01-29T14:26:31Z</time>
      </trkpt>
      <trkpt lat="49.00013" lon="1.11505">
        <ele>128</ele>
        <time>2017-01-29T14:26:38Z</time>
      </trkpt>
      <trkpt lat="48.99988" lon="1.1151">
        <ele>127.684998</ele>
        <time>2017-01-29T14:29:11Z</time>
      </trkpt>
      <trkpt lat="48.99973" lon="1.1152">
        <ele>127.345001</ele>
        <time>2017-01-29T14:29:18Z</time>
      </trkpt>
      <trkpt lat="48.99958" lon="1.11528">
        <ele>127.010002</ele>
        <time>2017-01-29T14:29:22Z</time>
      </trkpt>
      <trkpt lat="48.99938" lon="1.11538">
        <ele>126.513344</ele>
        <time>2017-01-29T14:29:29Z</time>
      </trkpt>
      <trkpt lat="48.99918" lon="1.11548">
        <ele>126.091309</ele>
        <time>2017-01-29T14:29:35Z</time>
      </trkpt>
      <trkpt lat="48.9991" lon="1.11525">
        <ele>125.643753</ele>
        <time>2017-01-29T14:29:40Z</time>
      </trkpt>
      <trkpt lat="48.99903" lon="1.11505">
        <ele>125.183754</ele>
        <time>2017-01-29T14:29:44Z</time>
      </trkpt>
      <trkpt lat="48.99898" lon="1.1148">
        <ele>124.710625</ele>
        <time>2017-01-29T14:29:48Z</time>
      </trkpt>
      <trkpt lat="48.9989" lon="1.11455">
        <ele>124.181877</ele>
        <time>2017-01-29T14:29:52Z</time>
      </trkpt>
      <trkpt lat="48.99885" lon="1.1143">
        <ele>123.709373</ele>
        <time>2017-01-29T14:29:57Z</time>
      </trkpt>
      <trkpt lat="48.99878" lon="1.11405">
        <ele>123.139351</ele>
        <time>2017-01-29T14:30:01Z</time>
      </trkpt>
      <trkpt lat="48.99873" lon="1.11383">
        <ele>122.617081</ele>
        <time>2017-01-29T14:30:04Z</time>
      </trkpt>
      <trkpt lat="48.9987" lon="1.11358">
        <ele>122.16423</ele>
        <time>2017-01-29T14:30:09Z</time>
      </trkpt>
      <trkpt lat="48.99878" lon="1.1134">
        <ele>121.707809</ele>
        <time>2017-01-29T14:30:12Z</time>
      </trkpt>
      <trkpt lat="48.9989" lon="1.11318">
        <ele>121.049561</ele>
        <time>2017-01-29T14:30:16Z</time>
      </trkpt>
      <trkpt lat="48.999" lon="1.113">
        <ele>120.259262</ele>
        <time>2017-01-29T14:30:26Z</time>
      </trkpt>
      <trkpt lat="48.9991" lon="1.11285">
        <ele>119.361748</ele>
        <time>2017-01-29T14:30:30Z</time>
      </trkpt>
      <trkpt lat="48.99923" lon="1.11273">
        <ele>119.284561</ele>
        <time>2017-01-29T14:30:34Z</time>
      </trkpt>
      <trkpt lat="48.99925" lon="1.11248">
        <ele>118.704689</ele>
        <time>2017-01-29T14:30:42Z</time>
      </trkpt>
      <trkpt lat="48.99918" lon="1.11225">
        <ele>118.523811</ele>
        <time>2017-01-29T14:30:48Z</time>
      </trkpt>
      <trkpt lat="48.99905" lon="1.11215">
        <ele>119.182594</ele>
        <time>2017-01-29T14:30:52Z</time>
      </trkpt>
      <trkpt lat="48.99898" lon="1.11198">
        <ele>119.029846</ele>
        <time>2017-01-29T14:30:55Z</time>
      </trkpt>
      <trkpt lat="48.99893" lon="1.11178">
        <ele>117.946228</ele>
        <time>2017-01-29T14:30:59Z</time>
      </trkpt>
      <trkpt lat="48.99893" lon="1.11153">
        <ele>116.345062</ele>
        <time>2017-01-29T14:31:06Z</time>
      </trkpt>
      <trkpt lat="48.9988" lon="1.1113">
        <ele>114.653748</ele>
        <time>2017-01-29T14:31:23Z</time>
      </trkpt>
      <trkpt lat="48.99885" lon="1.1111">
        <ele>111.934784</ele>
        <time>2017-01-29T14:31:40Z</time>
      </trkpt>
      <trkpt lat="48.999" lon="1.11113">
        <ele>112.215965</ele>
        <time>2017-01-29T14:31:47Z</time>
      </trkpt>
      <trkpt lat="48.99915" lon="1.1111">
        <ele>110.893303</ele>
        <time>2017-01-29T14:31:51Z</time>
      </trkpt>
      <trkpt lat="48.9991" lon="1.1109">
        <ele>109.187569</ele>
        <time>2017-01-29T14:31:58Z</time>
      </trkpt>
      <trkpt lat="48.99895" lon="1.11088">
        <ele>109.100754</ele>
        <time>2017-01-29T14:32:01Z</time>
      </trkpt>
      <trkpt lat="48.9988" lon="1.11093">
        <ele>109.575119</ele>
        <time>2017-01-29T14:32:07Z</time>
      </trkpt>
      <trkpt lat="48.99868" lon="1.11105">
        <ele>111.238632</ele>
        <time>2017-01-29T14:32:12Z</time>
      </trkpt>
      <trkpt lat="48.99855" lon="1.11118">
        <ele>112.175392</ele>
        <time>2017-01-29T14:32:16Z</time>
      </trkpt>
      <trkpt lat="48.99843" lon="1.1113">
        <ele>112.837509</ele>
        <time>2017-01-29T14:32:24Z</time>
      </trkpt>
      <trkpt lat="48.9983" lon="1.11143">
        <ele>113.477715</ele>
        <time>2017-01-29T14:32:30Z</time>
      </trkpt>
      <trkpt lat="48.99818" lon="1.11158">
        <ele>114.061539</ele>
        <time>2017-01-29T14:32:38Z</time>
      </trkpt>
      <trkpt lat="48.99805" lon="1.1117">
        <ele>113.643936</ele>
        <time>2017-01-29T14:32:43Z</time>
      </trkpt>
      <trkpt lat="48.99795" lon="1.11185">
        <ele>114.221237</ele>
        <time>2017-01-29T14:32:49Z</time>
      </trkpt>
      <trkpt lat="48.99785" lon="1.112">
        <ele>115.063774</ele>
        <time>2017-01-29T14:32:54Z</time>
      </trkpt>
      <trkpt lat="48.99773" lon="1.1122">
        <ele>116.290215</ele>
        <time>2017-01-29T14:33:00Z</time>
      </trkpt>
      <trkpt lat="48.9976" lon="1.11235">
        <ele>116.172813</ele>
        <time>2017-01-29T14:33:05Z</time>
      </trkpt>
      <trkpt lat="48.9975" lon="1.11253">
        <ele>117.292122</ele>
        <time>2017-01-29T14:33:11Z</time>
      </trkpt>
      <trkpt lat="48.99738" lon="1.11275">
        <ele>119.490623</ele>
        <time>2017-01-29T14:33:17Z</time>
      </trkpt>
      <trkpt lat="48.99728" lon="1.11295">
        <ele>120.61438</ele>
        <time>2017-01-29T14:33:22Z</time>
      </trkpt>
      <trkpt lat="48.99718" lon="1.11313">
        <ele>121.285828</ele>
        <time>2017-01-29T14:33:26Z</time>
      </trkpt>
      <trkpt lat="48.99705" lon="1.11328">
        <ele>122.0569</ele>
        <time>2017-01-29T14:33:32Z</time>
      </trkpt>
      <trkpt lat="48.99695" lon="1.11343">
        <ele>123.85202</ele>
        <time>2017-01-29T14:33:37Z</time>
      </trkpt>
      <trkpt lat="48.99683" lon="1.11358">
        <ele>124.118652</ele>
        <time>2017-01-29T14:33:41Z</time>
      </trkpt>
      <trkpt lat="48.9967" lon="1.11373">
        <ele>123.80294</ele>
        <time>2017-01-29T14:34:06Z</time>
      </trkpt>
      <trkpt lat="48.9966" lon="1.11388">
        <ele>124.347435</ele>
        <time>2017-01-29T14:34:11Z</time>
      </trkpt>
      <trkpt lat="48.9965" lon="1.11405">
        <ele>125.761879</ele>
        <time>2017-01-29T14:34:15Z</time>
      </trkpt>
      <trkpt lat="48.99635" lon="1.11428">
        <ele>126.758209</ele>
        <time>2017-01-29T14:34:19Z</time>
      </trkpt>
      <trkpt lat="48.99618" lon="1.11448">
        <ele>126.414841</ele>
        <time>2017-01-29T14:34:24Z</time>
      </trkpt>
      <trkpt lat="48.99608" lon="1.11465">
        <ele>126.549606</ele>
        <time>2017-01-29T14:34:29Z</time>
      </trkpt>
      <trkpt lat="48.99593" lon="1.11485">
        <ele>126.982124</ele>
        <time>2017-01-29T14:34:33Z</time>
      </trkpt>
      <trkpt lat="48.99583" lon="1.115">
        <ele>127</ele>
        <time>2017-01-29T14:34:36Z</time>
      </trkpt>
      <trkpt lat="48.99568" lon="1.11523">
        <ele>127</ele>
        <time>2017-01-29T14:34:41Z</time>
      </trkpt>
      <trkpt lat="48.99555" lon="1.11538">
        <ele>127</ele>
        <time>2017-01-29T14:34:43Z</time>
      </trkpt>
      <trkpt lat="48.99545" lon="1.11553">
        <ele>126.812965</ele>
        <time>2017-01-29T14:34:46Z</time>
      </trkpt>
      <trkpt lat="48.99528" lon="1.11575">
        <ele>126.30584</ele>
        <time>2017-01-29T14:34:52Z</time>
      </trkpt>
      <trkpt lat="48.9951" lon="1.11595">
        <ele>126.014854</ele>
        <time>2017-01-29T14:34:56Z</time>
      </trkpt>
      <trkpt lat="48.995" lon="1.1161">
        <ele>124.210915</ele>
        <time>2017-01-29T14:34:59Z</time>
      </trkpt>
      <trkpt lat="48.9949" lon="1.11628">
        <ele>122.331116</ele>
        <time>2017-01-29T14:35:02Z</time>
      </trkpt>
      <trkpt lat="48.99485" lon="1.1165">
        <ele>122.042053</ele>
        <time>2017-01-29T14:35:05Z</time>
      </trkpt>
      <trkpt lat="48.99478" lon="1.11668">
        <ele>121.704002</ele>
        <time>2017-01-29T14:35:07Z</time>
      </trkpt>
      <trkpt lat="48.99468" lon="1.11688">
        <ele>121.823563</ele>
        <time>2017-01-29T14:35:10Z</time>
      </trkpt>
      <trkpt lat="48.99455" lon="1.11713">
        <ele>119.647156</ele>
        <time>2017-01-29T14:35:15Z</time>
      </trkpt>
      <trkpt lat="48.99433" lon="1.11753">
        <ele>118.178749</ele>
        <time>2017-01-29T14:35:22Z</time>
      </trkpt>
      <trkpt lat="48.99425" lon="1.11775">
        <ele>118.975143</ele>
        <time>2017-01-29T14:35:25Z</time>
      </trkpt>
      <trkpt lat="48.99415" lon="1.11795">
        <ele>118.18615</ele>
        <time>2017-01-29T14:35:28Z</time>
      </trkpt>
      <trkpt lat="48.99403" lon="1.11818">
        <ele>117.298599</ele>
        <time>2017-01-29T14:35:32Z</time>
      </trkpt>
      <trkpt lat="48.9939" lon="1.11843">
        <ele>117.465622</ele>
        <time>2017-01-29T14:35:35Z</time>
      </trkpt>
      <trkpt lat="48.99383" lon="1.1186">
        <ele>117.907616</ele>
        <time>2017-01-29T14:35:39Z</time>
      </trkpt>
      <trkpt lat="48.9937" lon="1.11883">
        <ele>118.07048</ele>
        <time>2017-01-29T14:35:42Z</time>
      </trkpt>
      <trkpt lat="48.9936" lon="1.11903">
        <ele>118.102615</ele>
        <time>2017-01-29T14:35:45Z</time>
      </trkpt>
      <trkpt lat="48.99348" lon="1.11925">
        <ele>117.48243</ele>
        <time>2017-01-29T14:35:49Z</time>
      </trkpt>
      <trkpt lat="48.99335" lon="1.1194">
        <ele>117.723381</ele>
        <time>2017-01-29T14:35:52Z</time>
      </trkpt>
      <trkpt lat="48.99313" lon="1.11968">
        <ele>119.291122</ele>
        <time>2017-01-29T14:35:58Z</time>
      </trkpt>
      <trkpt lat="48.993" lon="1.11985">
        <ele>119.231125</ele>
        <time>2017-01-29T14:36:01Z</time>
      </trkpt>
      <trkpt lat="48.99283" lon="1.12005">
        <ele>119.142471</ele>
        <time>2017-01-29T14:36:06Z</time>
      </trkpt>
      <trkpt lat="48.9927" lon="1.1202">
        <ele>119.640747</ele>
        <time>2017-01-29T14:36:10Z</time>
      </trkpt>
      <trkpt lat="48.99255" lon="1.1204">
        <ele>121.736252</ele>
        <time>2017-01-29T14:36:15Z</time>
      </trkpt>
      <trkpt lat="48.99243" lon="1.12055">
        <ele>121.746948</ele>
        <time>2017-01-29T14:36:18Z</time>
      </trkpt>
      <trkpt lat="48.9923" lon="1.12073">
        <ele>121.476997</ele>
        <time>2017-01-29T14:36:22Z</time>
      </trkpt>
      <trkpt lat="48.99215" lon="1.1209">
        <ele>122.131905</ele>
        <time>2017-01-29T14:36:25Z</time>
      </trkpt>
      <trkpt lat="48.9919" lon="1.1212">
        <ele>123.961533</ele>
        <time>2017-01-29T14:36:33Z</time>
      </trkpt>
      <trkpt lat="48.9917" lon="1.12143">
        <ele>124.32682</ele>
        <time>2017-01-29T14:36:38Z</time>
      </trkpt>
      <trkpt lat="48.99158" lon="1.12155">
        <ele>124.84993</ele>
        <time>2017-01-29T14:36:41Z</time>
      </trkpt>
      <trkpt lat="48.99135" lon="1.12175">
        <ele>125.466675</ele>
        <time>2017-01-29T14:36:46Z</time>
      </trkpt>
      <trkpt lat="48.99115" lon="1.12193">
        <ele>125.512497</ele>
        <time>2017-01-29T14:36:51Z</time>
      </trkpt>
      <trkpt lat="48.99103" lon="1.12205">
        <ele>125.605003</ele>
        <time>2017-01-29T14:36:53Z</time>
      </trkpt>
      <trkpt lat="48.99075" lon="1.12235">
        <ele>125.985001</ele>
        <time>2017-01-29T14:37:01Z</time>
      </trkpt>
      <trkpt lat="48.99058" lon="1.12253">
        <ele>126.320534</ele>
        <time>2017-01-29T14:37:06Z</time>
      </trkpt>
      <trkpt lat="48.99045" lon="1.12268">
        <ele>126.78923</ele>
        <time>2017-01-29T14:37:10Z</time>
      </trkpt>
      <trkpt lat="48.99045" lon="1.12293">
        <ele>126.60643</ele>
        <time>2017-01-29T14:37:15Z</time>
      </trkpt>
      <trkpt lat="48.9905" lon="1.12315">
        <ele>126.105202</ele>
        <time>2017-01-29T14:37:18Z</time>
      </trkpt>
      <trkpt lat="48.9906" lon="1.12333">
        <ele>125.654999</ele>
        <time>2017-01-29T14:37:24Z</time>
      </trkpt>
      <trkpt lat="48.99065" lon="1.12355">
        <ele>125.671249</ele>
        <time>2017-01-29T14:37:29Z</time>
      </trkpt>
      <trkpt lat="48.99073" lon="1.12385">
        <ele>125.743126</ele>
        <time>2017-01-29T14:37:35Z</time>
      </trkpt>
      <trkpt lat="48.99078" lon="1.12408">
        <ele>126.114143</ele>
        <time>2017-01-29T14:37:40Z</time>
      </trkpt>
      <trkpt lat="48.99083" lon="1.12433">
        <ele>126.483017</ele>
        <time>2017-01-29T14:37:45Z</time>
      </trkpt>
      <trkpt lat="48.99075" lon="1.12478">
        <ele>127.883751</ele>
        <time>2017-01-29T14:38:24Z</time>
      </trkpt>
      <trkpt lat="48.99083" lon="1.12498">
        <ele>127.68438</ele>
        <time>2017-01-29T14:38:31Z</time>
      </trkpt>
      <trkpt lat="48.99088" lon="1.12518">
        <ele>127.66375</ele>
        <time>2017-01-29T14:38:35Z</time>
      </trkpt>
      <trkpt lat="48.99095" lon="1.1254">
        <ele>127.390038</ele>
        <time>2017-01-29T14:38:41Z</time>
      </trkpt>
      <trkpt lat="48.991" lon="1.1256">
        <ele>127.308113</ele>
        <time>2017-01-29T14:38:45Z</time>
      </trkpt>
      <trkpt lat="48.99108" lon="1.1258">
        <ele>127.171371</ele>
        <time>2017-01-29T14:38:49Z</time>
      </trkpt>
      <trkpt lat="48.99115" lon="1.126">
        <ele>126.959999</ele>
        <time>2017-01-29T14:38:53Z</time>
      </trkpt>
      <trkpt lat="48.9912" lon="1.12625">
        <ele>126.75</ele>
        <time>2017-01-29T14:38:58Z</time>
      </trkpt>
      <trkpt lat="48.99125" lon="1.12648">
        <ele>126.540001</ele>
        <time>2017-01-29T14:39:02Z</time>
      </trkpt>
      <trkpt lat="48.9913" lon="1.12668">
        <ele>126.470001</ele>
        <time>2017-01-29T14:39:06Z</time>
      </trkpt>
      <trkpt lat="48.99135" lon="1.1269">
        <ele>126.591248</ele>
        <time>2017-01-29T14:39:10Z</time>
      </trkpt>
      <trkpt lat="48.99143" lon="1.12713">
        <ele>126.603127</ele>
        <time>2017-01-29T14:39:13Z</time>
      </trkpt>
      <trkpt lat="48.99145" lon="1.12738">
        <ele>126.870621</ele>
        <time>2017-01-29T14:39:17Z</time>
      </trkpt>
      <trkpt lat="48.99148" lon="1.1276">
        <ele>127.100624</ele>
        <time>2017-01-29T14:39:22Z</time>
      </trkpt>
      <trkpt lat="48.99153" lon="1.1278">
        <ele>127.175621</ele>
        <time>2017-01-29T14:39:26Z</time>
      </trkpt>
      <trkpt lat="48.99158" lon="1.12803">
        <ele>127.296249</ele>
        <time>2017-01-29T14:39:30Z</time>
      </trkpt>
      <trkpt lat="48.99165" lon="1.12828">
        <ele>127.385399</ele>
        <time>2017-01-29T14:39:34Z</time>
      </trkpt>
      <trkpt lat="48.9917" lon="1.1285">
        <ele>127.620956</ele>
        <time>2017-01-29T14:39:38Z</time>
      </trkpt>
      <trkpt lat="48.99175" lon="1.12875">
        <ele>127.909378</ele>
        <time>2017-01-29T14:39:42Z</time>
      </trkpt>
      <trkpt lat="48.99183" lon="1.12893">
        <ele>128.008118</ele>
        <time>2017-01-29T14:39:45Z</time>
      </trkpt>
      <trkpt lat="48.99188" lon="1.12913">
        <ele>128.192505</ele>
        <time>2017-01-29T14:39:47Z</time>
      </trkpt>
      <trkpt lat="48.99193" lon="1.1294">
        <ele>128.438461</ele>
        <time>2017-01-29T14:39:51Z</time>
      </trkpt>
      <trkpt lat="48.99195" lon="1.12965">
        <ele>128.660706</ele>
        <time>2017-01-29T14:39:56Z</time>
      </trkpt>
      <trkpt lat="48.99198" lon="1.12993">
        <ele>128.948364</ele>
        <time>2017-01-29T14:40:00Z</time>
      </trkpt>
      <trkpt lat="48.99205" lon="1.13013">
        <ele>129.015976</ele>
        <time>2017-01-29T14:40:03Z</time>
      </trkpt>
      <trkpt lat="48.9921" lon="1.13033">
        <ele>129.070007</ele>
        <time>2017-01-29T14:40:06Z</time>
      </trkpt>
      <trkpt lat="48.99215" lon="1.13053">
        <ele>129.289993</ele>
        <time>2017-01-29T14:40:08Z</time>
      </trkpt>
      <trkpt lat="48.99223" lon="1.13075">
        <ele>129.759369</ele>
        <time>2017-01-29T14:40:13Z</time>
      </trkpt>
      <trkpt lat="48.99233" lon="1.13113">
        <ele>130.741882</ele>
        <time>2017-01-29T14:40:19Z</time>
      </trkpt>
      <trkpt lat="48.99238" lon="1.13143">
        <ele>131.393127</ele>
        <time>2017-01-29T14:40:25Z</time>
      </trkpt>
      <trkpt lat="48.99243" lon="1.13163">
        <ele>131.897507</ele>
        <time>2017-01-29T14:40:28Z</time>
      </trkpt>
      <trkpt lat="48.9925" lon="1.13185">
        <ele>132.549377</ele>
        <time>2017-01-29T14:40:31Z</time>
      </trkpt>
      <trkpt lat="48.99255" lon="1.1321">
        <ele>133.137497</ele>
        <time>2017-01-29T14:40:36Z</time>
      </trkpt>
      <trkpt lat="48.9926" lon="1.13233">
        <ele>133.678757</ele>
        <time>2017-01-29T14:40:40Z</time>
      </trkpt>
      <trkpt lat="48.99268" lon="1.1326">
        <ele>134.403748</ele>
        <time>2017-01-29T14:40:45Z</time>
      </trkpt>
      <trkpt lat="48.99273" lon="1.1328">
        <ele>134.8022</ele>
        <time>2017-01-29T14:40:48Z</time>
      </trkpt>
      <trkpt lat="48.99275" lon="1.13305">
        <ele>135.064957</ele>
        <time>2017-01-29T14:40:52Z</time>
      </trkpt>
      <trkpt lat="48.99283" lon="1.1333">
        <ele>135.6987</ele>
        <time>2017-01-29T14:40:55Z</time>
      </trkpt>
      <trkpt lat="48.99288" lon="1.1336">
        <ele>136.163681</ele>
        <time>2017-01-29T14:41:00Z</time>
      </trkpt>
      <trkpt lat="48.99295" lon="1.13385">
        <ele>136.657059</ele>
        <time>2017-01-29T14:41:05Z</time>
      </trkpt>
      <trkpt lat="48.993" lon="1.1341">
        <ele>136.910004</ele>
        <time>2017-01-29T14:41:09Z</time>
      </trkpt>
      <trkpt lat="48.99305" lon="1.1343">
        <ele>137.179993</ele>
        <time>2017-01-29T14:41:11Z</time>
      </trkpt>
      <trkpt lat="48.99315" lon="1.13475">
        <ele>137.814514</ele>
        <time>2017-01-29T14:41:18Z</time>
      </trkpt>
      <trkpt lat="48.9932" lon="1.13495">
        <ele>138.013412</ele>
        <time>2017-01-29T14:41:22Z</time>
      </trkpt>
      <trkpt lat="48.99325" lon="1.1352">
        <ele>138.115204</ele>
        <time>2017-01-29T14:41:26Z</time>
      </trkpt>
      <trkpt lat="48.9933" lon="1.13543">
        <ele>138.179993</ele>
        <time>2017-01-29T14:41:29Z</time>
      </trkpt>
      <trkpt lat="48.99335" lon="1.13563">
        <ele>138.399994</ele>
        <time>2017-01-29T14:41:31Z</time>
      </trkpt>
      <trkpt lat="48.99343" lon="1.136">
        <ele>138.720001</ele>
        <time>2017-01-29T14:41:36Z</time>
      </trkpt>
      <trkpt lat="48.9935" lon="1.13635">
        <ele>139.029999</ele>
        <time>2017-01-29T14:41:42Z</time>
      </trkpt>
      <trkpt lat="48.99355" lon="1.13658">
        <ele>139.25</ele>
        <time>2017-01-29T14:41:46Z</time>
      </trkpt>
      <trkpt lat="48.99363" lon="1.13695">
        <ele>139.836243</ele>
        <time>2017-01-29T14:41:52Z</time>
      </trkpt>
      <trkpt lat="48.99368" lon="1.13715">
        <ele>140.350616</ele>
        <time>2017-01-29T14:41:55Z</time>
      </trkpt>
      <trkpt lat="48.99373" lon="1.13735">
        <ele>140.855621</ele>
        <time>2017-01-29T14:41:58Z</time>
      </trkpt>
      <trkpt lat="48.99378" lon="1.13758">
        <ele>141.199997</ele>
        <time>2017-01-29T14:42:02Z</time>
      </trkpt>
      <trkpt lat="48.99383" lon="1.1378">
        <ele>141.410004</ele>
        <time>2017-01-29T14:42:05Z</time>
      </trkpt>
      <trkpt lat="48.99388" lon="1.13803">
        <ele>141.630005</ele>
        <time>2017-01-29T14:42:10Z</time>
      </trkpt>
      <trkpt lat="48.99393" lon="1.1383">
        <ele>141.839996</ele>
        <time>2017-01-29T14:42:13Z</time>
      </trkpt>
      <trkpt lat="48.99398" lon="1.1385">
        <ele>142.024994</ele>
        <time>2017-01-29T14:42:17Z</time>
      </trkpt>
      <trkpt lat="48.99403" lon="1.1387">
        <ele>142.130005</ele>
        <time>2017-01-29T14:42:20Z</time>
      </trkpt>
      <trkpt lat="48.99408" lon="1.13895">
        <ele>142.0728</ele>
        <time>2017-01-29T14:42:24Z</time>
      </trkpt>
      <trkpt lat="48.99413" lon="1.13915">
        <ele>142.007675</ele>
        <time>2017-01-29T14:42:26Z</time>
      </trkpt>
      <trkpt lat="48.9942" lon="1.1395">
        <ele>141.994843</ele>
        <time>2017-01-29T14:42:31Z</time>
      </trkpt>
      <trkpt lat="48.99425" lon="1.1397">
        <ele>142.022125</ele>
        <time>2017-01-29T14:42:35Z</time>
      </trkpt>
      <trkpt lat="48.99433" lon="1.1399">
        <ele>142.069504</ele>
        <time>2017-01-29T14:42:38Z</time>
      </trkpt>
      <trkpt lat="48.99445" lon="1.14038">
        <ele>142.039993</ele>
        <time>2017-01-29T14:42:45Z</time>
      </trkpt>
      <trkpt lat="48.9945" lon="1.14058">
        <ele>142.149994</ele>
        <time>2017-01-29T14:42:48Z</time>
      </trkpt>
      <trkpt lat="48.99458" lon="1.14085">
        <ele>142.290619</ele>
        <time>2017-01-29T14:42:52Z</time>
      </trkpt>
      <trkpt lat="48.99463" lon="1.14108">
        <ele>142.064377</ele>
        <time>2017-01-29T14:42:54Z</time>
      </trkpt>
      <trkpt lat="48.9947" lon="1.14128">
        <ele>141.928741</ele>
        <time>2017-01-29T14:42:58Z</time>
      </trkpt>
      <trkpt lat="48.99478" lon="1.14155">
        <ele>141.702072</ele>
        <time>2017-01-29T14:43:02Z</time>
      </trkpt>
      <trkpt lat="48.9948" lon="1.14178">
        <ele>141.488815</ele>
        <time>2017-01-29T14:43:05Z</time>
      </trkpt>
      <trkpt lat="48.99485" lon="1.14198">
        <ele>141.289749</ele>
        <time>2017-01-29T14:43:07Z</time>
      </trkpt>
      <trkpt lat="48.9949" lon="1.14218">
        <ele>141.029373</ele>
        <time>2017-01-29T14:43:11Z</time>
      </trkpt>
      <trkpt lat="48.99493" lon="1.14243">
        <ele>140.712509</ele>
        <time>2017-01-29T14:43:14Z</time>
      </trkpt>
      <trkpt lat="48.99495" lon="1.14268">
        <ele>140.39563</ele>
        <time>2017-01-29T14:43:17Z</time>
      </trkpt>
      <trkpt lat="48.99503" lon="1.14288">
        <ele>140.264999</ele>
        <time>2017-01-29T14:43:19Z</time>
      </trkpt>
      <trkpt lat="48.9951" lon="1.1431">
        <ele>140.283951</ele>
        <time>2017-01-29T14:43:24Z</time>
      </trkpt>
      <trkpt lat="48.99528" lon="1.14305">
        <ele>140.599533</ele>
        <time>2017-01-29T14:43:29Z</time>
      </trkpt>
      <trkpt lat="48.99545" lon="1.14295">
        <ele>141.085632</ele>
        <time>2017-01-29T14:43:33Z</time>
      </trkpt>
      <trkpt lat="48.99573" lon="1.14283">
        <ele>141.874374</ele>
        <time>2017-01-29T14:43:38Z</time>
      </trkpt>
      <trkpt lat="48.9959" lon="1.14275">
        <ele>142.153748</ele>
        <time>2017-01-29T14:43:42Z</time>
      </trkpt>
      <trkpt lat="48.99608" lon="1.14265">
        <ele>142.293747</ele>
        <time>2017-01-29T14:43:47Z</time>
      </trkpt>
      <trkpt lat="48.99623" lon="1.14258">
        <ele>142.398743</ele>
        <time>2017-01-29T14:43:50Z</time>
      </trkpt>
      <trkpt lat="48.99638" lon="1.1425">
        <ele>142.778748</ele>
        <time>2017-01-29T14:43:53Z</time>
      </trkpt>
      <trkpt lat="48.99658" lon="1.14243">
        <ele>143.331879</ele>
        <time>2017-01-29T14:43:57Z</time>
      </trkpt>
      <trkpt lat="48.99673" lon="1.14233">
        <ele>143.808121</ele>
        <time>2017-01-29T14:44:00Z</time>
      </trkpt>
      <trkpt lat="48.99688" lon="1.14223">
        <ele>144.284378</ele>
        <time>2017-01-29T14:44:03Z</time>
      </trkpt>
      <trkpt lat="48.99713" lon="1.1421">
        <ele>144.95787</ele>
        <time>2017-01-29T14:44:09Z</time>
      </trkpt>
      <trkpt lat="48.99728" lon="1.14205">
        <ele>145.038239</ele>
        <time>2017-01-29T14:44:12Z</time>
      </trkpt>
      <trkpt lat="48.99745" lon="1.14195">
        <ele>145.185303</ele>
        <time>2017-01-29T14:44:15Z</time>
      </trkpt>
      <trkpt lat="48.99758" lon="1.14175">
        <ele>145.541611</ele>
        <time>2017-01-29T14:44:20Z</time>
      </trkpt>
      <trkpt lat="48.9976" lon="1.14153">
        <ele>145.889999</ele>
        <time>2017-01-29T14:44:24Z</time>
      </trkpt>
      <trkpt lat="48.99758" lon="1.1413">
        <ele>145.980499</ele>
        <time>2017-01-29T14:44:28Z</time>
      </trkpt>
      <trkpt lat="48.99755" lon="1.14103">
        <ele>145.971786</ele>
        <time>2017-01-29T14:44:32Z</time>
      </trkpt>
      <trkpt lat="48.99753" lon="1.1408">
        <ele>145.994217</ele>
        <time>2017-01-29T14:44:35Z</time>
      </trkpt>
      <trkpt lat="48.9975" lon="1.14058">
        <ele>146</ele>
        <time>2017-01-29T14:44:39Z</time>
      </trkpt>
      <trkpt lat="48.99748" lon="1.14025">
        <ele>146</ele>
        <time>2017-01-29T14:44:43Z</time>
      </trkpt>
      <trkpt lat="48.99743" lon="1.14005">
        <ele>146.055618</ele>
        <time>2017-01-29T14:44:47Z</time>
      </trkpt>
      <trkpt lat="48.99738" lon="1.13978">
        <ele>146.460007</ele>
        <time>2017-01-29T14:44:50Z</time>
      </trkpt>
      <trkpt lat="48.99733" lon="1.13945">
        <ele>146.9375</ele>
        <time>2017-01-29T14:44:54Z</time>
      </trkpt>
      <trkpt lat="48.9973" lon="1.1392">
        <ele>147</ele>
        <time>2017-01-29T14:44:58Z</time>
      </trkpt>
      <trkpt lat="48.99728" lon="1.13895">
        <ele>147</ele>
        <time>2017-01-29T14:45:01Z</time>
      </trkpt>
      <trkpt lat="48.99723" lon="1.13868">
        <ele>147</ele>
        <time>2017-01-29T14:45:06Z</time>
      </trkpt>
      <trkpt lat="48.99713" lon="1.13813">
        <ele>147</ele>
        <time>2017-01-29T14:45:13Z</time>
      </trkpt>
      <trkpt lat="48.99708" lon="1.13778">
        <ele>146.601257</ele>
        <time>2017-01-29T14:45:19Z</time>
      </trkpt>
      <trkpt lat="48.99703" lon="1.13755">
        <ele>146.27063</ele>
        <time>2017-01-29T14:45:22Z</time>
      </trkpt>
      <trkpt lat="48.99698" lon="1.13725">
        <ele>146</ele>
        <time>2017-01-29T14:45:25Z</time>
      </trkpt>
      <trkpt lat="48.99695" lon="1.13703">
        <ele>146</ele>
        <time>2017-01-29T14:45:29Z</time>
      </trkpt>
      <trkpt lat="48.9969" lon="1.1368">
        <ele>146</ele>
        <time>2017-01-29T14:45:32Z</time>
      </trkpt>
      <trkpt lat="48.99688" lon="1.13655">
        <ele>146</ele>
        <time>2017-01-29T14:45:35Z</time>
      </trkpt>
      <trkpt lat="48.9969" lon="1.13633">
        <ele>146</ele>
        <time>2017-01-29T14:45:39Z</time>
      </trkpt>
      <trkpt lat="48.99708" lon="1.13625">
        <ele>146</ele>
        <time>2017-01-29T14:45:42Z</time>
      </trkpt>
      <trkpt lat="48.99728" lon="1.13615">
        <ele>145.580002</ele>
        <time>2017-01-29T14:45:46Z</time>
      </trkpt>
      <trkpt lat="48.99758" lon="1.136">
        <ele>145</ele>
        <time>2017-01-29T14:45:53Z</time>
      </trkpt>
      <trkpt lat="48.99773" lon="1.13595">
        <ele>144.979034</ele>
        <time>2017-01-29T14:45:56Z</time>
      </trkpt>
      <trkpt lat="48.99793" lon="1.13588">
        <ele>144.867111</ele>
        <time>2017-01-29T14:46:00Z</time>
      </trkpt>
      <trkpt lat="48.99805" lon="1.13578">
        <ele>144.596786</ele>
        <time>2017-01-29T14:46:03Z</time>
      </trkpt>
      <trkpt lat="48.99813" lon="1.1356">
        <ele>144.305435</ele>
        <time>2017-01-29T14:46:05Z</time>
      </trkpt>
      <trkpt lat="48.99813" lon="1.13533">
        <ele>144.033508</ele>
        <time>2017-01-29T14:46:10Z</time>
      </trkpt>
      <trkpt lat="48.9981" lon="1.13508">
        <ele>144</ele>
        <time>2017-01-29T14:46:15Z</time>
      </trkpt>
      <trkpt lat="48.99808" lon="1.13485">
        <ele>144</ele>
        <time>2017-01-29T14:46:18Z</time>
      </trkpt>
      <trkpt lat="48.99805" lon="1.1346">
        <ele>144</ele>
        <time>2017-01-29T14:46:21Z</time>
      </trkpt>
      <trkpt lat="48.99803" lon="1.13438">
        <ele>144</ele>
        <time>2017-01-29T14:46:24Z</time>
      </trkpt>
      <trkpt lat="48.99798" lon="1.13415">
        <ele>144</ele>
        <time>2017-01-29T14:46:28Z</time>
      </trkpt>
      <trkpt lat="48.99793" lon="1.13388">
        <ele>144.080002</ele>
        <time>2017-01-29T14:46:31Z</time>
      </trkpt>
      <trkpt lat="48.9979" lon="1.13365">
        <ele>144.130005</ele>
        <time>2017-01-29T14:46:33Z</time>
      </trkpt>
      <trkpt lat="48.99783" lon="1.13333">
        <ele>144.289993</ele>
        <time>2017-01-29T14:46:38Z</time>
      </trkpt>
      <trkpt lat="48.9978" lon="1.13308">
        <ele>144.253082</ele>
        <time>2017-01-29T14:46:41Z</time>
      </trkpt>
      <trkpt lat="48.99778" lon="1.13283">
        <ele>144.147232</ele>
        <time>2017-01-29T14:46:45Z</time>
      </trkpt>
      <trkpt lat="48.99773" lon="1.1326">
        <ele>144.022888</ele>
        <time>2017-01-29T14:46:48Z</time>
      </trkpt>
      <trkpt lat="48.9977" lon="1.13233">
        <ele>143.837341</ele>
        <time>2017-01-29T14:46:52Z</time>
      </trkpt>
      <trkpt lat="48.99765" lon="1.1321">
        <ele>143.762375</ele>
        <time>2017-01-29T14:46:54Z</time>
      </trkpt>
      <trkpt lat="48.9976" lon="1.1318">
        <ele>143.661667</ele>
        <time>2017-01-29T14:46:59Z</time>
      </trkpt>
      <trkpt lat="48.99755" lon="1.13138">
        <ele>143.211777</ele>
        <time>2017-01-29T14:47:04Z</time>
      </trkpt>
      <trkpt lat="48.99748" lon="1.13088">
        <ele>143.007675</ele>
        <time>2017-01-29T14:47:09Z</time>
      </trkpt>
      <trkpt lat="48.99735" lon="1.13015">
        <ele>143</ele>
        <time>2017-01-29T14:47:17Z</time>
      </trkpt>
      <trkpt lat="48.9973" lon="1.12983">
        <ele>142.98024</ele>
        <time>2017-01-29T14:47:22Z</time>
      </trkpt>
      <trkpt lat="48.99728" lon="1.12953">
        <ele>142.731033</ele>
        <time>2017-01-29T14:47:26Z</time>
      </trkpt>
      <trkpt lat="48.99723" lon="1.12928">
        <ele>142.609695</ele>
        <time>2017-01-29T14:47:29Z</time>
      </trkpt>
      <trkpt lat="48.99718" lon="1.12895">
        <ele>142.119308</ele>
        <time>2017-01-29T14:47:33Z</time>
      </trkpt>
      <trkpt lat="48.99715" lon="1.12873">
        <ele>141.595718</ele>
        <time>2017-01-29T14:47:35Z</time>
      </trkpt>
      <trkpt lat="48.99715" lon="1.12833">
        <ele>140.766876</ele>
        <time>2017-01-29T14:47:40Z</time>
      </trkpt>
      <trkpt lat="48.99718" lon="1.1281">
        <ele>140.438126</ele>
        <time>2017-01-29T14:47:42Z</time>
      </trkpt>
      <trkpt lat="48.99723" lon="1.12788">
        <ele>140.110626</ele>
        <time>2017-01-29T14:47:46Z</time>
      </trkpt>
      <trkpt lat="48.99725" lon="1.12763">
        <ele>139.490005</ele>
        <time>2017-01-29T14:47:50Z</time>
      </trkpt>
      <trkpt lat="48.9972" lon="1.12743">
        <ele>138.901245</ele>
        <time>2017-01-29T14:47:54Z</time>
      </trkpt>
      <trkpt lat="48.99718" lon="1.1272">
        <ele>138.240005</ele>
        <time>2017-01-29T14:47:58Z</time>
      </trkpt>
      <trkpt lat="48.99715" lon="1.12698">
        <ele>137.580002</ele>
        <time>2017-01-29T14:48:02Z</time>
      </trkpt>
      <trkpt lat="48.99713" lon="1.12675">
        <ele>136.918747</ele>
        <time>2017-01-29T14:48:05Z</time>
      </trkpt>
      <trkpt lat="48.9971" lon="1.1265">
        <ele>136.184998</ele>
        <time>2017-01-29T14:48:10Z</time>
      </trkpt>
      <trkpt lat="48.99705" lon="1.12625">
        <ele>135.685135</ele>
        <time>2017-01-29T14:48:13Z</time>
      </trkpt>
      <trkpt lat="48.997" lon="1.12583">
        <ele>135.064651</ele>
        <time>2017-01-29T14:48:19Z</time>
      </trkpt>
      <trkpt lat="48.99695" lon="1.12553">
        <ele>134.342102</ele>
        <time>2017-01-29T14:48:23Z</time>
      </trkpt>
      <trkpt lat="48.9971" lon="1.1256">
        <ele>134.340744</ele>
        <time>2017-01-29T14:48:31Z</time>
      </trkpt>
      <trkpt lat="48.99723" lon="1.1257">
        <ele>134.346786</ele>
        <time>2017-01-29T14:48:36Z</time>
      </trkpt>
      <trkpt lat="48.99735" lon="1.1258">
        <ele>134.318771</ele>
        <time>2017-01-29T14:48:40Z</time>
      </trkpt>
      <trkpt lat="48.99753" lon="1.12593">
        <ele>134.321243</ele>
        <time>2017-01-29T14:48:44Z</time>
      </trkpt>
      <trkpt lat="48.99768" lon="1.12608">
        <ele>134.440002</ele>
        <time>2017-01-29T14:48:48Z</time>
      </trkpt>
      <trkpt lat="48.9978" lon="1.12618">
        <ele>134.466248</ele>
        <time>2017-01-29T14:48:51Z</time>
      </trkpt>
      <trkpt lat="48.99795" lon="1.12628">
        <ele>134.440002</ele>
        <time>2017-01-29T14:48:55Z</time>
      </trkpt>
      <trkpt lat="48.9981" lon="1.12638">
        <ele>134.412506</ele>
        <time>2017-01-29T14:48:59Z</time>
      </trkpt>
      <trkpt lat="48.99823" lon="1.12648">
        <ele>134.505005</ele>
        <time>2017-01-29T14:49:02Z</time>
      </trkpt>
      <trkpt lat="48.99838" lon="1.12665">
        <ele>134.983749</ele>
        <time>2017-01-29T14:49:05Z</time>
      </trkpt>
      <trkpt lat="48.9985" lon="1.1268">
        <ele>135.380005</ele>
        <time>2017-01-29T14:49:10Z</time>
      </trkpt>
      <trkpt lat="48.99863" lon="1.12693">
        <ele>135.667496</ele>
        <time>2017-01-29T14:49:14Z</time>
      </trkpt>
      <trkpt lat="48.99878" lon="1.1271">
        <ele>136.092499</ele>
        <time>2017-01-29T14:49:18Z</time>
      </trkpt>
      <trkpt lat="48.9989" lon="1.1273">
        <ele>136.416245</ele>
        <time>2017-01-29T14:49:22Z</time>
      </trkpt>
      <trkpt lat="48.99898" lon="1.12708">
        <ele>135.586243</ele>
        <time>2017-01-29T14:49:29Z</time>
      </trkpt>
      <trkpt lat="48.99893" lon="1.12683">
        <ele>134.588745</ele>
        <time>2017-01-29T14:49:33Z</time>
      </trkpt>
      <trkpt lat="48.99888" lon="1.12645">
        <ele>133.041885</ele>
        <time>2017-01-29T14:49:38Z</time>
      </trkpt>
      <trkpt lat="48.99885" lon="1.12623">
        <ele>132.100006</ele>
        <time>2017-01-29T14:49:41Z</time>
      </trkpt>
      <trkpt lat="48.9988" lon="1.126">
        <ele>131.211258</ele>
        <time>2017-01-29T14:49:44Z</time>
      </trkpt>
      <trkpt lat="48.99878" lon="1.12573">
        <ele>130.056793</ele>
        <time>2017-01-29T14:49:47Z</time>
      </trkpt>
      <trkpt lat="48.99873" lon="1.12545">
        <ele>129.442505</ele>
        <time>2017-01-29T14:49:50Z</time>
      </trkpt>
      <trkpt lat="48.9987" lon="1.1252">
        <ele>128.808746</ele>
        <time>2017-01-29T14:49:53Z</time>
      </trkpt>
      <trkpt lat="48.99865" lon="1.12495">
        <ele>128.373459</ele>
        <time>2017-01-29T14:49:57Z</time>
      </trkpt>
      <trkpt lat="48.9986" lon="1.12473">
        <ele>128.124374</ele>
        <time>2017-01-29T14:50:00Z</time>
      </trkpt>
      <trkpt lat="48.99858" lon="1.1245">
        <ele>127.731377</ele>
        <time>2017-01-29T14:50:03Z</time>
      </trkpt>
      <trkpt lat="48.99863" lon="1.12428">
        <ele>127.191872</ele>
        <time>2017-01-29T14:50:06Z</time>
      </trkpt>
      <trkpt lat="48.99873" lon="1.12413">
        <ele>126.750626</ele>
        <time>2017-01-29T14:50:10Z</time>
      </trkpt>
      <trkpt lat="48.9988" lon="1.12395">
        <ele>126.289925</ele>
        <time>2017-01-29T14:50:13Z</time>
      </trkpt>
      <trkpt lat="48.99888" lon="1.12375">
        <ele>125.833885</ele>
        <time>2017-01-29T14:50:16Z</time>
      </trkpt>
      <trkpt lat="48.99898" lon="1.12358">
        <ele>125.44593</ele>
        <time>2017-01-29T14:50:20Z</time>
      </trkpt>
      <trkpt lat="48.99913" lon="1.1235">
        <ele>125.134644</ele>
        <time>2017-01-29T14:50:23Z</time>
      </trkpt>
      <trkpt lat="48.99928" lon="1.1234">
        <ele>125</ele>
        <time>2017-01-29T14:50:25Z</time>
      </trkpt>
      <trkpt lat="48.99938" lon="1.12325">
        <ele>125</ele>
        <time>2017-01-29T14:50:29Z</time>
      </trkpt>
      <trkpt lat="48.99953" lon="1.12313">
        <ele>125</ele>
        <time>2017-01-29T14:50:33Z</time>
      </trkpt>
      <trkpt lat="48.9997" lon="1.12308">
        <ele>124.798355</ele>
        <time>2017-01-29T14:50:35Z</time>
      </trkpt>
      <trkpt lat="48.99985" lon="1.12303">
        <ele>124.153946</ele>
        <time>2017-01-29T14:50:39Z</time>
      </trkpt>
      <trkpt lat="49.00003" lon="1.123">
        <ele>123.386887</ele>
        <time>2017-01-29T14:50:42Z</time>
      </trkpt>
      <trkpt lat="49.00015" lon="1.12265">
        <ele>122.75</ele>
        <time>2017-01-29T14:50:48Z</time>
      </trkpt>
      <trkpt lat="49.0003" lon="1.12265">
        <ele>122.089996</ele>
        <time>2017-01-29T14:50:51Z</time>
      </trkpt>
      <trkpt lat="49.00048" lon="1.12258">
        <ele>121.300003</ele>
        <time>2017-01-29T14:50:54Z</time>
      </trkpt>
      <trkpt lat="49.00055" lon="1.12238">
        <ele>120.82</ele>
        <time>2017-01-29T14:50:57Z</time>
      </trkpt>
      <trkpt lat="49.00063" lon="1.12218">
        <ele>119.216377</ele>
        <time>2017-01-29T14:51:00Z</time>
      </trkpt>
      <trkpt lat="49.00073" lon="1.12195">
        <ele>117.148804</ele>
        <time>2017-01-29T14:51:05Z</time>
      </trkpt>
      <trkpt lat="49.00078" lon="1.1217">
        <ele>116.241653</ele>
        <time>2017-01-29T14:51:07Z</time>
      </trkpt>
      <trkpt lat="49.0008" lon="1.12148">
        <ele>115.446869</ele>
        <time>2017-01-29T14:51:11Z</time>
      </trkpt>
      <trkpt lat="49.00085" lon="1.12118">
        <ele>113.51564</ele>
        <time>2017-01-29T14:51:14Z</time>
      </trkpt>
      <trkpt lat="49.0009" lon="1.12095">
        <ele>112.076691</ele>
        <time>2017-01-29T14:51:19Z</time>
      </trkpt>
      <trkpt lat="49.00098" lon="1.12068">
        <ele>109.749016</ele>
        <time>2017-01-29T14:51:24Z</time>
      </trkpt>
      <trkpt lat="49.001" lon="1.12045">
        <ele>107.993576</ele>
        <time>2017-01-29T14:51:29Z</time>
      </trkpt>
      <trkpt lat="49.00108" lon="1.12025">
        <ele>105.649139</ele>
        <time>2017-01-29T14:51:33Z</time>
      </trkpt>
      <trkpt lat="49.00133" lon="1.12025">
        <ele>101.748871</ele>
        <time>2017-01-29T14:52:23Z</time>
      </trkpt>
      <trkpt lat="49.00145" lon="1.12035">
        <ele>100.469254</ele>
        <time>2017-01-29T14:52:27Z</time>
      </trkpt>
      <trkpt lat="49.00165" lon="1.12048">
        <ele>99.316452</ele>
        <time>2017-01-29T14:52:31Z</time>
      </trkpt>
      <trkpt lat="49.00188" lon="1.1206">
        <ele>97.604309</ele>
        <time>2017-01-29T14:52:37Z</time>
      </trkpt>
      <trkpt lat="49.002" lon="1.1205">
        <ele>97.033554</ele>
        <time>2017-01-29T14:52:41Z</time>
      </trkpt>
      <trkpt lat="49.00208" lon="1.12033">
        <ele>96.404854</ele>
        <time>2017-01-29T14:52:45Z</time>
      </trkpt>
      <trkpt lat="49.0022" lon="1.11998">
        <ele>96.305466</ele>
        <time>2017-01-29T14:52:51Z</time>
      </trkpt>
      <trkpt lat="49.0023" lon="1.11978">
        <ele>95.725624</ele>
        <time>2017-01-29T14:52:53Z</time>
      </trkpt>
      <trkpt lat="49.00238" lon="1.1195">
        <ele>95.848122</ele>
        <time>2017-01-29T14:52:57Z</time>
      </trkpt>
      <trkpt lat="49.00248" lon="1.11925">
        <ele>96.005394</ele>
        <time>2017-01-29T14:52:59Z</time>
      </trkpt>
      <trkpt lat="49.00263" lon="1.11885">
        <ele>94.75708</ele>
        <time>2017-01-29T14:53:04Z</time>
      </trkpt>
      <trkpt lat="49.00275" lon="1.11875">
        <ele>93.060623</ele>
        <time>2017-01-29T14:53:07Z</time>
      </trkpt>
      <trkpt lat="49.00275" lon="1.11898">
        <ele>93.584061</ele>
        <time>2017-01-29T14:53:33Z</time>
      </trkpt>
      <trkpt lat="49.00268" lon="1.1192">
        <ele>94.735191</ele>
        <time>2017-01-29T14:53:38Z</time>
      </trkpt>
      <trkpt lat="49.00255" lon="1.1195">
        <ele>95.516296</ele>
        <time>2017-01-29T14:53:45Z</time>
      </trkpt>
      <trkpt lat="49.00248" lon="1.1197">
        <ele>95.900032</ele>
        <time>2017-01-29T14:53:49Z</time>
      </trkpt>
      <trkpt lat="49.0024" lon="1.11995">
        <ele>95.77578</ele>
        <time>2017-01-29T14:53:54Z</time>
      </trkpt>
      <trkpt lat="49.0023" lon="1.1202">
        <ele>95.162109</ele>
        <time>2017-01-29T14:53:59Z</time>
      </trkpt>
      <trkpt lat="49.00223" lon="1.12043">
        <ele>96.089012</ele>
        <time>2017-01-29T14:54:02Z</time>
      </trkpt>
      <trkpt lat="49.00213" lon="1.1207">
        <ele>97.079941</ele>
        <time>2017-01-29T14:54:07Z</time>
      </trkpt>
      <trkpt lat="49.00205" lon="1.12093">
        <ele>98.232002</ele>
        <time>2017-01-29T14:54:12Z</time>
      </trkpt>
      <trkpt lat="49.002" lon="1.1212">
        <ele>100.954033</ele>
        <time>2017-01-29T14:54:17Z</time>
      </trkpt>
      <trkpt lat="49.00193" lon="1.12138">
        <ele>103.029747</ele>
        <time>2017-01-29T14:54:21Z</time>
      </trkpt>
      <trkpt lat="49.0021" lon="1.12143">
        <ele>102.529175</ele>
        <time>2017-01-29T14:54:27Z</time>
      </trkpt>
      <trkpt lat="49.00228" lon="1.12145">
        <ele>101.711548</ele>
        <time>2017-01-29T14:54:31Z</time>
      </trkpt>
      <trkpt lat="49.0024" lon="1.12155">
        <ele>102.365829</ele>
        <time>2017-01-29T14:54:38Z</time>
      </trkpt>
      <trkpt lat="49.00255" lon="1.12163">
        <ele>103.551193</ele>
        <time>2017-01-29T14:54:48Z</time>
      </trkpt>
      <trkpt lat="49.00268" lon="1.12173">
        <ele>104.881241</ele>
        <time>2017-01-29T14:54:53Z</time>
      </trkpt>
      <trkpt lat="49.0028" lon="1.12185">
        <ele>106.6464</ele>
        <time>2017-01-29T14:54:59Z</time>
      </trkpt>
      <trkpt lat="49.00295" lon="1.12195">
        <ele>109.622772</ele>
        <time>2017-01-29T14:55:08Z</time>
      </trkpt>
      <trkpt lat="49.0031" lon="1.12205">
        <ele>111.796371</ele>
        <time>2017-01-29T14:55:15Z</time>
      </trkpt>
      <trkpt lat="49.00323" lon="1.12215">
        <ele>112.995651</ele>
        <time>2017-01-29T14:55:22Z</time>
      </trkpt>
      <trkpt lat="49.00335" lon="1.12225">
        <ele>114.524559</ele>
        <time>2017-01-29T14:55:28Z</time>
      </trkpt>
      <trkpt lat="49.0035" lon="1.12233">
        <ele>116.269089</ele>
        <time>2017-01-29T14:55:35Z</time>
      </trkpt>
      <trkpt lat="49.00363" lon="1.12243">
        <ele>117.685997</ele>
        <time>2017-01-29T14:55:41Z</time>
      </trkpt>
      <trkpt lat="49.0038" lon="1.12255">
        <ele>119.463593</ele>
        <time>2017-01-29T14:55:51Z</time>
      </trkpt>
      <trkpt lat="49.00395" lon="1.12265">
        <ele>120.770187</ele>
        <time>2017-01-29T14:55:59Z</time>
      </trkpt>
      <trkpt lat="49.0041" lon="1.1227">
        <ele>121.757729</ele>
        <time>2017-01-29T14:56:05Z</time>
      </trkpt>
      <trkpt lat="49.00425" lon="1.12273">
        <ele>122.536247</ele>
        <time>2017-01-29T14:56:12Z</time>
      </trkpt>
      <trkpt lat="49.0044" lon="1.12278">
        <ele>123.224159</ele>
        <time>2017-01-29T14:56:19Z</time>
      </trkpt>
      <trkpt lat="49.00448" lon="1.12295">
        <ele>123.853271</ele>
        <time>2017-01-29T14:56:25Z</time>
      </trkpt>
      <trkpt lat="49.00445" lon="1.12318">
        <ele>124.61895</ele>
        <time>2017-01-29T14:56:34Z</time>
      </trkpt>
      <trkpt lat="49.00443" lon="1.12343">
        <ele>125.563576</ele>
        <time>2017-01-29T14:56:43Z</time>
      </trkpt>
      <trkpt lat="49.0044" lon="1.1237">
        <ele>126.243752</ele>
        <time>2017-01-29T14:56:50Z</time>
      </trkpt>
      <trkpt lat="49.00438" lon="1.12398">
        <ele>126.645622</ele>
        <time>2017-01-29T14:56:57Z</time>
      </trkpt>
      <trkpt lat="49.0043" lon="1.12428">
        <ele>127.055679</ele>
        <time>2017-01-29T14:57:30Z</time>
      </trkpt>
      <trkpt lat="49.0043" lon="1.12453">
        <ele>127.306969</ele>
        <time>2017-01-29T14:57:36Z</time>
      </trkpt>
      <trkpt lat="49.0043" lon="1.12475">
        <ele>127.536476</ele>
        <time>2017-01-29T14:57:42Z</time>
      </trkpt>
      <trkpt lat="49.00428" lon="1.12498">
        <ele>127.75</ele>
        <time>2017-01-29T14:57:48Z</time>
      </trkpt>
      <trkpt lat="49.00423" lon="1.12523">
        <ele>127.864998</ele>
        <time>2017-01-29T14:57:53Z</time>
      </trkpt>
      <trkpt lat="49.00423" lon="1.12548">
        <ele>127.870003</ele>
        <time>2017-01-29T14:57:59Z</time>
      </trkpt>
      <trkpt lat="49.00418" lon="1.1257">
        <ele>127.989998</ele>
        <time>2017-01-29T14:58:03Z</time>
      </trkpt>
      <trkpt lat="49.00415" lon="1.12593">
        <ele>128</ele>
        <time>2017-01-29T14:58:06Z</time>
      </trkpt>
      <trkpt lat="49.00413" lon="1.12615">
        <ele>128</ele>
        <time>2017-01-29T14:58:11Z</time>
      </trkpt>
      <trkpt lat="49.00403" lon="1.12698">
        <ele>127</ele>
        <time>2017-01-29T14:58:23Z</time>
      </trkpt>
      <trkpt lat="49.00403" lon="1.1272">
        <ele>127</ele>
        <time>2017-01-29T14:58:25Z</time>
      </trkpt>
      <trkpt lat="49.00398" lon="1.12743">
        <ele>127</ele>
        <time>2017-01-29T14:58:29Z</time>
      </trkpt>
      <trkpt lat="49.00395" lon="1.12765">
        <ele>127</ele>
        <time>2017-01-29T14:58:32Z</time>
      </trkpt>
      <trkpt lat="49.00393" lon="1.1279">
        <ele>127</ele>
        <time>2017-01-29T14:58:36Z</time>
      </trkpt>
      <trkpt lat="49.00388" lon="1.1283">
        <ele>127</ele>
        <time>2017-01-29T14:58:41Z</time>
      </trkpt>
      <trkpt lat="49.0038" lon="1.1285">
        <ele>127.221802</ele>
        <time>2017-01-29T14:58:46Z</time>
      </trkpt>
      <trkpt lat="49.00365" lon="1.12853">
        <ele>127.501877</ele>
        <time>2017-01-29T14:58:50Z</time>
      </trkpt>
      <trkpt lat="49.0035" lon="1.12855">
        <ele>127.868752</ele>
        <time>2017-01-29T14:58:54Z</time>
      </trkpt>
      <trkpt lat="49.00328" lon="1.12853">
        <ele>128.324371</ele>
        <time>2017-01-29T14:58:59Z</time>
      </trkpt>
      <trkpt lat="49.0031" lon="1.1285">
        <ele>128.671875</ele>
        <time>2017-01-29T14:59:03Z</time>
      </trkpt>
      <trkpt lat="49.00295" lon="1.1285">
        <ele>129.001251</ele>
        <time>2017-01-29T14:59:06Z</time>
      </trkpt>
      <trkpt lat="49.0028" lon="1.12848">
        <ele>129.399994</ele>
        <time>2017-01-29T14:59:11Z</time>
      </trkpt>
      <trkpt lat="49.00263" lon="1.12848">
        <ele>130.173752</ele>
        <time>2017-01-29T14:59:15Z</time>
      </trkpt>
      <trkpt lat="49.00258" lon="1.12825">
        <ele>129.957214</ele>
        <time>2017-01-29T14:59:22Z</time>
      </trkpt>
      <trkpt lat="49.00255" lon="1.12803">
        <ele>129.503189</ele>
        <time>2017-01-29T14:59:26Z</time>
      </trkpt>
      <trkpt lat="49.00258" lon="1.1278">
        <ele>128.888077</ele>
        <time>2017-01-29T14:59:28Z</time>
      </trkpt>
      <trkpt lat="49.0026" lon="1.12755">
        <ele>128.256775</ele>
        <time>2017-01-29T14:59:33Z</time>
      </trkpt>
      <trkpt lat="49.00265" lon="1.12728">
        <ele>127.59285</ele>
        <time>2017-01-29T14:59:37Z</time>
      </trkpt>
      <trkpt lat="49.00263" lon="1.12703">
        <ele>127.074417</ele>
        <time>2017-01-29T14:59:41Z</time>
      </trkpt>
      <trkpt lat="49.00263" lon="1.12678">
        <ele>127.170097</ele>
        <time>2017-01-29T14:59:44Z</time>
      </trkpt>
      <trkpt lat="49.00258" lon="1.12653">
        <ele>127.293747</ele>
        <time>2017-01-29T14:59:48Z</time>
      </trkpt>
      <trkpt lat="49.00253" lon="1.1263">
        <ele>127.324997</ele>
        <time>2017-01-29T14:59:52Z</time>
      </trkpt>
      <trkpt lat="49.00238" lon="1.12613">
        <ele>126.993622</ele>
        <time>2017-01-29T14:59:56Z</time>
      </trkpt>
      <trkpt lat="49.00225" lon="1.126">
        <ele>126.5905</ele>
        <time>2017-01-29T15:00:00Z</time>
      </trkpt>
      <trkpt lat="49.00213" lon="1.12583">
        <ele>126.043663</ele>
        <time>2017-01-29T15:00:03Z</time>
      </trkpt>
      <trkpt lat="49.00203" lon="1.12568">
        <ele>125.491653</ele>
        <time>2017-01-29T15:00:06Z</time>
      </trkpt>
      <trkpt lat="49.00193" lon="1.1255">
        <ele>125.019997</ele>
        <time>2017-01-29T15:00:09Z</time>
      </trkpt>
      <trkpt lat="49.00183" lon="1.1253">
        <ele>124.684471</ele>
        <time>2017-01-29T15:00:12Z</time>
      </trkpt>
      <trkpt lat="49.00175" lon="1.12505">
        <ele>124.307869</ele>
        <time>2017-01-29T15:00:15Z</time>
      </trkpt>
      <trkpt lat="49.00173" lon="1.12483">
        <ele>124.075478</ele>
        <time>2017-01-29T15:00:17Z</time>
      </trkpt>
      <trkpt lat="49.0017" lon="1.12458">
        <ele>123.792984</ele>
        <time>2017-01-29T15:00:21Z</time>
      </trkpt>
      <trkpt lat="49.0017" lon="1.12435">
        <ele>123.652664</ele>
        <time>2017-01-29T15:00:23Z</time>
      </trkpt>
      <trkpt lat="49.00168" lon="1.12395">
        <ele>122.502502</ele>
        <time>2017-01-29T15:00:29Z</time>
      </trkpt>
      <trkpt lat="49.00165" lon="1.1237">
        <ele>121.618752</ele>
        <time>2017-01-29T15:00:31Z</time>
      </trkpt>
      <trkpt lat="49.00163" lon="1.12343">
        <ele>119.99733</ele>
        <time>2017-01-29T15:00:35Z</time>
      </trkpt>
      <trkpt lat="49.0017" lon="1.12325">
        <ele>119.423927</ele>
        <time>2017-01-29T15:00:40Z</time>
      </trkpt>
      <trkpt lat="49.00175" lon="1.12298">
        <ele>118.094658</ele>
        <time>2017-01-29T15:00:43Z</time>
      </trkpt>
      <trkpt lat="49.0019" lon="1.12278">
        <ele>117.60392</ele>
        <time>2017-01-29T15:00:46Z</time>
      </trkpt>
      <trkpt lat="49.002" lon="1.12258">
        <ele>115.239548</ele>
        <time>2017-01-29T15:00:49Z</time>
      </trkpt>
      <trkpt lat="49.00208" lon="1.1224">
        <ele>113.102531</ele>
        <time>2017-01-29T15:00:53Z</time>
      </trkpt>
      <trkpt lat="49.00218" lon="1.12225">
        <ele>111.059021</ele>
        <time>2017-01-29T15:00:57Z</time>
      </trkpt>
      <trkpt lat="49.00243" lon="1.12225">
        <ele>110.430237</ele>
        <time>2017-01-29T15:01:55Z</time>
      </trkpt>
      <trkpt lat="49.00218" lon="1.12228">
        <ele>111.335976</ele>
        <time>2017-01-29T15:02:58Z</time>
      </trkpt>
      <trkpt lat="49.00233" lon="1.1223">
        <ele>111.036324</ele>
        <time>2017-01-29T15:06:05Z</time>
      </trkpt>
      <trkpt lat="49.00245" lon="1.12243">
        <ele>112.555954</ele>
        <time>2017-01-29T15:06:13Z</time>
      </trkpt>
      <trkpt lat="49.00258" lon="1.12253">
        <ele>113.926826</ele>
        <time>2017-01-29T15:06:18Z</time>
      </trkpt>
      <trkpt lat="49.00273" lon="1.12258">
        <ele>114.77063</ele>
        <time>2017-01-29T15:06:22Z</time>
      </trkpt>
      <trkpt lat="49.00288" lon="1.12258">
        <ele>115.262512</ele>
        <time>2017-01-29T15:06:27Z</time>
      </trkpt>
      <trkpt lat="49.00303" lon="1.1226">
        <ele>116.221573</ele>
        <time>2017-01-29T15:06:31Z</time>
      </trkpt>
      <trkpt lat="49.00318" lon="1.1225">
        <ele>115.815048</ele>
        <time>2017-01-29T15:06:36Z</time>
      </trkpt>
      <trkpt lat="49.0033" lon="1.12238">
        <ele>115.270622</ele>
        <time>2017-01-29T15:06:39Z</time>
      </trkpt>
      <trkpt lat="49.00343" lon="1.12218">
        <ele>114.721397</ele>
        <time>2017-01-29T15:06:42Z</time>
      </trkpt>
      <trkpt lat="49.00343" lon="1.12193">
        <ele>115.443077</ele>
        <time>2017-01-29T15:06:47Z</time>
      </trkpt>
      <trkpt lat="49.00338" lon="1.12165">
        <ele>115.608658</ele>
        <time>2017-01-29T15:06:51Z</time>
      </trkpt>
      <trkpt lat="49.00335" lon="1.1214">
        <ele>115.533997</ele>
        <time>2017-01-29T15:06:55Z</time>
      </trkpt>
      <trkpt lat="49.00335" lon="1.12115">
        <ele>115.301552</ele>
        <time>2017-01-29T15:06:59Z</time>
      </trkpt>
      <trkpt lat="49.00333" lon="1.12093">
        <ele>114.720688</ele>
        <time>2017-01-29T15:07:05Z</time>
      </trkpt>
      <trkpt lat="49.00318" lon="1.12085">
        <ele>111.873749</ele>
        <time>2017-01-29T15:07:16Z</time>
      </trkpt>
      <trkpt lat="49.00298" lon="1.12095">
        <ele>107.118126</ele>
        <time>2017-01-29T15:08:41Z</time>
      </trkpt>
      <trkpt lat="49.00293" lon="1.12118">
        <ele>106.126251</ele>
        <time>2017-01-29T15:08:48Z</time>
      </trkpt>
      <trkpt lat="49.00285" lon="1.12138">
        <ele>104.546249</ele>
        <time>2017-01-29T15:08:56Z</time>
      </trkpt>
      <trkpt lat="49.0027" lon="1.1214">
        <ele>102.514748</ele>
        <time>2017-01-29T15:09:02Z</time>
      </trkpt>
      <trkpt lat="49.00255" lon="1.1213">
        <ele>101.487076</ele>
        <time>2017-01-29T15:09:09Z</time>
      </trkpt>
      <trkpt lat="49.00245" lon="1.12115">
        <ele>100.103188</ele>
        <time>2017-01-29T15:09:14Z</time>
      </trkpt>
      <trkpt lat="49.0025" lon="1.1209">
        <ele>99.220901</ele>
        <time>2017-01-29T15:09:19Z</time>
      </trkpt>
      <trkpt lat="49.0026" lon="1.12075">
        <ele>99.739746</ele>
        <time>2017-01-29T15:09:24Z</time>
      </trkpt>
      <trkpt lat="49.00273" lon="1.1206">
        <ele>100.477753</ele>
        <time>2017-01-29T15:09:32Z</time>
      </trkpt>
      <trkpt lat="49.0029" lon="1.12038">
        <ele>103.016754</ele>
        <time>2017-01-29T15:09:59Z</time>
      </trkpt>
      <trkpt lat="49.00305" lon="1.12028">
        <ele>105.962479</ele>
        <time>2017-01-29T15:10:06Z</time>
      </trkpt>
      <trkpt lat="49.0032" lon="1.12025">
        <ele>109.249702</ele>
        <time>2017-01-29T15:10:37Z</time>
      </trkpt>
      <trkpt lat="49.00328" lon="1.12005">
        <ele>109.521248</ele>
        <time>2017-01-29T15:10:45Z</time>
      </trkpt>
      <trkpt lat="49.00335" lon="1.11988">
        <ele>109.782501</ele>
        <time>2017-01-29T15:10:52Z</time>
      </trkpt>
      <trkpt lat="49.00345" lon="1.11968">
        <ele>110.405624</ele>
        <time>2017-01-29T15:10:59Z</time>
      </trkpt>
      <trkpt lat="49.00353" lon="1.1195">
        <ele>110.666878</ele>
        <time>2017-01-29T15:11:04Z</time>
      </trkpt>
      <trkpt lat="49.0036" lon="1.11933">
        <ele>110.71508</ele>
        <time>2017-01-29T15:11:09Z</time>
      </trkpt>
      <trkpt lat="49.00368" lon="1.11905">
        <ele>109.813751</ele>
        <time>2017-01-29T15:11:15Z</time>
      </trkpt>
      <trkpt lat="49.0038" lon="1.11885">
        <ele>110.044998</ele>
        <time>2017-01-29T15:11:20Z</time>
      </trkpt>
      <trkpt lat="49.00393" lon="1.11873">
        <ele>110.811691</ele>
        <time>2017-01-29T15:11:25Z</time>
      </trkpt>
      <trkpt lat="49.00405" lon="1.11855">
        <ele>110.735291</ele>
        <time>2017-01-29T15:11:29Z</time>
      </trkpt>
      <trkpt lat="49.00413" lon="1.11835">
        <ele>109.716759</ele>
        <time>2017-01-29T15:11:34Z</time>
      </trkpt>
      <trkpt lat="49.00428" lon="1.11815">
        <ele>110.416794</ele>
        <time>2017-01-29T15:11:39Z</time>
      </trkpt>
      <trkpt lat="49.00435" lon="1.11798">
        <ele>109.957001</ele>
        <time>2017-01-29T15:11:44Z</time>
      </trkpt>
      <trkpt lat="49.00448" lon="1.11788">
        <ele>111.558388</ele>
        <time>2017-01-29T15:11:48Z</time>
      </trkpt>
      <trkpt lat="49.00463" lon="1.11795">
        <ele>115.510406</ele>
        <time>2017-01-29T15:11:58Z</time>
      </trkpt>
      <trkpt lat="49.00473" lon="1.1181">
        <ele>118.430122</ele>
        <time>2017-01-29T15:12:06Z</time>
      </trkpt>
      <trkpt lat="49.00485" lon="1.11823">
        <ele>121.029465</ele>
        <time>2017-01-29T15:12:16Z</time>
      </trkpt>
      <trkpt lat="49.005" lon="1.11815">
        <ele>123.198746</ele>
        <time>2017-01-29T15:12:25Z</time>
      </trkpt>
      <trkpt lat="49.00505" lon="1.11795">
        <ele>123.141174</ele>
        <time>2017-01-29T15:12:30Z</time>
      </trkpt>
      <trkpt lat="49.00513" lon="1.1177">
        <ele>123.19828</ele>
        <time>2017-01-29T15:12:37Z</time>
      </trkpt>
      <trkpt lat="49.00513" lon="1.11748">
        <ele>122.763901</ele>
        <time>2017-01-29T15:12:42Z</time>
      </trkpt>
      <trkpt lat="49.00515" lon="1.11725">
        <ele>122.566788</ele>
        <time>2017-01-29T15:12:46Z</time>
      </trkpt>
      <trkpt lat="49.0052" lon="1.11703">
        <ele>122.693115</ele>
        <time>2017-01-29T15:12:50Z</time>
      </trkpt>
      <trkpt lat="49.00533" lon="1.11693">
        <ele>124.05896</ele>
        <time>2017-01-29T15:12:54Z</time>
      </trkpt>
      <trkpt lat="49.00548" lon="1.1169">
        <ele>125.359123</ele>
        <time>2017-01-29T15:12:58Z</time>
      </trkpt>
      <trkpt lat="49.00563" lon="1.11695">
        <ele>125.579384</ele>
        <time>2017-01-29T15:13:03Z</time>
      </trkpt>
      <trkpt lat="49.00578" lon="1.11688">
        <ele>125.528786</ele>
        <time>2017-01-29T15:13:07Z</time>
      </trkpt>
      <trkpt lat="49.00593" lon="1.11698">
        <ele>125.728195</ele>
        <time>2017-01-29T15:13:13Z</time>
      </trkpt>
      <trkpt lat="49.00603" lon="1.11713">
        <ele>126.034302</ele>
        <time>2017-01-29T15:13:16Z</time>
      </trkpt>
      <trkpt lat="49.00615" lon="1.11725">
        <ele>126.470375</ele>
        <time>2017-01-29T15:13:19Z</time>
      </trkpt>
      <trkpt lat="49.0063" lon="1.11733">
        <ele>126.883247</ele>
        <time>2017-01-29T15:13:23Z</time>
      </trkpt>
      <trkpt lat="49.00645" lon="1.11735">
        <ele>126.479279</ele>
        <time>2017-01-29T15:13:26Z</time>
      </trkpt>
      <trkpt lat="49.00663" lon="1.11743">
        <ele>125.873878</ele>
        <time>2017-01-29T15:13:29Z</time>
      </trkpt>
      <trkpt lat="49.0068" lon="1.11745">
        <ele>125.187752</ele>
        <time>2017-01-29T15:13:32Z</time>
      </trkpt>
      <trkpt lat="49.00695" lon="1.11748">
        <ele>123.970238</ele>
        <time>2017-01-29T15:13:35Z</time>
      </trkpt>
      <trkpt lat="49.00708" lon="1.11758">
        <ele>123.685936</ele>
        <time>2017-01-29T15:13:38Z</time>
      </trkpt>
      <trkpt lat="49.00725" lon="1.11768">
        <ele>123.546722</ele>
        <time>2017-01-29T15:13:41Z</time>
      </trkpt>
      <trkpt lat="49.00743" lon="1.11773">
        <ele>123.100441</ele>
        <time>2017-01-29T15:13:44Z</time>
      </trkpt>
      <trkpt lat="49.00755" lon="1.11788">
        <ele>124.578873</ele>
        <time>2017-01-29T15:13:47Z</time>
      </trkpt>
      <trkpt lat="49.00773" lon="1.11793">
        <ele>124.738525</ele>
        <time>2017-01-29T15:13:51Z</time>
      </trkpt>
      <trkpt lat="49.0079" lon="1.11793">
        <ele>123.880936</ele>
        <time>2017-01-29T15:13:55Z</time>
      </trkpt>
      <trkpt lat="49.00803" lon="1.11803">
        <ele>124.640602</ele>
        <time>2017-01-29T15:13:58Z</time>
      </trkpt>
      <trkpt lat="49.0083" lon="1.11815">
        <ele>123.681099</ele>
        <time>2017-01-29T15:14:03Z</time>
      </trkpt>
      <trkpt lat="49.00843" lon="1.11825">
        <ele>123.681374</ele>
        <time>2017-01-29T15:14:06Z</time>
      </trkpt>
      <trkpt lat="49.00855" lon="1.11835">
        <ele>124.032135</ele>
        <time>2017-01-29T15:14:09Z</time>
      </trkpt>
      <trkpt lat="49.0087" lon="1.1184">
        <ele>123.397278</ele>
        <time>2017-01-29T15:14:11Z</time>
      </trkpt>
      <trkpt lat="49.0089" lon="1.11853">
        <ele>123.642647</ele>
        <time>2017-01-29T15:14:18Z</time>
      </trkpt>
      <trkpt lat="49.00905" lon="1.11853">
        <ele>122.6437</ele>
        <time>2017-01-29T15:14:21Z</time>
      </trkpt>
      <trkpt lat="49.0092" lon="1.11863">
        <ele>122.927589</ele>
        <time>2017-01-29T15:14:25Z</time>
      </trkpt>
      <trkpt lat="49.00938" lon="1.1187">
        <ele>121.700897</ele>
        <time>2017-01-29T15:14:29Z</time>
      </trkpt>
      <trkpt lat="49.00953" lon="1.11875">
        <ele>120.516594</ele>
        <time>2017-01-29T15:14:31Z</time>
      </trkpt>
      <trkpt lat="49.00968" lon="1.11885">
        <ele>119.863251</ele>
        <time>2017-01-29T15:14:35Z</time>
      </trkpt>
      <trkpt lat="49.00983" lon="1.11888">
        <ele>118.677353</ele>
        <time>2017-01-29T15:14:38Z</time>
      </trkpt>
      <trkpt lat="49.01" lon="1.11888">
        <ele>116.972771</ele>
        <time>2017-01-29T15:14:40Z</time>
      </trkpt>
      <trkpt lat="49.01013" lon="1.11898">
        <ele>116.86747</ele>
        <time>2017-01-29T15:14:45Z</time>
      </trkpt>
      <trkpt lat="49.01028" lon="1.11905">
        <ele>116.463943</ele>
        <time>2017-01-29T15:14:51Z</time>
      </trkpt>
      <trkpt lat="49.01045" lon="1.1191">
        <ele>115.498436</ele>
        <time>2017-01-29T15:14:56Z</time>
      </trkpt>
      <trkpt lat="49.0106" lon="1.11913">
        <ele>114.20031</ele>
        <time>2017-01-29T15:15:00Z</time>
      </trkpt>
      <trkpt lat="49.01078" lon="1.11923">
        <ele>114.366425</ele>
        <time>2017-01-29T15:15:05Z</time>
      </trkpt>
      <trkpt lat="49.01093" lon="1.11928">
        <ele>113.582802</ele>
        <time>2017-01-29T15:15:10Z</time>
      </trkpt>
      <trkpt lat="49.0111" lon="1.11943">
        <ele>112.422844</ele>
        <time>2017-01-29T15:15:44Z</time>
      </trkpt>
      <trkpt lat="49.01115" lon="1.11963">
        <ele>113.890198</ele>
        <time>2017-01-29T15:15:56Z</time>
      </trkpt>
      <trkpt lat="49.0112" lon="1.11983">
        <ele>115.733253</ele>
        <time>2017-01-29T15:16:01Z</time>
      </trkpt>
      <trkpt lat="49.01133" lon="1.11993">
        <ele>116.691101</ele>
        <time>2017-01-29T15:16:05Z</time>
      </trkpt>
      <trkpt lat="49.0115" lon="1.11988">
        <ele>116.484848</ele>
        <time>2017-01-29T15:16:09Z</time>
      </trkpt>
      <trkpt lat="49.01165" lon="1.11985">
        <ele>116.378777</ele>
        <time>2017-01-29T15:16:11Z</time>
      </trkpt>
      <trkpt lat="49.01183" lon="1.11983">
        <ele>115.388565</ele>
        <time>2017-01-29T15:16:16Z</time>
      </trkpt>
      <trkpt lat="49.01198" lon="1.1199">
        <ele>116.354378</ele>
        <time>2017-01-29T15:16:21Z</time>
      </trkpt>
      <trkpt lat="49.0121" lon="1.12005">
        <ele>117.718628</ele>
        <time>2017-01-29T15:16:24Z</time>
      </trkpt>
      <trkpt lat="49.01223" lon="1.1202">
        <ele>118.601814</ele>
        <time>2017-01-29T15:16:28Z</time>
      </trkpt>
      <trkpt lat="49.01235" lon="1.12038">
        <ele>119.684578</ele>
        <time>2017-01-29T15:16:31Z</time>
      </trkpt>
      <trkpt lat="49.01245" lon="1.12055">
        <ele>120.780014</ele>
        <time>2017-01-29T15:16:36Z</time>
      </trkpt>
      <trkpt lat="49.01248" lon="1.12078">
        <ele>121.499855</ele>
        <time>2017-01-29T15:16:40Z</time>
      </trkpt>
      <trkpt lat="49.01243" lon="1.12098">
        <ele>122.079094</ele>
        <time>2017-01-29T15:16:44Z</time>
      </trkpt>
      <trkpt lat="49.01235" lon="1.1212">
        <ele>122.608078</ele>
        <time>2017-01-29T15:16:48Z</time>
      </trkpt>
      <trkpt lat="49.0123" lon="1.1214">
        <ele>122.809998</ele>
        <time>2017-01-29T15:16:52Z</time>
      </trkpt>
      <trkpt lat="49.01223" lon="1.1216">
        <ele>122.980003</ele>
        <time>2017-01-29T15:16:56Z</time>
      </trkpt>
      <trkpt lat="49.01213" lon="1.12188">
        <ele>123</ele>
        <time>2017-01-29T15:17:01Z</time>
      </trkpt>
      <trkpt lat="49.01208" lon="1.12208">
        <ele>123</ele>
        <time>2017-01-29T15:17:05Z</time>
      </trkpt>
      <trkpt lat="49.012" lon="1.1223">
        <ele>123</ele>
        <time>2017-01-29T15:17:09Z</time>
      </trkpt>
      <trkpt lat="49.01193" lon="1.12258">
        <ele>123</ele>
        <time>2017-01-29T15:17:14Z</time>
      </trkpt>
      <trkpt lat="49.01183" lon="1.1228">
        <ele>123.163124</ele>
        <time>2017-01-29T15:17:18Z</time>
      </trkpt>
      <trkpt lat="49.01165" lon="1.12323">
        <ele>123.55825</ele>
        <time>2017-01-29T15:17:26Z</time>
      </trkpt>
      <trkpt lat="49.01158" lon="1.12343">
        <ele>123.571129</ele>
        <time>2017-01-29T15:17:29Z</time>
      </trkpt>
      <trkpt lat="49.01153" lon="1.12363">
        <ele>123.636566</ele>
        <time>2017-01-29T15:17:32Z</time>
      </trkpt>
      <trkpt lat="49.01148" lon="1.1239">
        <ele>123.84446</ele>
        <time>2017-01-29T15:17:36Z</time>
      </trkpt>
      <trkpt lat="49.01143" lon="1.12415">
        <ele>124.117874</ele>
        <time>2017-01-29T15:17:40Z</time>
      </trkpt>
      <trkpt lat="49.01138" lon="1.12438">
        <ele>124.44062</ele>
        <time>2017-01-29T15:17:43Z</time>
      </trkpt>
      <trkpt lat="49.01138" lon="1.1246">
        <ele>124.752586</ele>
        <time>2017-01-29T15:17:46Z</time>
      </trkpt>
      <trkpt lat="49.0113" lon="1.12478">
        <ele>125.054375</ele>
        <time>2017-01-29T15:17:54Z</time>
      </trkpt>
      <trkpt lat="49.01115" lon="1.12488">
        <ele>125.195625</ele>
        <time>2017-01-29T15:17:58Z</time>
      </trkpt>
      <trkpt lat="49.011" lon="1.12498">
        <ele>125.336876</ele>
        <time>2017-01-29T15:18:03Z</time>
      </trkpt>
      <trkpt lat="49.0109" lon="1.12513">
        <ele>125.553123</ele>
        <time>2017-01-29T15:18:07Z</time>
      </trkpt>
      <trkpt lat="49.01093" lon="1.12538">
        <ele>125.919998</ele>
        <time>2017-01-29T15:18:13Z</time>
      </trkpt>
      <trkpt lat="49.0109" lon="1.1256">
        <ele>126.248123</ele>
        <time>2017-01-29T15:18:18Z</time>
      </trkpt>
      <trkpt lat="49.0109" lon="1.12585">
        <ele>126.614372</ele>
        <time>2017-01-29T15:18:22Z</time>
      </trkpt>
      <trkpt lat="49.01095" lon="1.12605">
        <ele>126.836052</ele>
        <time>2017-01-29T15:18:25Z</time>
      </trkpt>
      <trkpt lat="49.01093" lon="1.1263">
        <ele>126.985474</ele>
        <time>2017-01-29T15:18:29Z</time>
      </trkpt>
      <trkpt lat="49.01088" lon="1.12663">
        <ele>127.074814</ele>
        <time>2017-01-29T15:18:34Z</time>
      </trkpt>
      <trkpt lat="49.0109" lon="1.1269">
        <ele>127.050003</ele>
        <time>2017-01-29T15:18:38Z</time>
      </trkpt>
      <trkpt lat="49.01093" lon="1.12718">
        <ele>127</ele>
        <time>2017-01-29T15:18:42Z</time>
      </trkpt>
      <trkpt lat="49.01085" lon="1.12735">
        <ele>127.169998</ele>
        <time>2017-01-29T15:18:45Z</time>
      </trkpt>
      <trkpt lat="49.01075" lon="1.1275">
        <ele>127.375626</ele>
        <time>2017-01-29T15:18:48Z</time>
      </trkpt>
      <trkpt lat="49.01063" lon="1.12768">
        <ele>127.403748</ele>
        <time>2017-01-29T15:18:52Z</time>
      </trkpt>
      <trkpt lat="49.01058" lon="1.12788">
        <ele>127.227501</ele>
        <time>2017-01-29T15:18:56Z</time>
      </trkpt>
      <trkpt lat="49.01055" lon="1.1281">
        <ele>126.958748</ele>
        <time>2017-01-29T15:19:01Z</time>
      </trkpt>
      <trkpt lat="49.01065" lon="1.12828">
        <ele>126.384773</ele>
        <time>2017-01-29T15:19:06Z</time>
      </trkpt>
      <trkpt lat="49.01075" lon="1.12848">
        <ele>125.778336</ele>
        <time>2017-01-29T15:19:10Z</time>
      </trkpt>
      <trkpt lat="49.01088" lon="1.12863">
        <ele>125.371407</ele>
        <time>2017-01-29T15:19:15Z</time>
      </trkpt>
      <trkpt lat="49.011" lon="1.12883">
        <ele>125.027496</ele>
        <time>2017-01-29T15:19:20Z</time>
      </trkpt>
      <trkpt lat="49.0111" lon="1.129">
        <ele>124.686127</ele>
        <time>2017-01-29T15:19:25Z</time>
      </trkpt>
      <trkpt lat="49.01123" lon="1.1291">
        <ele>124.377419</ele>
        <time>2017-01-29T15:19:29Z</time>
      </trkpt>
      <trkpt lat="49.01125" lon="1.12933">
        <ele>123.805511</ele>
        <time>2017-01-29T15:19:35Z</time>
      </trkpt>
      <trkpt lat="49.0111" lon="1.1294">
        <ele>123.903709</ele>
        <time>2017-01-29T15:19:43Z</time>
      </trkpt>
      <trkpt lat="49.01095" lon="1.12938">
        <ele>124.219864</ele>
        <time>2017-01-29T15:19:47Z</time>
      </trkpt>
      <trkpt lat="49.01078" lon="1.12935">
        <ele>124.266251</ele>
        <time>2017-01-29T15:19:52Z</time>
      </trkpt>
      <trkpt lat="49.0106" lon="1.12935">
        <ele>124.272499</ele>
        <time>2017-01-29T15:19:58Z</time>
      </trkpt>
      <trkpt lat="49.0104" lon="1.12933">
        <ele>124.535622</ele>
        <time>2017-01-29T15:20:03Z</time>
      </trkpt>
      <trkpt lat="49.01023" lon="1.1293">
        <ele>124.963127</ele>
        <time>2017-01-29T15:20:07Z</time>
      </trkpt>
      <trkpt lat="49.01008" lon="1.1293">
        <ele>125.303749</ele>
        <time>2017-01-29T15:20:10Z</time>
      </trkpt>
      <trkpt lat="49.00973" lon="1.12928">
        <ele>126.131874</ele>
        <time>2017-01-29T15:20:18Z</time>
      </trkpt>
      <trkpt lat="49.0095" lon="1.12928">
        <ele>126.767601</ele>
        <time>2017-01-29T15:20:23Z</time>
      </trkpt>
      <trkpt lat="49.00935" lon="1.1294">
        <ele>127.217636</ele>
        <time>2017-01-29T15:20:28Z</time>
      </trkpt>
      <trkpt lat="49.00933" lon="1.12963">
        <ele>127.230003</ele>
        <time>2017-01-29T15:20:33Z</time>
      </trkpt>
      <trkpt lat="49.00925" lon="1.12983">
        <ele>127.580002</ele>
        <time>2017-01-29T15:20:36Z</time>
      </trkpt>
      <trkpt lat="49.0092" lon="1.13003">
        <ele>127.809998</ele>
        <time>2017-01-29T15:20:40Z</time>
      </trkpt>
      <trkpt lat="49.00913" lon="1.13023">
        <ele>128.003143</ele>
        <time>2017-01-29T15:20:44Z</time>
      </trkpt>
      <trkpt lat="49.00908" lon="1.13043">
        <ele>128</ele>
        <time>2017-01-29T15:20:48Z</time>
      </trkpt>
      <trkpt lat="49.00898" lon="1.1307">
        <ele>128</ele>
        <time>2017-01-29T15:20:53Z</time>
      </trkpt>
      <trkpt lat="49.00893" lon="1.13093">
        <ele>128</ele>
        <time>2017-01-29T15:20:57Z</time>
      </trkpt>
      <trkpt lat="49.00885" lon="1.13113">
        <ele>128</ele>
        <time>2017-01-29T15:21:00Z</time>
      </trkpt>
      <trkpt lat="49.0088" lon="1.13135">
        <ele>128</ele>
        <time>2017-01-29T15:21:05Z</time>
      </trkpt>
      <trkpt lat="49.00873" lon="1.13158">
        <ele>128</ele>
        <time>2017-01-29T15:21:09Z</time>
      </trkpt>
      <trkpt lat="49.00865" lon="1.13183">
        <ele>128.121658</ele>
        <time>2017-01-29T15:21:13Z</time>
      </trkpt>
      <trkpt lat="49.00858" lon="1.132">
        <ele>128.157242</ele>
        <time>2017-01-29T15:21:16Z</time>
      </trkpt>
      <trkpt lat="49.00835" lon="1.13218">
        <ele>128.180618</ele>
        <time>2017-01-29T15:21:25Z</time>
      </trkpt>
      <trkpt lat="49.0082" lon="1.1321">
        <ele>128.271225</ele>
        <time>2017-01-29T15:21:28Z</time>
      </trkpt>
      <trkpt lat="49.00803" lon="1.132">
        <ele>128.209351</ele>
        <time>2017-01-29T15:21:34Z</time>
      </trkpt>
      <trkpt lat="49.00783" lon="1.1319">
        <ele>128</ele>
        <time>2017-01-29T15:21:39Z</time>
      </trkpt>
      <trkpt lat="49.00763" lon="1.13178">
        <ele>128</ele>
        <time>2017-01-29T15:21:43Z</time>
      </trkpt>
      <trkpt lat="49.00748" lon="1.13173">
        <ele>128</ele>
        <time>2017-01-29T15:21:47Z</time>
      </trkpt>
      <trkpt lat="49.00733" lon="1.13163">
        <ele>128</ele>
        <time>2017-01-29T15:21:51Z</time>
      </trkpt>
      <trkpt lat="49.00718" lon="1.13155">
        <ele>128</ele>
        <time>2017-01-29T15:21:54Z</time>
      </trkpt>
      <trkpt lat="49.00695" lon="1.1314">
        <ele>128</ele>
        <time>2017-01-29T15:21:59Z</time>
      </trkpt>
      <trkpt lat="49.00675" lon="1.13128">
        <ele>127.614998</ele>
        <time>2017-01-29T15:22:04Z</time>
      </trkpt>
      <trkpt lat="49.00658" lon="1.13118">
        <ele>127.230003</ele>
        <time>2017-01-29T15:22:07Z</time>
      </trkpt>
      <trkpt lat="49.0064" lon="1.1312">
        <ele>127</ele>
        <time>2017-01-29T15:22:13Z</time>
      </trkpt>
      <trkpt lat="49.0063" lon="1.13135">
        <ele>127</ele>
        <time>2017-01-29T15:22:16Z</time>
      </trkpt>
      <trkpt lat="49.0062" lon="1.13155">
        <ele>127</ele>
        <time>2017-01-29T15:22:22Z</time>
      </trkpt>
      <trkpt lat="49.0061" lon="1.13175">
        <ele>127</ele>
        <time>2017-01-29T15:22:27Z</time>
      </trkpt>
      <trkpt lat="49.0061" lon="1.132">
        <ele>127</ele>
        <time>2017-01-29T15:22:31Z</time>
      </trkpt>
      <trkpt lat="49.0061" lon="1.13228">
        <ele>127</ele>
        <time>2017-01-29T15:22:35Z</time>
      </trkpt>
      <trkpt lat="49.00605" lon="1.13253">
        <ele>127</ele>
        <time>2017-01-29T15:22:39Z</time>
      </trkpt>
      <trkpt lat="49.00603" lon="1.13275">
        <ele>127</ele>
        <time>2017-01-29T15:22:43Z</time>
      </trkpt>
      <trkpt lat="49.00593" lon="1.13295">
        <ele>127</ele>
        <time>2017-01-29T15:22:47Z</time>
      </trkpt>
      <trkpt lat="49.00598" lon="1.13318">
        <ele>127</ele>
        <time>2017-01-29T15:22:51Z</time>
      </trkpt>
      <trkpt lat="49.00613" lon="1.13323">
        <ele>127</ele>
        <time>2017-01-29T15:22:57Z</time>
      </trkpt>
      <trkpt lat="49.00628" lon="1.13323">
        <ele>127</ele>
        <time>2017-01-29T15:23:01Z</time>
      </trkpt>
      <trkpt lat="49.00643" lon="1.13318">
        <ele>127</ele>
        <time>2017-01-29T15:23:05Z</time>
      </trkpt>
      <trkpt lat="49.00663" lon="1.13313">
        <ele>127</ele>
        <time>2017-01-29T15:23:11Z</time>
      </trkpt>
      <trkpt lat="49.00675" lon="1.13323">
        <ele>127</ele>
        <time>2017-01-29T15:23:15Z</time>
      </trkpt>
      <trkpt lat="49.00683" lon="1.13348">
        <ele>127</ele>
        <time>2017-01-29T15:23:19Z</time>
      </trkpt>
      <trkpt lat="49.00693" lon="1.13373">
        <ele>127</ele>
        <time>2017-01-29T15:23:24Z</time>
      </trkpt>
      <trkpt lat="49.007" lon="1.13393">
        <ele>127</ele>
        <time>2017-01-29T15:23:28Z</time>
      </trkpt>
      <trkpt lat="49.00708" lon="1.13423">
        <ele>127</ele>
        <time>2017-01-29T15:23:33Z</time>
      </trkpt>
      <trkpt lat="49.00713" lon="1.1345">
        <ele>126.851875</ele>
        <time>2017-01-29T15:23:37Z</time>
      </trkpt>
      <trkpt lat="49.0072" lon="1.13468">
        <ele>126.593124</ele>
        <time>2017-01-29T15:23:40Z</time>
      </trkpt>
      <trkpt lat="49.00725" lon="1.13495">
        <ele>126.188751</ele>
        <time>2017-01-29T15:23:44Z</time>
      </trkpt>
      <trkpt lat="49.0073" lon="1.13515">
        <ele>125.92025</ele>
        <time>2017-01-29T15:23:47Z</time>
      </trkpt>
      <trkpt lat="49.0074" lon="1.13535">
        <ele>125.610184</ele>
        <time>2017-01-29T15:23:52Z</time>
      </trkpt>
      <trkpt lat="49.00748" lon="1.13568">
        <ele>125.119377</ele>
        <time>2017-01-29T15:24:02Z</time>
      </trkpt>
      <trkpt lat="49.0074" lon="1.1359">
        <ele>124.824203</ele>
        <time>2017-01-29T15:24:07Z</time>
      </trkpt>
      <trkpt lat="49.00735" lon="1.13613">
        <ele>124.537071</ele>
        <time>2017-01-29T15:24:10Z</time>
      </trkpt>
      <trkpt lat="49.00733" lon="1.1364">
        <ele>124.077011</ele>
        <time>2017-01-29T15:24:14Z</time>
      </trkpt>
      <trkpt lat="49.00738" lon="1.13663">
        <ele>123.732498</ele>
        <time>2017-01-29T15:24:17Z</time>
      </trkpt>
      <trkpt lat="49.00745" lon="1.13685">
        <ele>123.400627</ele>
        <time>2017-01-29T15:24:20Z</time>
      </trkpt>
      <trkpt lat="49.0075" lon="1.13708">
        <ele>123.069374</ele>
        <time>2017-01-29T15:24:22Z</time>
      </trkpt>
      <trkpt lat="49.00755" lon="1.1373">
        <ele>122.670036</ele>
        <time>2017-01-29T15:24:26Z</time>
      </trkpt>
      <trkpt lat="49.0076" lon="1.13758">
        <ele>122.090569</ele>
        <time>2017-01-29T15:24:30Z</time>
      </trkpt>
      <trkpt lat="49.00768" lon="1.13783">
        <ele>121.401253</ele>
        <time>2017-01-29T15:24:34Z</time>
      </trkpt>
      <trkpt lat="49.00773" lon="1.13813">
        <ele>120.418747</ele>
        <time>2017-01-29T15:24:38Z</time>
      </trkpt>
      <trkpt lat="49.00778" lon="1.13833">
        <ele>119.720001</ele>
        <time>2017-01-29T15:24:41Z</time>
      </trkpt>
      <trkpt lat="49.00785" lon="1.13853">
        <ele>119.093437</ele>
        <time>2017-01-29T15:24:45Z</time>
      </trkpt>
      <trkpt lat="49.00788" lon="1.13875">
        <ele>119.03022</ele>
        <time>2017-01-29T15:24:55Z</time>
      </trkpt>
      <trkpt lat="49.00793" lon="1.13895">
        <ele>118.958603</ele>
        <time>2017-01-29T15:25:02Z</time>
      </trkpt>
      <trkpt lat="49.008" lon="1.13913">
        <ele>118.791275</ele>
        <time>2017-01-29T15:25:07Z</time>
      </trkpt>
      <trkpt lat="49.00793" lon="1.13933">
        <ele>119.20134</ele>
        <time>2017-01-29T15:25:14Z</time>
      </trkpt>
      <trkpt lat="49.0078" lon="1.13948">
        <ele>119.454376</ele>
        <time>2017-01-29T15:25:20Z</time>
      </trkpt>
      <trkpt lat="49.00765" lon="1.13955">
        <ele>119.559372</ele>
        <time>2017-01-29T15:25:25Z</time>
      </trkpt>
      <trkpt lat="49.0076" lon="1.13935">
        <ele>119.264999</ele>
        <time>2017-01-29T15:25:33Z</time>
      </trkpt>
      <trkpt lat="49.00763" lon="1.13913">
        <ele>119.039207</ele>
        <time>2017-01-29T15:25:37Z</time>
      </trkpt>
      <trkpt lat="49.0077" lon="1.13895">
        <ele>119.139702</ele>
        <time>2017-01-29T15:25:43Z</time>
      </trkpt>
      <trkpt lat="49.00755" lon="1.1389">
        <ele>119.30661</ele>
        <time>2017-01-29T15:25:50Z</time>
      </trkpt>
      <trkpt lat="49.00743" lon="1.13903">
        <ele>119.271873</ele>
        <time>2017-01-29T15:25:55Z</time>
      </trkpt>
      <trkpt lat="49.0074" lon="1.13925">
        <ele>119.213455</ele>
        <time>2017-01-29T15:26:02Z</time>
      </trkpt>
      <trkpt lat="49.00725" lon="1.13933">
        <ele>119.568939</ele>
        <time>2017-01-29T15:26:10Z</time>
      </trkpt>
      <trkpt lat="49.00708" lon="1.1393">
        <ele>119.867798</ele>
        <time>2017-01-29T15:26:16Z</time>
      </trkpt>
      <trkpt lat="49.00698" lon="1.13945">
        <ele>120.065002</ele>
        <time>2017-01-29T15:26:25Z</time>
      </trkpt>
      <trkpt lat="49.00695" lon="1.13968">
        <ele>120.125</ele>
        <time>2017-01-29T15:26:31Z</time>
      </trkpt>
      <trkpt lat="49.00685" lon="1.13983">
        <ele>120.355003</ele>
        <time>2017-01-29T15:26:42Z</time>
      </trkpt>
      <trkpt lat="49.00668" lon="1.13988">
        <ele>120.746872</ele>
        <time>2017-01-29T15:26:48Z</time>
      </trkpt>
      <trkpt lat="49.00653" lon="1.13995">
        <ele>121.186874</ele>
        <time>2017-01-29T15:26:54Z</time>
      </trkpt>
      <trkpt lat="49.00638" lon="1.14">
        <ele>121.590004</ele>
        <time>2017-01-29T15:26:59Z</time>
      </trkpt>
      <trkpt lat="49.00618" lon="1.13998">
        <ele>121.991249</ele>
        <time>2017-01-29T15:27:24Z</time>
      </trkpt>
      <trkpt lat="49.00613" lon="1.14018">
        <ele>122.397499</ele>
        <time>2017-01-29T15:27:29Z</time>
      </trkpt>
      <trkpt lat="49.00603" lon="1.14035">
        <ele>122.875</ele>
        <time>2017-01-29T15:27:36Z</time>
      </trkpt>
      <trkpt lat="49.00588" lon="1.1404">
        <ele>123.278122</ele>
        <time>2017-01-29T15:27:41Z</time>
      </trkpt>
      <trkpt lat="49.00573" lon="1.14038">
        <ele>123.571877</ele>
        <time>2017-01-29T15:27:45Z</time>
      </trkpt>
      <trkpt lat="49.00575" lon="1.14013">
        <ele>123.141876</ele>
        <time>2017-01-29T15:27:51Z</time>
      </trkpt>
      <trkpt lat="49.0058" lon="1.13988">
        <ele>122.690002</ele>
        <time>2017-01-29T15:27:56Z</time>
      </trkpt>
      <trkpt lat="49.00593" lon="1.13978">
        <ele>122.410004</ele>
        <time>2017-01-29T15:28:03Z</time>
      </trkpt>
      <trkpt lat="49.00605" lon="1.13968">
        <ele>122.129997</ele>
        <time>2017-01-29T15:28:08Z</time>
      </trkpt>
      <trkpt lat="49.0061" lon="1.13948">
        <ele>122.014999</ele>
        <time>2017-01-29T15:28:11Z</time>
      </trkpt>
      <trkpt lat="49.00608" lon="1.13925">
        <ele>122.065002</ele>
        <time>2017-01-29T15:28:16Z</time>
      </trkpt>
      <trkpt lat="49.0061" lon="1.13903">
        <ele>122.004997</ele>
        <time>2017-01-29T15:28:26Z</time>
      </trkpt>
      <trkpt lat="49.0062" lon="1.13888">
        <ele>121.779999</ele>
        <time>2017-01-29T15:28:30Z</time>
      </trkpt>
      <trkpt lat="49.00625" lon="1.13868">
        <ele>121.660004</ele>
        <time>2017-01-29T15:28:35Z</time>
      </trkpt>
      <trkpt lat="49.00623" lon="1.13843">
        <ele>121.846252</ele>
        <time>2017-01-29T15:28:40Z</time>
      </trkpt>
      <trkpt lat="49.00628" lon="1.1382">
        <ele>122.058754</ele>
        <time>2017-01-29T15:28:45Z</time>
      </trkpt>
      <trkpt lat="49.00635" lon="1.138">
        <ele>122.179375</ele>
        <time>2017-01-29T15:28:50Z</time>
      </trkpt>
      <trkpt lat="49.00645" lon="1.13785">
        <ele>122.170624</ele>
        <time>2017-01-29T15:28:53Z</time>
      </trkpt>
      <trkpt lat="49.00645" lon="1.1376">
        <ele>122.53125</ele>
        <time>2017-01-29T15:28:58Z</time>
      </trkpt>
      <trkpt lat="49.00635" lon="1.1374">
        <ele>123.042503</ele>
        <time>2017-01-29T15:29:03Z</time>
      </trkpt>
      <trkpt lat="49.00628" lon="1.13718">
        <ele>123.539375</ele>
        <time>2017-01-29T15:29:07Z</time>
      </trkpt>
      <trkpt lat="49.00628" lon="1.13695">
        <ele>123.990059</ele>
        <time>2017-01-29T15:29:11Z</time>
      </trkpt>
      <trkpt lat="49.00625" lon="1.1366">
        <ele>124.732521</ele>
        <time>2017-01-29T15:29:18Z</time>
      </trkpt>
      <trkpt lat="49.00628" lon="1.13635">
        <ele>125.172501</ele>
        <time>2017-01-29T15:29:22Z</time>
      </trkpt>
      <trkpt lat="49.0063" lon="1.13613">
        <ele>125.500626</ele>
        <time>2017-01-29T15:29:26Z</time>
      </trkpt>
      <trkpt lat="49.00623" lon="1.13595">
        <ele>125.759377</ele>
        <time>2017-01-29T15:29:35Z</time>
      </trkpt>
      <trkpt lat="49.00608" lon="1.13603">
        <ele>125.654999</ele>
        <time>2017-01-29T15:29:40Z</time>
      </trkpt>
      <trkpt lat="49.00598" lon="1.13588">
        <ele>125.878128</ele>
        <time>2017-01-29T15:29:46Z</time>
      </trkpt>
      <trkpt lat="49.00603" lon="1.13568">
        <ele>126</ele>
        <time>2017-01-29T15:29:52Z</time>
      </trkpt>
      <trkpt lat="49.00605" lon="1.13545">
        <ele>126</ele>
        <time>2017-01-29T15:29:57Z</time>
      </trkpt>
      <trkpt lat="49.00605" lon="1.13523">
        <ele>126</ele>
        <time>2017-01-29T15:30:01Z</time>
      </trkpt>
      <trkpt lat="49.0061" lon="1.13498">
        <ele>126.191254</ele>
        <time>2017-01-29T15:30:09Z</time>
      </trkpt>
      <trkpt lat="49.00613" lon="1.13473">
        <ele>126.556252</ele>
        <time>2017-01-29T15:30:16Z</time>
      </trkpt>
      <trkpt lat="49.00615" lon="1.1345">
        <ele>126.885002</ele>
        <time>2017-01-29T15:30:22Z</time>
      </trkpt>
      <trkpt lat="49.00618" lon="1.13428">
        <ele>127</ele>
        <time>2017-01-29T15:30:27Z</time>
      </trkpt>
      <trkpt lat="49.00615" lon="1.13405">
        <ele>127</ele>
        <time>2017-01-29T15:30:32Z</time>
      </trkpt>
      <trkpt lat="49.0061" lon="1.13383">
        <ele>127</ele>
        <time>2017-01-29T15:30:38Z</time>
      </trkpt>
      <trkpt lat="49.006" lon="1.13355">
        <ele>127</ele>
        <time>2017-01-29T15:30:45Z</time>
      </trkpt>
      <trkpt lat="49.00598" lon="1.13333">
        <ele>127</ele>
        <time>2017-01-29T15:30:50Z</time>
      </trkpt>
      <trkpt lat="49.00593" lon="1.13308">
        <ele>127</ele>
        <time>2017-01-29T15:30:55Z</time>
      </trkpt>
      <trkpt lat="49.00588" lon="1.13288">
        <ele>127</ele>
        <time>2017-01-29T15:31:00Z</time>
      </trkpt>
      <trkpt lat="49.0059" lon="1.1326">
        <ele>127</ele>
        <time>2017-01-29T15:31:05Z</time>
      </trkpt>
      <trkpt lat="49.00593" lon="1.13235">
        <ele>127</ele>
        <time>2017-01-29T15:31:09Z</time>
      </trkpt>
      <trkpt lat="49.00588" lon="1.13215">
        <ele>127</ele>
        <time>2017-01-29T15:31:12Z</time>
      </trkpt>
      <trkpt lat="49.0058" lon="1.13193">
        <ele>127</ele>
        <time>2017-01-29T15:31:16Z</time>
      </trkpt>
      <trkpt lat="49.0058" lon="1.1317">
        <ele>127</ele>
        <time>2017-01-29T15:31:21Z</time>
      </trkpt>
      <trkpt lat="49.00598" lon="1.13165">
        <ele>127</ele>
        <time>2017-01-29T15:31:29Z</time>
      </trkpt>
      <trkpt lat="49.0061" lon="1.13155">
        <ele>127</ele>
        <time>2017-01-29T15:31:34Z</time>
      </trkpt>
      <trkpt lat="49.0062" lon="1.1314">
        <ele>127</ele>
        <time>2017-01-29T15:31:37Z</time>
      </trkpt>
      <trkpt lat="49.00628" lon="1.13123">
        <ele>127</ele>
        <time>2017-01-29T15:31:41Z</time>
      </trkpt>
      <trkpt lat="49.00625" lon="1.131">
        <ele>127.002869</ele>
        <time>2017-01-29T15:31:45Z</time>
      </trkpt>
      <trkpt lat="49.00623" lon="1.13073">
        <ele>127.188026</ele>
        <time>2017-01-29T15:31:50Z</time>
      </trkpt>
      <trkpt lat="49.00615" lon="1.13048">
        <ele>127.233253</ele>
        <time>2017-01-29T15:31:54Z</time>
      </trkpt>
      <trkpt lat="49.00608" lon="1.1302">
        <ele>127.139999</ele>
        <time>2017-01-29T15:31:58Z</time>
      </trkpt>
      <trkpt lat="49.00603" lon="1.13">
        <ele>127.029999</ele>
        <time>2017-01-29T15:32:01Z</time>
      </trkpt>
      <trkpt lat="49.00598" lon="1.12978">
        <ele>127</ele>
        <time>2017-01-29T15:32:04Z</time>
      </trkpt>
      <trkpt lat="49.00595" lon="1.12955">
        <ele>127</ele>
        <time>2017-01-29T15:32:07Z</time>
      </trkpt>
      <trkpt lat="49.00593" lon="1.12933">
        <ele>127</ele>
        <time>2017-01-29T15:32:10Z</time>
      </trkpt>
      <trkpt lat="49.00585" lon="1.12915">
        <ele>127</ele>
        <time>2017-01-29T15:32:13Z</time>
      </trkpt>
      <trkpt lat="49.00583" lon="1.12893">
        <ele>127</ele>
        <time>2017-01-29T15:32:16Z</time>
      </trkpt>
      <trkpt lat="49.00583" lon="1.1287">
        <ele>127</ele>
        <time>2017-01-29T15:32:20Z</time>
      </trkpt>
      <trkpt lat="49.0058" lon="1.12848">
        <ele>127</ele>
        <time>2017-01-29T15:32:22Z</time>
      </trkpt>
      <trkpt lat="49.0057" lon="1.12825">
        <ele>127</ele>
        <time>2017-01-29T15:32:27Z</time>
      </trkpt>
      <trkpt lat="49.00555" lon="1.12823">
        <ele>127</ele>
        <time>2017-01-29T15:32:30Z</time>
      </trkpt>
      <trkpt lat="49.0054" lon="1.1283">
        <ele>127</ele>
        <time>2017-01-29T15:32:33Z</time>
      </trkpt>
      <trkpt lat="49.00525" lon="1.12838">
        <ele>127</ele>
        <time>2017-01-29T15:32:37Z</time>
      </trkpt>
      <trkpt lat="49.0051" lon="1.12843">
        <ele>127</ele>
        <time>2017-01-29T15:32:41Z</time>
      </trkpt>
      <trkpt lat="49.00508" lon="1.12818">
        <ele>126.825401</ele>
        <time>2017-01-29T15:32:46Z</time>
      </trkpt>
      <trkpt lat="49.0051" lon="1.12795">
        <ele>126.500198</ele>
        <time>2017-01-29T15:32:51Z</time>
      </trkpt>
      <trkpt lat="49.00513" lon="1.1277">
        <ele>126.194427</ele>
        <time>2017-01-29T15:32:55Z</time>
      </trkpt>
      <trkpt lat="49.00503" lon="1.12753">
        <ele>126.256104</ele>
        <time>2017-01-29T15:32:58Z</time>
      </trkpt>
      <trkpt lat="49.00485" lon="1.12745">
        <ele>126.644051</ele>
        <time>2017-01-29T15:33:04Z</time>
      </trkpt>
      <trkpt lat="49.00475" lon="1.12725">
        <ele>126.884453</ele>
        <time>2017-01-29T15:33:09Z</time>
      </trkpt>
      <trkpt lat="49.00485" lon="1.1271">
        <ele>126.886299</ele>
        <time>2017-01-29T15:33:14Z</time>
      </trkpt>
      <trkpt lat="49.0048" lon="1.12688">
        <ele>127</ele>
        <time>2017-01-29T15:33:20Z</time>
      </trkpt>
      <trkpt lat="49.00473" lon="1.12668">
        <ele>127</ele>
        <time>2017-01-29T15:33:24Z</time>
      </trkpt>
      <trkpt lat="49.00458" lon="1.12655">
        <ele>127.069374</ele>
        <time>2017-01-29T15:33:28Z</time>
      </trkpt>
      <trkpt lat="49.00445" lon="1.12645">
        <ele>127.287857</ele>
        <time>2017-01-29T15:33:33Z</time>
      </trkpt>
      <trkpt lat="49.00453" lon="1.12628">
        <ele>127.220924</ele>
        <time>2017-01-29T15:33:41Z</time>
      </trkpt>
      <trkpt lat="49.00465" lon="1.12618">
        <ele>127</ele>
        <time>2017-01-29T15:33:46Z</time>
      </trkpt>
      <trkpt lat="49.0048" lon="1.12618">
        <ele>127</ele>
        <time>2017-01-29T15:33:52Z</time>
      </trkpt>
      <trkpt lat="49.00498" lon="1.1262">
        <ele>127</ele>
        <time>2017-01-29T15:33:57Z</time>
      </trkpt>
      <trkpt lat="49.00513" lon="1.1263">
        <ele>126.889999</ele>
        <time>2017-01-29T15:34:02Z</time>
      </trkpt>
      <trkpt lat="49.00525" lon="1.1264">
        <ele>126.610001</ele>
        <time>2017-01-29T15:34:06Z</time>
      </trkpt>
      <trkpt lat="49.00543" lon="1.12648">
        <ele>126.224998</ele>
        <time>2017-01-29T15:34:11Z</time>
      </trkpt>
      <trkpt lat="49.00558" lon="1.1266">
        <ele>126.055588</ele>
        <time>2017-01-29T15:34:16Z</time>
      </trkpt>
      <trkpt lat="49.0057" lon="1.12648">
        <ele>126.136742</ele>
        <time>2017-01-29T15:34:20Z</time>
      </trkpt>
      <trkpt lat="49.00583" lon="1.12633">
        <ele>126.090866</ele>
        <time>2017-01-29T15:34:23Z</time>
      </trkpt>
      <trkpt lat="49.00593" lon="1.12613">
        <ele>126</ele>
        <time>2017-01-29T15:34:27Z</time>
      </trkpt>
      <trkpt lat="49.00608" lon="1.12603">
        <ele>126.162148</ele>
        <time>2017-01-29T15:34:32Z</time>
      </trkpt>
      <trkpt lat="49.00615" lon="1.12583">
        <ele>126.168076</ele>
        <time>2017-01-29T15:34:35Z</time>
      </trkpt>
      <trkpt lat="49.00618" lon="1.1256">
        <ele>126.040108</ele>
        <time>2017-01-29T15:34:40Z</time>
      </trkpt>
      <trkpt lat="49.00613" lon="1.1254">
        <ele>126</ele>
        <time>2017-01-29T15:34:44Z</time>
      </trkpt>
      <trkpt lat="49.00603" lon="1.12513">
        <ele>126</ele>
        <time>2017-01-29T15:34:52Z</time>
      </trkpt>
      <trkpt lat="49.0059" lon="1.12485">
        <ele>126</ele>
        <time>2017-01-29T15:34:58Z</time>
      </trkpt>
      <trkpt lat="49.00585" lon="1.12463">
        <ele>126</ele>
        <time>2017-01-29T15:35:03Z</time>
      </trkpt>
      <trkpt lat="49.00583" lon="1.1244">
        <ele>126</ele>
        <time>2017-01-29T15:35:06Z</time>
      </trkpt>
      <trkpt lat="49.00585" lon="1.12418">
        <ele>126</ele>
        <time>2017-01-29T15:35:11Z</time>
      </trkpt>
      <trkpt lat="49.00583" lon="1.12395">
        <ele>126</ele>
        <time>2017-01-29T15:35:16Z</time>
      </trkpt>
      <trkpt lat="49.00598" lon="1.12398">
        <ele>126</ele>
        <time>2017-01-29T15:35:24Z</time>
      </trkpt>
      <trkpt lat="49.00605" lon="1.1238">
        <ele>126</ele>
        <time>2017-01-29T15:35:32Z</time>
      </trkpt>
      <trkpt lat="49.006" lon="1.12358">
        <ele>126</ele>
        <time>2017-01-29T15:35:36Z</time>
      </trkpt>
      <trkpt lat="49.00595" lon="1.12335">
        <ele>126</ele>
        <time>2017-01-29T15:35:39Z</time>
      </trkpt>
      <trkpt lat="49.0059" lon="1.12308">
        <ele>126</ele>
        <time>2017-01-29T15:35:43Z</time>
      </trkpt>
      <trkpt lat="49.00583" lon="1.1229">
        <ele>126</ele>
        <time>2017-01-29T15:35:46Z</time>
      </trkpt>
      <trkpt lat="49.00575" lon="1.12273">
        <ele>126</ele>
        <time>2017-01-29T15:35:48Z</time>
      </trkpt>
      <trkpt lat="49.00565" lon="1.12255">
        <ele>126</ele>
        <time>2017-01-29T15:35:52Z</time>
      </trkpt>
      <trkpt lat="49.00553" lon="1.12243">
        <ele>126</ele>
        <time>2017-01-29T15:35:55Z</time>
      </trkpt>
      <trkpt lat="49.00548" lon="1.12223">
        <ele>125.998184</ele>
        <time>2017-01-29T15:36:00Z</time>
      </trkpt>
      <trkpt lat="49.00553" lon="1.122">
        <ele>126</ele>
        <time>2017-01-29T15:36:05Z</time>
      </trkpt>
      <trkpt lat="49.00568" lon="1.12195">
        <ele>126</ele>
        <time>2017-01-29T15:36:10Z</time>
      </trkpt>
      <trkpt lat="49.00583" lon="1.12183">
        <ele>126</ele>
        <time>2017-01-29T15:36:15Z</time>
      </trkpt>
      <trkpt lat="49.00595" lon="1.12168">
        <ele>126.033379</ele>
        <time>2017-01-29T15:36:19Z</time>
      </trkpt>
      <trkpt lat="49.00605" lon="1.12153">
        <ele>126.247452</ele>
        <time>2017-01-29T15:36:22Z</time>
      </trkpt>
      <trkpt lat="49.00615" lon="1.1213">
        <ele>126.714996</ele>
        <time>2017-01-29T15:36:26Z</time>
      </trkpt>
      <trkpt lat="49.00628" lon="1.1211">
        <ele>127.288124</ele>
        <time>2017-01-29T15:36:30Z</time>
      </trkpt>
      <trkpt lat="49.0064" lon="1.1212">
        <ele>127.347504</ele>
        <time>2017-01-29T15:36:37Z</time>
      </trkpt>
      <trkpt lat="49.00655" lon="1.12128">
        <ele>127.232498</ele>
        <time>2017-01-29T15:36:45Z</time>
      </trkpt>
      <trkpt lat="49.0067" lon="1.12125">
        <ele>127.264374</ele>
        <time>2017-01-29T15:36:51Z</time>
      </trkpt>
      <trkpt lat="49.00685" lon="1.12125">
        <ele>127.306931</ele>
        <time>2017-01-29T15:36:58Z</time>
      </trkpt>
      <trkpt lat="49.00698" lon="1.12115">
        <ele>127.607819</ele>
        <time>2017-01-29T15:37:02Z</time>
      </trkpt>
      <trkpt lat="49.0071" lon="1.12103">
        <ele>127.842499</ele>
        <time>2017-01-29T15:37:06Z</time>
      </trkpt>
      <trkpt lat="49.00718" lon="1.12085">
        <ele>127.96579</ele>
        <time>2017-01-29T15:37:10Z</time>
      </trkpt>
      <trkpt lat="49.00715" lon="1.12063">
        <ele>128</ele>
        <time>2017-01-29T15:37:14Z</time>
      </trkpt>
      <trkpt lat="49.00713" lon="1.1204">
        <ele>128</ele>
        <time>2017-01-29T15:37:18Z</time>
      </trkpt>
      <trkpt lat="49.00708" lon="1.12018">
        <ele>128</ele>
        <time>2017-01-29T15:37:22Z</time>
      </trkpt>
      <trkpt lat="49.00705" lon="1.11995">
        <ele>128</ele>
        <time>2017-01-29T15:37:26Z</time>
      </trkpt>
      <trkpt lat="49.007" lon="1.11975">
        <ele>128</ele>
        <time>2017-01-29T15:37:30Z</time>
      </trkpt>
      <trkpt lat="49.00693" lon="1.11953">
        <ele>128</ele>
        <time>2017-01-29T15:37:34Z</time>
      </trkpt>
      <trkpt lat="49.00688" lon="1.11933">
        <ele>127.923752</ele>
        <time>2017-01-29T15:37:36Z</time>
      </trkpt>
      <trkpt lat="49.00683" lon="1.11913">
        <ele>127.629372</ele>
        <time>2017-01-29T15:37:41Z</time>
      </trkpt>
      <trkpt lat="49.00678" lon="1.1189">
        <ele>127.298126</ele>
        <time>2017-01-29T15:37:46Z</time>
      </trkpt>
      <trkpt lat="49.00673" lon="1.11868">
        <ele>127</ele>
        <time>2017-01-29T15:37:51Z</time>
      </trkpt>
      <trkpt lat="49.00665" lon="1.1184">
        <ele>127</ele>
        <time>2017-01-29T15:37:57Z</time>
      </trkpt>
      <trkpt lat="49.00658" lon="1.1181">
        <ele>127</ele>
        <time>2017-01-29T15:38:01Z</time>
      </trkpt>
      <trkpt lat="49.00653" lon="1.11783">
        <ele>126.761124</ele>
        <time>2017-01-29T15:38:06Z</time>
      </trkpt>
      <trkpt lat="49.00645" lon="1.11755">
        <ele>126.641525</ele>
        <time>2017-01-29T15:38:11Z</time>
      </trkpt>
      <trkpt lat="49.0064" lon="1.11733">
        <ele>126.578308</ele>
        <time>2017-01-29T15:38:13Z</time>
      </trkpt>
      <trkpt lat="49.00635" lon="1.11708">
        <ele>124.864578</ele>
        <time>2017-01-29T15:38:18Z</time>
      </trkpt>
      <trkpt lat="49.00625" lon="1.11678">
        <ele>123.267685</ele>
        <time>2017-01-29T15:38:23Z</time>
      </trkpt>
      <trkpt lat="49.0062" lon="1.11655">
        <ele>120.891251</ele>
        <time>2017-01-29T15:38:26Z</time>
      </trkpt>
      <trkpt lat="49.00615" lon="1.11633">
        <ele>117.478928</ele>
        <time>2017-01-29T15:38:29Z</time>
      </trkpt>
      <trkpt lat="49.00605" lon="1.11618">
        <ele>116.207748</ele>
        <time>2017-01-29T15:38:32Z</time>
      </trkpt>
      <trkpt lat="49.0059" lon="1.11618">
        <ele>118.120438</ele>
        <time>2017-01-29T15:38:35Z</time>
      </trkpt>
      <trkpt lat="49.0057" lon="1.11608">
        <ele>118.765625</ele>
        <time>2017-01-29T15:38:40Z</time>
      </trkpt>
      <trkpt lat="49.0055" lon="1.116">
        <ele>120.139816</ele>
        <time>2017-01-29T15:38:45Z</time>
      </trkpt>
      <trkpt lat="49.00533" lon="1.11598">
        <ele>119.593529</ele>
        <time>2017-01-29T15:38:49Z</time>
      </trkpt>
      <trkpt lat="49.00528" lon="1.1162">
        <ele>120.452232</ele>
        <time>2017-01-29T15:38:55Z</time>
      </trkpt>
      <trkpt lat="49.00523" lon="1.11645">
        <ele>121.140701</ele>
        <time>2017-01-29T15:39:01Z</time>
      </trkpt>
      <trkpt lat="49.0052" lon="1.11673">
        <ele>122.059357</ele>
        <time>2017-01-29T15:39:06Z</time>
      </trkpt>
      <trkpt lat="49.00533" lon="1.11683">
        <ele>123.878304</ele>
        <time>2017-01-29T15:39:16Z</time>
      </trkpt>
      <trkpt lat="49.00553" lon="1.11688">
        <ele>125.352348</ele>
        <time>2017-01-29T15:39:27Z</time>
      </trkpt>
      <trkpt lat="49.00568" lon="1.11693">
        <ele>125.571564</ele>
        <time>2017-01-29T15:39:34Z</time>
      </trkpt>
      <trkpt lat="49.00588" lon="1.1169">
        <ele>125.675804</ele>
        <time>2017-01-29T15:39:40Z</time>
      </trkpt>
      <trkpt lat="49.006" lon="1.11705">
        <ele>125.772385</ele>
        <time>2017-01-29T15:39:45Z</time>
      </trkpt>
      <trkpt lat="49.0061" lon="1.11723">
        <ele>126.386734</ele>
        <time>2017-01-29T15:39:49Z</time>
      </trkpt>
      <trkpt lat="49.00623" lon="1.11735">
        <ele>127</ele>
        <time>2017-01-29T15:39:54Z</time>
      </trkpt>
      <trkpt lat="49.0064" lon="1.11738">
        <ele>126.715752</ele>
        <time>2017-01-29T15:39:57Z</time>
      </trkpt>
      <trkpt lat="49.00658" lon="1.1174">
        <ele>126.022598</ele>
        <time>2017-01-29T15:40:00Z</time>
      </trkpt>
      <trkpt lat="49.00675" lon="1.11745">
        <ele>125.46434</ele>
        <time>2017-01-29T15:40:03Z</time>
      </trkpt>
      <trkpt lat="49.0069" lon="1.11745">
        <ele>124.291939</ele>
        <time>2017-01-29T15:40:06Z</time>
      </trkpt>
      <trkpt lat="49.00708" lon="1.1176">
        <ele>123.876251</ele>
        <time>2017-01-29T15:40:10Z</time>
      </trkpt>
      <trkpt lat="49.00725" lon="1.11768">
        <ele>123.546722</ele>
        <time>2017-01-29T15:40:14Z</time>
      </trkpt>
      <trkpt lat="49.0074" lon="1.11783">
        <ele>124.482986</ele>
        <time>2017-01-29T15:40:17Z</time>
      </trkpt>
      <trkpt lat="49.00755" lon="1.11793">
        <ele>125.295502</ele>
        <time>2017-01-29T15:40:20Z</time>
      </trkpt>
      <trkpt lat="49.00773" lon="1.11795">
        <ele>125.149597</ele>
        <time>2017-01-29T15:40:24Z</time>
      </trkpt>
      <trkpt lat="49.00788" lon="1.11798">
        <ele>124.930176</ele>
        <time>2017-01-29T15:40:28Z</time>
      </trkpt>
      <trkpt lat="49.00805" lon="1.11805">
        <ele>124.635452</ele>
        <time>2017-01-29T15:40:31Z</time>
      </trkpt>
      <trkpt lat="49.00823" lon="1.11813">
        <ele>124.027977</ele>
        <time>2017-01-29T15:40:34Z</time>
      </trkpt>
      <trkpt lat="49.00838" lon="1.11825">
        <ele>123.949562</ele>
        <time>2017-01-29T15:40:37Z</time>
      </trkpt>
      <trkpt lat="49.00853" lon="1.11835">
        <ele>124.122124</ele>
        <time>2017-01-29T15:40:40Z</time>
      </trkpt>
      <trkpt lat="49.00868" lon="1.11845">
        <ele>124.218697</ele>
        <time>2017-01-29T15:40:43Z</time>
      </trkpt>
      <trkpt lat="49.0088" lon="1.11855">
        <ele>124.65657</ele>
        <time>2017-01-29T15:40:46Z</time>
      </trkpt>
      <trkpt lat="49.00893" lon="1.11868">
        <ele>125.583824</ele>
        <time>2017-01-29T15:40:50Z</time>
      </trkpt>
      <trkpt lat="49.00908" lon="1.11873">
        <ele>124.894783</ele>
        <time>2017-01-29T15:40:56Z</time>
      </trkpt>
      <trkpt lat="49.00923" lon="1.11883">
        <ele>123.851089</ele>
        <time>2017-01-29T15:41:03Z</time>
      </trkpt>
      <trkpt lat="49.00933" lon="1.11898">
        <ele>123.795547</ele>
        <time>2017-01-29T15:51:46Z</time>
      </trkpt>
      <trkpt lat="49.0094" lon="1.11915">
        <ele>124.360306</ele>
        <time>2017-01-29T15:52:21Z</time>
      </trkpt>
      <trkpt lat="49.00945" lon="1.11938">
        <ele>125.209999</ele>
        <time>2017-01-29T15:52:28Z</time>
      </trkpt>
      <trkpt lat="49.00953" lon="1.11958">
        <ele>124.855972</ele>
        <time>2017-01-29T15:52:34Z</time>
      </trkpt>
      <trkpt lat="49.00958" lon="1.11983">
        <ele>124.639801</ele>
        <time>2017-01-29T15:52:41Z</time>
      </trkpt>
      <trkpt lat="49.00963" lon="1.12008">
        <ele>124.353752</ele>
        <time>2017-01-29T15:52:48Z</time>
      </trkpt>
      <trkpt lat="49.00968" lon="1.1203">
        <ele>123.802498</ele>
        <time>2017-01-29T15:52:54Z</time>
      </trkpt>
      <trkpt lat="49.00973" lon="1.1205">
        <ele>123.298126</ele>
        <time>2017-01-29T15:52:58Z</time>
      </trkpt>
      <trkpt lat="49.0098" lon="1.12068">
        <ele>122.709999</ele>
        <time>2017-01-29T15:53:05Z</time>
      </trkpt>
      <trkpt lat="49.00993" lon="1.1208">
        <ele>122.160004</ele>
        <time>2017-01-29T15:53:11Z</time>
      </trkpt>
      <trkpt lat="49.01005" lon="1.1209">
        <ele>121.610001</ele>
        <time>2017-01-29T15:53:14Z</time>
      </trkpt>
      <trkpt lat="49.01023" lon="1.121">
        <ele>120.839996</ele>
        <time>2017-01-29T15:53:18Z</time>
      </trkpt>
      <trkpt lat="49.01038" lon="1.12115">
        <ele>120.18</ele>
        <time>2017-01-29T15:53:22Z</time>
      </trkpt>
      <trkpt lat="49.01053" lon="1.12123">
        <ele>119.958656</ele>
        <time>2017-01-29T15:53:26Z</time>
      </trkpt>
      <trkpt lat="49.0107" lon="1.12133">
        <ele>119.989372</ele>
        <time>2017-01-29T15:53:30Z</time>
      </trkpt>
      <trkpt lat="49.01083" lon="1.12143">
        <ele>120.12104</ele>
        <time>2017-01-29T15:53:32Z</time>
      </trkpt>
      <trkpt lat="49.01095" lon="1.12153">
        <ele>120.593704</ele>
        <time>2017-01-29T15:53:36Z</time>
      </trkpt>
      <trkpt lat="49.0111" lon="1.12163">
        <ele>121.241577</ele>
        <time>2017-01-29T15:53:40Z</time>
      </trkpt>
      <trkpt lat="49.01128" lon="1.12175">
        <ele>121.862503</ele>
        <time>2017-01-29T15:53:45Z</time>
      </trkpt>
      <trkpt lat="49.0114" lon="1.12185">
        <ele>122.175003</ele>
        <time>2017-01-29T15:53:48Z</time>
      </trkpt>
      <trkpt lat="49.01155" lon="1.12195">
        <ele>122.510002</ele>
        <time>2017-01-29T15:53:53Z</time>
      </trkpt>
      <trkpt lat="49.01168" lon="1.12205">
        <ele>122.801796</ele>
        <time>2017-01-29T15:53:57Z</time>
      </trkpt>
      <trkpt lat="49.01183" lon="1.12213">
        <ele>123</ele>
        <time>2017-01-29T15:54:01Z</time>
      </trkpt>
      <trkpt lat="49.01195" lon="1.12223">
        <ele>123</ele>
        <time>2017-01-29T15:54:05Z</time>
      </trkpt>
      <trkpt lat="49.01208" lon="1.12233">
        <ele>123</ele>
        <time>2017-01-29T15:54:09Z</time>
      </trkpt>
      <trkpt lat="49.0123" lon="1.12248">
        <ele>122.834999</ele>
        <time>2017-01-29T15:54:14Z</time>
      </trkpt>
      <trkpt lat="49.01245" lon="1.12258">
        <ele>122.504997</ele>
        <time>2017-01-29T15:54:18Z</time>
      </trkpt>
      <trkpt lat="49.0127" lon="1.12273">
        <ele>121.849998</ele>
        <time>2017-01-29T15:54:24Z</time>
      </trkpt>
      <trkpt lat="49.01285" lon="1.12278">
        <ele>120.860001</ele>
        <time>2017-01-29T15:54:28Z</time>
      </trkpt>
      <trkpt lat="49.01298" lon="1.12288">
        <ele>120.019997</ele>
        <time>2017-01-29T15:54:30Z</time>
      </trkpt>
      <trkpt lat="49.01308" lon="1.12303">
        <ele>119.375</ele>
        <time>2017-01-29T15:54:34Z</time>
      </trkpt>
      <trkpt lat="49.01318" lon="1.12323">
        <ele>118.306503</ele>
        <time>2017-01-29T15:54:37Z</time>
      </trkpt>
      <trkpt lat="49.01328" lon="1.12343">
        <ele>116.841072</ele>
        <time>2017-01-29T15:54:41Z</time>
      </trkpt>
      <trkpt lat="49.01345" lon="1.12355">
        <ele>114.334503</ele>
        <time>2017-01-29T15:54:45Z</time>
      </trkpt>
      <trkpt lat="49.01365" lon="1.12375">
        <ele>111.183189</ele>
        <time>2017-01-29T15:54:50Z</time>
      </trkpt>
      <trkpt lat="49.01378" lon="1.1239">
        <ele>108.650131</ele>
        <time>2017-01-29T15:54:53Z</time>
      </trkpt>
      <trkpt lat="49.0139" lon="1.12408">
        <ele>106.063187</ele>
        <time>2017-01-29T15:54:55Z</time>
      </trkpt>
      <trkpt lat="49.01403" lon="1.12425">
        <ele>103.336723</ele>
        <time>2017-01-29T15:54:59Z</time>
      </trkpt>
      <trkpt lat="49.0141" lon="1.12443">
        <ele>101.579765</ele>
        <time>2017-01-29T15:55:03Z</time>
      </trkpt>
      <trkpt lat="49.0142" lon="1.12465">
        <ele>99.195084</ele>
        <time>2017-01-29T15:55:07Z</time>
      </trkpt>
      <trkpt lat="49.01428" lon="1.1249">
        <ele>98.123749</ele>
        <time>2017-01-29T15:55:10Z</time>
      </trkpt>
      <trkpt lat="49.01438" lon="1.1251">
        <ele>96.296249</ele>
        <time>2017-01-29T15:55:13Z</time>
      </trkpt>
      <trkpt lat="49.01445" lon="1.12528">
        <ele>95.053749</ele>
        <time>2017-01-29T15:55:16Z</time>
      </trkpt>
      <trkpt lat="49.01458" lon="1.12545">
        <ele>92.970398</ele>
        <time>2017-01-29T15:55:20Z</time>
      </trkpt>
      <trkpt lat="49.01465" lon="1.12565">
        <ele>92.2575</ele>
        <time>2017-01-29T15:55:23Z</time>
      </trkpt>
      <trkpt lat="49.0147" lon="1.1259">
        <ele>92.268913</ele>
        <time>2017-01-29T15:55:26Z</time>
      </trkpt>
      <trkpt lat="49.01473" lon="1.12615">
        <ele>92.520248</ele>
        <time>2017-01-29T15:55:28Z</time>
      </trkpt>
      <trkpt lat="49.01473" lon="1.12643">
        <ele>93.257919</ele>
        <time>2017-01-29T15:55:32Z</time>
      </trkpt>
      <trkpt lat="49.01478" lon="1.12663">
        <ele>92.292259</ele>
        <time>2017-01-29T15:55:35Z</time>
      </trkpt>
      <trkpt lat="49.01478" lon="1.12685">
        <ele>93.06897</ele>
        <time>2017-01-29T15:55:39Z</time>
      </trkpt>
      <trkpt lat="49.0148" lon="1.12708">
        <ele>93.295784</ele>
        <time>2017-01-29T15:55:43Z</time>
      </trkpt>
      <trkpt lat="49.01485" lon="1.1273">
        <ele>92.891922</ele>
        <time>2017-01-29T15:55:49Z</time>
      </trkpt>
      <trkpt lat="49.01488" lon="1.12753">
        <ele>92.842499</ele>
        <time>2017-01-29T15:55:54Z</time>
      </trkpt>
      <trkpt lat="49.01488" lon="1.12778">
        <ele>93.268127</ele>
        <time>2017-01-29T15:56:00Z</time>
      </trkpt>
      <trkpt lat="49.01488" lon="1.12808">
        <ele>93.737503</ele>
        <time>2017-01-29T15:56:05Z</time>
      </trkpt>
      <trkpt lat="49.01488" lon="1.1283">
        <ele>92.809372</ele>
        <time>2017-01-29T15:56:09Z</time>
      </trkpt>
      <trkpt lat="49.01488" lon="1.12853">
        <ele>91.881248</ele>
        <time>2017-01-29T15:56:14Z</time>
      </trkpt>
      <trkpt lat="49.01485" lon="1.12885">
        <ele>91.150085</ele>
        <time>2017-01-29T15:56:19Z</time>
      </trkpt>
      <trkpt lat="49.01488" lon="1.12908">
        <ele>89.405914</ele>
        <time>2017-01-29T15:56:23Z</time>
      </trkpt>
      <trkpt lat="49.01493" lon="1.1293">
        <ele>87.099777</ele>
        <time>2017-01-29T15:56:28Z</time>
      </trkpt>
      <trkpt lat="49.01495" lon="1.12955">
        <ele>86.812965</ele>
        <time>2017-01-29T15:56:35Z</time>
      </trkpt>
      <trkpt lat="49.01495" lon="1.1298">
        <ele>88.781174</ele>
        <time>2017-01-29T15:56:46Z</time>
      </trkpt>
      <trkpt lat="49.0148" lon="1.1298">
        <ele>92.230553</ele>
        <time>2017-01-29T15:56:51Z</time>
      </trkpt>
      <trkpt lat="49.01463" lon="1.12978">
        <ele>96.089691</ele>
        <time>2017-01-29T15:57:27Z</time>
      </trkpt>
      <trkpt lat="49.01465" lon="1.13003">
        <ele>97.684013</ele>
        <time>2017-01-29T15:57:31Z</time>
      </trkpt>
      <trkpt lat="49.0147" lon="1.13023">
        <ele>98.610573</ele>
        <time>2017-01-29T15:57:36Z</time>
      </trkpt>
      <trkpt lat="49.01475" lon="1.13048">
        <ele>100.412109</ele>
        <time>2017-01-29T15:57:42Z</time>
      </trkpt>
      <trkpt lat="49.01478" lon="1.13073">
        <ele>102.756493</ele>
        <time>2017-01-29T15:58:14Z</time>
      </trkpt>
      <trkpt lat="49.01485" lon="1.1309">
        <ele>102.160065</ele>
        <time>2017-01-29T15:58:20Z</time>
      </trkpt>
      <trkpt lat="49.01488" lon="1.13115">
        <ele>103.138504</ele>
        <time>2017-01-29T15:58:28Z</time>
      </trkpt>
      <trkpt lat="49.0149" lon="1.13138">
        <ele>104.024376</ele>
        <time>2017-01-29T15:58:34Z</time>
      </trkpt>
      <trkpt lat="49.01488" lon="1.1316">
        <ele>105.693077</ele>
        <time>2017-01-29T15:58:39Z</time>
      </trkpt>
      <trkpt lat="49.01485" lon="1.13183">
        <ele>106.877869</ele>
        <time>2017-01-29T15:58:45Z</time>
      </trkpt>
      <trkpt lat="49.01485" lon="1.13208">
        <ele>107.525551</ele>
        <time>2017-01-29T15:58:54Z</time>
      </trkpt>
      <trkpt lat="49.01485" lon="1.1323">
        <ele>108.037148</ele>
        <time>2017-01-29T15:59:00Z</time>
      </trkpt>
      <trkpt lat="49.0148" lon="1.13253">
        <ele>109.518753</ele>
        <time>2017-01-29T15:59:06Z</time>
      </trkpt>
      <trkpt lat="49.0148" lon="1.13275">
        <ele>109.889641</ele>
        <time>2017-01-29T15:59:12Z</time>
      </trkpt>
      <trkpt lat="49.01483" lon="1.13298">
        <ele>109.795937</ele>
        <time>2017-01-29T15:59:18Z</time>
      </trkpt>
      <trkpt lat="49.01485" lon="1.1332">
        <ele>109.810501</ele>
        <time>2017-01-29T15:59:24Z</time>
      </trkpt>
      <trkpt lat="49.01483" lon="1.13343">
        <ele>110.583824</ele>
        <time>2017-01-29T15:59:30Z</time>
      </trkpt>
      <trkpt lat="49.0148" lon="1.13368">
        <ele>111.245888</ele>
        <time>2017-01-29T15:59:36Z</time>
      </trkpt>
      <trkpt lat="49.01483" lon="1.1339">
        <ele>111.129562</ele>
        <time>2017-01-29T15:59:42Z</time>
      </trkpt>
      <trkpt lat="49.01493" lon="1.13408">
        <ele>110.119949</ele>
        <time>2017-01-29T15:59:47Z</time>
      </trkpt>
      <trkpt lat="49.01508" lon="1.1342">
        <ele>107.927002</ele>
        <time>2017-01-29T15:59:52Z</time>
      </trkpt>
      <trkpt lat="49.01513" lon="1.1344">
        <ele>106.562279</ele>
        <time>2017-01-29T15:59:56Z</time>
      </trkpt>
      <trkpt lat="49.01518" lon="1.1346">
        <ele>105.434814</ele>
        <time>2017-01-29T15:59:59Z</time>
      </trkpt>
      <trkpt lat="49.0152" lon="1.13483">
        <ele>105.156723</ele>
        <time>2017-01-29T16:00:04Z</time>
      </trkpt>
      <trkpt lat="49.01525" lon="1.13505">
        <ele>103.644997</ele>
        <time>2017-01-29T16:00:08Z</time>
      </trkpt>
      <trkpt lat="49.01533" lon="1.1353">
        <ele>101.092499</ele>
        <time>2017-01-29T16:00:12Z</time>
      </trkpt>
      <trkpt lat="49.01535" lon="1.13555">
        <ele>99.809998</ele>
        <time>2017-01-29T16:00:16Z</time>
      </trkpt>
      <trkpt lat="49.01535" lon="1.13593">
        <ele>99.155594</ele>
        <time>2017-01-29T16:00:22Z</time>
      </trkpt>
      <trkpt lat="49.01528" lon="1.13613">
        <ele>100.497353</ele>
        <time>2017-01-29T16:00:24Z</time>
      </trkpt>
      <trkpt lat="49.0153" lon="1.13635">
        <ele>100.371872</ele>
        <time>2017-01-29T16:00:30Z</time>
      </trkpt>
      <trkpt lat="49.01543" lon="1.13648">
        <ele>98.559372</ele>
        <time>2017-01-29T16:00:35Z</time>
      </trkpt>
      <trkpt lat="49.01555" lon="1.13658">
        <ele>96.7313</ele>
        <time>2017-01-29T16:00:39Z</time>
      </trkpt>
      <trkpt lat="49.01563" lon="1.13678">
        <ele>96.615349</ele>
        <time>2017-01-29T16:00:46Z</time>
      </trkpt>
      <trkpt lat="49.0158" lon="1.1368">
        <ele>93.228798</ele>
        <time>2017-01-29T16:00:50Z</time>
      </trkpt>
      <trkpt lat="49.01615" lon="1.13693">
        <ele>87.962952</ele>
        <time>2017-01-29T16:00:54Z</time>
      </trkpt>
      <trkpt lat="49.0163" lon="1.13695">
        <ele>86.405937</ele>
        <time>2017-01-29T16:00:58Z</time>
      </trkpt>
      <trkpt lat="49.01648" lon="1.1368">
        <ele>83.708069</ele>
        <time>2017-01-29T16:01:00Z</time>
      </trkpt>
      <trkpt lat="49.01648" lon="1.13653">
        <ele>83.151199</ele>
        <time>2017-01-29T16:01:05Z</time>
      </trkpt>
      <trkpt lat="49.01648" lon="1.13628">
        <ele>82.63385</ele>
        <time>2017-01-29T16:01:07Z</time>
      </trkpt>
      <trkpt lat="49.01645" lon="1.13588">
        <ele>80.550125</ele>
        <time>2017-01-29T16:01:13Z</time>
      </trkpt>
      <trkpt lat="49.01645" lon="1.13563">
        <ele>78.792061</ele>
        <time>2017-01-29T16:01:16Z</time>
      </trkpt>
      <trkpt lat="49.01645" lon="1.1354">
        <ele>77.41021</ele>
        <time>2017-01-29T16:01:19Z</time>
      </trkpt>
      <trkpt lat="49.01645" lon="1.13515">
        <ele>75.998978</ele>
        <time>2017-01-29T16:01:23Z</time>
      </trkpt>
      <trkpt lat="49.01645" lon="1.13493">
        <ele>74.731354</ele>
        <time>2017-01-29T16:01:51Z</time>
      </trkpt>
      <trkpt lat="49.0165" lon="1.13473">
        <ele>73.777267</ele>
        <time>2017-01-29T16:01:56Z</time>
      </trkpt>
      <trkpt lat="49.01653" lon="1.1345">
        <ele>73.368095</ele>
        <time>2017-01-29T16:02:00Z</time>
      </trkpt>
      <trkpt lat="49.01655" lon="1.13425">
        <ele>72.877129</ele>
        <time>2017-01-29T16:02:04Z</time>
      </trkpt>
      <trkpt lat="49.0166" lon="1.13398">
        <ele>72.135124</ele>
        <time>2017-01-29T16:02:08Z</time>
      </trkpt>
      <trkpt lat="49.01665" lon="1.13375">
        <ele>71.572502</ele>
        <time>2017-01-29T16:02:11Z</time>
      </trkpt>
      <trkpt lat="49.0167" lon="1.1335">
        <ele>71.15554</ele>
        <time>2017-01-29T16:02:14Z</time>
      </trkpt>
      <trkpt lat="49.01675" lon="1.13328">
        <ele>70.177155</ele>
        <time>2017-01-29T16:02:17Z</time>
      </trkpt>
      <trkpt lat="49.0168" lon="1.13305">
        <ele>69.028572</ele>
        <time>2017-01-29T16:02:20Z</time>
      </trkpt>
      <trkpt lat="49.01685" lon="1.1328">
        <ele>67.940002</ele>
        <time>2017-01-29T16:02:23Z</time>
      </trkpt>
      <trkpt lat="49.01693" lon="1.13255">
        <ele>67.769997</ele>
        <time>2017-01-29T16:02:26Z</time>
      </trkpt>
      <trkpt lat="49.01703" lon="1.13235">
        <ele>67.544998</ele>
        <time>2017-01-29T16:02:29Z</time>
      </trkpt>
      <trkpt lat="49.0171" lon="1.13213">
        <ele>67.370003</ele>
        <time>2017-01-29T16:02:32Z</time>
      </trkpt>
      <trkpt lat="49.01718" lon="1.13195">
        <ele>66.958122</ele>
        <time>2017-01-29T16:02:34Z</time>
      </trkpt>
      <trkpt lat="49.0173" lon="1.13168">
        <ele>66.329399</ele>
        <time>2017-01-29T16:02:38Z</time>
      </trkpt>
      <trkpt lat="49.01745" lon="1.1314">
        <ele>66</ele>
        <time>2017-01-29T16:02:42Z</time>
      </trkpt>
      <trkpt lat="49.01763" lon="1.13108">
        <ele>66</ele>
        <time>2017-01-29T16:02:47Z</time>
      </trkpt>
      <trkpt lat="49.01775" lon="1.13088">
        <ele>65.894997</ele>
        <time>2017-01-29T16:02:50Z</time>
      </trkpt>
      <trkpt lat="49.01788" lon="1.1307">
        <ele>65.614998</ele>
        <time>2017-01-29T16:02:53Z</time>
      </trkpt>
      <trkpt lat="49.01805" lon="1.1305">
        <ele>65.220001</ele>
        <time>2017-01-29T16:02:57Z</time>
      </trkpt>
      <trkpt lat="49.01818" lon="1.13035">
        <ele>65</ele>
        <time>2017-01-29T16:03:00Z</time>
      </trkpt>
      <trkpt lat="49.01848" lon="1.12995">
        <ele>65</ele>
        <time>2017-01-29T16:03:07Z</time>
      </trkpt>
      <trkpt lat="49.01863" lon="1.1298">
        <ele>65</ele>
        <time>2017-01-29T16:03:10Z</time>
      </trkpt>
      <trkpt lat="49.01878" lon="1.12968">
        <ele>65</ele>
        <time>2017-01-29T16:03:13Z</time>
      </trkpt>
      <trkpt lat="49.01903" lon="1.12945">
        <ele>65</ele>
        <time>2017-01-29T16:03:17Z</time>
      </trkpt>
      <trkpt lat="49.01948" lon="1.12908">
        <ele>65</ele>
        <time>2017-01-29T16:03:27Z</time>
      </trkpt>
      <trkpt lat="49.0197" lon="1.1289">
        <ele>65</ele>
        <time>2017-01-29T16:03:30Z</time>
      </trkpt>
      <trkpt lat="49.01993" lon="1.12873">
        <ele>65</ele>
        <time>2017-01-29T16:03:35Z</time>
      </trkpt>
      <trkpt lat="49.02005" lon="1.1286">
        <ele>65</ele>
        <time>2017-01-29T16:03:38Z</time>
      </trkpt>
      <trkpt lat="49.0204" lon="1.12828">
        <ele>65</ele>
        <time>2017-01-29T16:03:45Z</time>
      </trkpt>
      <trkpt lat="49.02063" lon="1.12805">
        <ele>65</ele>
        <time>2017-01-29T16:03:48Z</time>
      </trkpt>
      <trkpt lat="49.02083" lon="1.12783">
        <ele>64.832939</ele>
        <time>2017-01-29T16:03:52Z</time>
      </trkpt>
      <trkpt lat="49.02098" lon="1.12768">
        <ele>64.406754</ele>
        <time>2017-01-29T16:03:56Z</time>
      </trkpt>
      <trkpt lat="49.02115" lon="1.12748">
        <ele>64.087814</ele>
        <time>2017-01-29T16:04:00Z</time>
      </trkpt>
      <trkpt lat="49.02128" lon="1.12728">
        <ele>64</ele>
        <time>2017-01-29T16:04:03Z</time>
      </trkpt>
      <trkpt lat="49.0214" lon="1.1271">
        <ele>64</ele>
        <time>2017-01-29T16:04:06Z</time>
      </trkpt>
      <trkpt lat="49.02173" lon="1.12663">
        <ele>63.994598</ele>
        <time>2017-01-29T16:04:14Z</time>
      </trkpt>
      <trkpt lat="49.0219" lon="1.1263">
        <ele>64.153999</ele>
        <time>2017-01-29T16:04:20Z</time>
      </trkpt>
      <trkpt lat="49.02203" lon="1.1261">
        <ele>64.462639</ele>
        <time>2017-01-29T16:04:22Z</time>
      </trkpt>
      <trkpt lat="49.02223" lon="1.12578">
        <ele>65</ele>
        <time>2017-01-29T16:04:28Z</time>
      </trkpt>
      <trkpt lat="49.02238" lon="1.1255">
        <ele>65</ele>
        <time>2017-01-29T16:04:33Z</time>
      </trkpt>
      <trkpt lat="49.0225" lon="1.12535">
        <ele>65</ele>
        <time>2017-01-29T16:04:36Z</time>
      </trkpt>
      <trkpt lat="49.0226" lon="1.1252">
        <ele>65</ele>
        <time>2017-01-29T16:04:39Z</time>
      </trkpt>
      <trkpt lat="49.02273" lon="1.125">
        <ele>65.069557</ele>
        <time>2017-01-29T16:04:42Z</time>
      </trkpt>
      <trkpt lat="49.02285" lon="1.12485">
        <ele>65.259232</ele>
        <time>2017-01-29T16:04:46Z</time>
      </trkpt>
      <trkpt lat="49.02308" lon="1.12458">
        <ele>65.850105</ele>
        <time>2017-01-29T16:04:52Z</time>
      </trkpt>
      <trkpt lat="49.02328" lon="1.12435">
        <ele>66.085159</ele>
        <time>2017-01-29T16:04:57Z</time>
      </trkpt>
      <trkpt lat="49.02353" lon="1.12408">
        <ele>66.60006</ele>
        <time>2017-01-29T16:05:03Z</time>
      </trkpt>
      <trkpt lat="49.02378" lon="1.12388">
        <ele>66.945343</ele>
        <time>2017-01-29T16:05:08Z</time>
      </trkpt>
      <trkpt lat="49.02403" lon="1.12368">
        <ele>67.677689</ele>
        <time>2017-01-29T16:05:13Z</time>
      </trkpt>
      <trkpt lat="49.0242" lon="1.12358">
        <ele>68.494576</ele>
        <time>2017-01-29T16:05:16Z</time>
      </trkpt>
      <trkpt lat="49.02438" lon="1.12348">
        <ele>69.210152</ele>
        <time>2017-01-29T16:05:20Z</time>
      </trkpt>
      <trkpt lat="49.02455" lon="1.12338">
        <ele>69.772781</ele>
        <time>2017-01-29T16:05:24Z</time>
      </trkpt>
      <trkpt lat="49.02473" lon="1.1233">
        <ele>69.985519</ele>
        <time>2017-01-29T16:05:28Z</time>
      </trkpt>
      <trkpt lat="49.02498" lon="1.1232">
        <ele>70.355003</ele>
        <time>2017-01-29T16:05:33Z</time>
      </trkpt>
      <trkpt lat="49.0252" lon="1.12315">
        <ele>70.855003</ele>
        <time>2017-01-29T16:05:37Z</time>
      </trkpt>
      <trkpt lat="49.02548" lon="1.1231">
        <ele>71.470001</ele>
        <time>2017-01-29T16:05:42Z</time>
      </trkpt>
      <trkpt lat="49.02575" lon="1.12308">
        <ele>72</ele>
        <time>2017-01-29T16:05:47Z</time>
      </trkpt>
      <trkpt lat="49.02593" lon="1.1231">
        <ele>72</ele>
        <time>2017-01-29T16:05:50Z</time>
      </trkpt>
      <trkpt lat="49.0261" lon="1.1231">
        <ele>72</ele>
        <time>2017-01-29T16:05:53Z</time>
      </trkpt>
      <trkpt lat="49.02635" lon="1.12313">
        <ele>72.76516</ele>
        <time>2017-01-29T16:05:57Z</time>
      </trkpt>
      <trkpt lat="49.02653" lon="1.12315">
        <ele>73.450005</ele>
        <time>2017-01-29T16:06:00Z</time>
      </trkpt>
      <trkpt lat="49.02673" lon="1.12318">
        <ele>74.386253</ele>
        <time>2017-01-29T16:06:04Z</time>
      </trkpt>
      <trkpt lat="49.02735" lon="1.1233">
        <ele>76.653374</ele>
        <time>2017-01-29T16:06:15Z</time>
      </trkpt>
      <trkpt lat="49.02758" lon="1.12333">
        <ele>77.455002</ele>
        <time>2017-01-29T16:06:18Z</time>
      </trkpt>
      <trkpt lat="49.02775" lon="1.12335">
        <ele>78.440002</ele>
        <time>2017-01-29T16:06:22Z</time>
      </trkpt>
      <trkpt lat="49.028" lon="1.12338">
        <ele>79.868385</ele>
        <time>2017-01-29T16:06:27Z</time>
      </trkpt>
      <trkpt lat="49.02823" lon="1.12343">
        <ele>80.717201</ele>
        <time>2017-01-29T16:06:31Z</time>
      </trkpt>
      <trkpt lat="49.0284" lon="1.12348">
        <ele>81.448174</ele>
        <time>2017-01-29T16:06:34Z</time>
      </trkpt>
      <trkpt lat="49.0286" lon="1.1235">
        <ele>81.849998</ele>
        <time>2017-01-29T16:06:37Z</time>
      </trkpt>
      <trkpt lat="49.02878" lon="1.12353">
        <ele>82.154999</ele>
        <time>2017-01-29T16:06:40Z</time>
      </trkpt>
      <trkpt lat="49.02898" lon="1.12355">
        <ele>82.979683</ele>
        <time>2017-01-29T16:06:42Z</time>
      </trkpt>
      <trkpt lat="49.02913" lon="1.1236">
        <ele>83.815437</ele>
        <time>2017-01-29T16:06:46Z</time>
      </trkpt>
      <trkpt lat="49.0293" lon="1.12363">
        <ele>84.920944</ele>
        <time>2017-01-29T16:06:49Z</time>
      </trkpt>
      <trkpt lat="49.02958" lon="1.12368">
        <ele>86.554565</ele>
        <time>2017-01-29T16:06:54Z</time>
      </trkpt>
      <trkpt lat="49.0298" lon="1.12373">
        <ele>87.620628</ele>
        <time>2017-01-29T16:06:58Z</time>
      </trkpt>
      <trkpt lat="49.03" lon="1.12375">
        <ele>87.936249</ele>
        <time>2017-01-29T16:07:02Z</time>
      </trkpt>
      <trkpt lat="49.0302" lon="1.1238">
        <ele>88.141251</ele>
        <time>2017-01-29T16:07:06Z</time>
      </trkpt>
      <trkpt lat="49.03038" lon="1.12383">
        <ele>87.926903</ele>
        <time>2017-01-29T16:07:10Z</time>
      </trkpt>
      <trkpt lat="49.03058" lon="1.1238">
        <ele>87.898926</ele>
        <time>2017-01-29T16:07:13Z</time>
      </trkpt>
      <trkpt lat="49.03093" lon="1.1238">
        <ele>87.209999</ele>
        <time>2017-01-29T16:07:18Z</time>
      </trkpt>
      <trkpt lat="49.0311" lon="1.1238">
        <ele>86.800003</ele>
        <time>2017-01-29T16:07:21Z</time>
      </trkpt>
      <trkpt lat="49.03125" lon="1.12378">
        <ele>86.284996</ele>
        <time>2017-01-29T16:07:24Z</time>
      </trkpt>
      <trkpt lat="49.03143" lon="1.12373">
        <ele>85.775002</ele>
        <time>2017-01-29T16:07:27Z</time>
      </trkpt>
      <trkpt lat="49.03158" lon="1.1237">
        <ele>85.235329</ele>
        <time>2017-01-29T16:07:30Z</time>
      </trkpt>
      <trkpt lat="49.03175" lon="1.12363">
        <ele>84.886345</ele>
        <time>2017-01-29T16:07:33Z</time>
      </trkpt>
      <trkpt lat="49.0319" lon="1.12355">
        <ele>84.595146</ele>
        <time>2017-01-29T16:07:35Z</time>
      </trkpt>
      <trkpt lat="49.03208" lon="1.12348">
        <ele>84.087502</ele>
        <time>2017-01-29T16:07:39Z</time>
      </trkpt>
      <trkpt lat="49.03225" lon="1.1234">
        <ele>83.332497</ele>
        <time>2017-01-29T16:07:41Z</time>
      </trkpt>
      <trkpt lat="49.03243" lon="1.1233">
        <ele>82.724998</ele>
        <time>2017-01-29T16:07:45Z</time>
      </trkpt>
      <trkpt lat="49.0326" lon="1.12318">
        <ele>82.680763</ele>
        <time>2017-01-29T16:07:47Z</time>
      </trkpt>
      <trkpt lat="49.03275" lon="1.12305">
        <ele>82.480911</ele>
        <time>2017-01-29T16:07:51Z</time>
      </trkpt>
      <trkpt lat="49.03293" lon="1.12293">
        <ele>82.079948</ele>
        <time>2017-01-29T16:07:54Z</time>
      </trkpt>
      <trkpt lat="49.03308" lon="1.1228">
        <ele>83.350655</ele>
        <time>2017-01-29T16:07:56Z</time>
      </trkpt>
      <trkpt lat="49.03323" lon="1.12265">
        <ele>84.288437</ele>
        <time>2017-01-29T16:07:59Z</time>
      </trkpt>
      <trkpt lat="49.0334" lon="1.12248">
        <ele>85.091904</ele>
        <time>2017-01-29T16:08:03Z</time>
      </trkpt>
      <trkpt lat="49.03355" lon="1.1223">
        <ele>85.283623</ele>
        <time>2017-01-29T16:08:06Z</time>
      </trkpt>
      <trkpt lat="49.0337" lon="1.12213">
        <ele>84.022293</ele>
        <time>2017-01-29T16:08:09Z</time>
      </trkpt>
      <trkpt lat="49.03388" lon="1.12193">
        <ele>84.125282</ele>
        <time>2017-01-29T16:08:13Z</time>
      </trkpt>
      <trkpt lat="49.034" lon="1.12175">
        <ele>84.191528</ele>
        <time>2017-01-29T16:08:16Z</time>
      </trkpt>
      <trkpt lat="49.0341" lon="1.12155">
        <ele>84.082687</ele>
        <time>2017-01-29T16:08:19Z</time>
      </trkpt>
      <trkpt lat="49.03423" lon="1.12138">
        <ele>84.535004</ele>
        <time>2017-01-29T16:08:22Z</time>
      </trkpt>
      <trkpt lat="49.03438" lon="1.1211">
        <ele>87.382896</ele>
        <time>2017-01-29T16:08:27Z</time>
      </trkpt>
      <trkpt lat="49.03445" lon="1.12093">
        <ele>88.81881</ele>
        <time>2017-01-29T16:08:30Z</time>
      </trkpt>
      <trkpt lat="49.03455" lon="1.12073">
        <ele>90.347198</ele>
        <time>2017-01-29T16:08:34Z</time>
      </trkpt>
      <trkpt lat="49.03468" lon="1.12053">
        <ele>91.723747</ele>
        <time>2017-01-29T16:08:37Z</time>
      </trkpt>
      <trkpt lat="49.03478" lon="1.12035">
        <ele>91.946136</ele>
        <time>2017-01-29T16:08:42Z</time>
      </trkpt>
      <trkpt lat="49.03485" lon="1.12018">
        <ele>92.041748</ele>
        <time>2017-01-29T16:08:45Z</time>
      </trkpt>
      <trkpt lat="49.03495" lon="1.12">
        <ele>91.961098</ele>
        <time>2017-01-29T16:08:48Z</time>
      </trkpt>
      <trkpt lat="49.03508" lon="1.11978">
        <ele>91.705841</ele>
        <time>2017-01-29T16:08:52Z</time>
      </trkpt>
      <trkpt lat="49.03518" lon="1.1196">
        <ele>91.293129</ele>
        <time>2017-01-29T16:08:55Z</time>
      </trkpt>
      <trkpt lat="49.03533" lon="1.11935">
        <ele>90.547096</ele>
        <time>2017-01-29T16:08:58Z</time>
      </trkpt>
      <trkpt lat="49.03555" lon="1.119">
        <ele>88.490318</ele>
        <time>2017-01-29T16:09:05Z</time>
      </trkpt>
      <trkpt lat="49.03568" lon="1.11875">
        <ele>91.565208</ele>
        <time>2017-01-29T16:09:09Z</time>
      </trkpt>
      <trkpt lat="49.03578" lon="1.1186">
        <ele>94.089767</ele>
        <time>2017-01-29T16:09:11Z</time>
      </trkpt>
      <trkpt lat="49.0359" lon="1.1185">
        <ele>96.669563</ele>
        <time>2017-01-29T16:09:19Z</time>
      </trkpt>
      <trkpt lat="49.03593" lon="1.11873">
        <ele>98.733315</ele>
        <time>2017-01-29T16:09:30Z</time>
      </trkpt>
      <trkpt lat="49.03598" lon="1.11893">
        <ele>100.11393</ele>
        <time>2017-01-29T16:09:37Z</time>
      </trkpt>
      <trkpt lat="49.03603" lon="1.11913">
        <ele>101.490898</ele>
        <time>2017-01-29T16:10:20Z</time>
      </trkpt>
      <trkpt lat="49.0361" lon="1.11933">
        <ele>103.572502</ele>
        <time>2017-01-29T16:10:29Z</time>
      </trkpt>
      <trkpt lat="49.03618" lon="1.11953">
        <ele>105.518127</ele>
        <time>2017-01-29T16:10:36Z</time>
      </trkpt>
      <trkpt lat="49.03625" lon="1.11973">
        <ele>107.303123</ele>
        <time>2017-01-29T16:10:43Z</time>
      </trkpt>
      <trkpt lat="49.0363" lon="1.11993">
        <ele>108.373749</ele>
        <time>2017-01-29T16:10:49Z</time>
      </trkpt>
      <trkpt lat="49.03638" lon="1.12015">
        <ele>110.274269</ele>
        <time>2017-01-29T16:10:54Z</time>
      </trkpt>
      <trkpt lat="49.03643" lon="1.12038">
        <ele>111.604126</ele>
        <time>2017-01-29T16:11:00Z</time>
      </trkpt>
      <trkpt lat="49.03648" lon="1.12058">
        <ele>113.066132</ele>
        <time>2017-01-29T16:11:04Z</time>
      </trkpt>
      <trkpt lat="49.03658" lon="1.1209">
        <ele>115.663048</ele>
        <time>2017-01-29T16:11:12Z</time>
      </trkpt>
      <trkpt lat="49.03663" lon="1.1211">
        <ele>116.923592</ele>
        <time>2017-01-29T16:11:17Z</time>
      </trkpt>
      <trkpt lat="49.03665" lon="1.12135">
        <ele>117.373863</ele>
        <time>2017-01-29T16:11:23Z</time>
      </trkpt>
      <trkpt lat="49.03668" lon="1.12158">
        <ele>118.124809</ele>
        <time>2017-01-29T16:11:29Z</time>
      </trkpt>
      <trkpt lat="49.0367" lon="1.1218">
        <ele>118.995399</ele>
        <time>2017-01-29T16:11:35Z</time>
      </trkpt>
      <trkpt lat="49.03675" lon="1.12205">
        <ele>120.740631</ele>
        <time>2017-01-29T16:11:42Z</time>
      </trkpt>
      <trkpt lat="49.03678" lon="1.12228">
        <ele>121.624008</ele>
        <time>2017-01-29T16:11:47Z</time>
      </trkpt>
      <trkpt lat="49.0368" lon="1.1225">
        <ele>122.464394</ele>
        <time>2017-01-29T16:11:53Z</time>
      </trkpt>
      <trkpt lat="49.03693" lon="1.12235">
        <ele>126.561584</ele>
        <time>2017-01-29T16:12:01Z</time>
      </trkpt>
      <trkpt lat="49.03703" lon="1.12218">
        <ele>127.974998</ele>
        <time>2017-01-29T16:12:45Z</time>
      </trkpt>
      <trkpt lat="49.0371" lon="1.122">
        <ele>128.748795</ele>
        <time>2017-01-29T16:12:52Z</time>
      </trkpt>
      <trkpt lat="49.03715" lon="1.12178">
        <ele>129.167297</ele>
        <time>2017-01-29T16:12:59Z</time>
      </trkpt>
      <trkpt lat="49.03723" lon="1.12155">
        <ele>130.007843</ele>
        <time>2017-01-29T16:13:05Z</time>
      </trkpt>
      <trkpt lat="49.0373" lon="1.12135">
        <ele>130.896896</ele>
        <time>2017-01-29T16:13:11Z</time>
      </trkpt>
      <trkpt lat="49.03738" lon="1.12115">
        <ele>131.617401</ele>
        <time>2017-01-29T16:13:15Z</time>
      </trkpt>
      <trkpt lat="49.03745" lon="1.12098">
        <ele>131.657745</ele>
        <time>2017-01-29T16:13:19Z</time>
      </trkpt>
      <trkpt lat="49.03745" lon="1.12075">
        <ele>131.392395</ele>
        <time>2017-01-29T16:13:23Z</time>
      </trkpt>
      <trkpt lat="49.03733" lon="1.1206">
        <ele>130.516068</ele>
        <time>2017-01-29T16:13:26Z</time>
      </trkpt>
      <trkpt lat="49.03718" lon="1.1205">
        <ele>128.960938</ele>
        <time>2017-01-29T16:13:30Z</time>
      </trkpt>
      <trkpt lat="49.03705" lon="1.12033">
        <ele>127.856476</ele>
        <time>2017-01-29T16:13:34Z</time>
      </trkpt>
      <trkpt lat="49.03698" lon="1.12015">
        <ele>127.373192</ele>
        <time>2017-01-29T16:13:38Z</time>
      </trkpt>
      <trkpt lat="49.03705" lon="1.11995">
        <ele>128.054504</ele>
        <time>2017-01-29T16:13:44Z</time>
      </trkpt>
      <trkpt lat="49.03703" lon="1.1196">
        <ele>127.37294</ele>
        <time>2017-01-29T16:14:01Z</time>
      </trkpt>
      <trkpt lat="49.03715" lon="1.1195">
        <ele>127.478828</ele>
        <time>2017-01-29T16:14:09Z</time>
      </trkpt>
      <trkpt lat="49.0373" lon="1.11948">
        <ele>127.669899</ele>
        <time>2017-01-29T16:14:14Z</time>
      </trkpt>
      <trkpt lat="49.03745" lon="1.11953">
        <ele>127.644875</ele>
        <time>2017-01-29T16:14:19Z</time>
      </trkpt>
      <trkpt lat="49.0376" lon="1.1196">
        <ele>127.565643</ele>
        <time>2017-01-29T16:14:23Z</time>
      </trkpt>
      <trkpt lat="49.03773" lon="1.1197">
        <ele>128.018082</ele>
        <time>2017-01-29T16:14:27Z</time>
      </trkpt>
      <trkpt lat="49.03788" lon="1.11975">
        <ele>128.246643</ele>
        <time>2017-01-29T16:14:31Z</time>
      </trkpt>
      <trkpt lat="49.03805" lon="1.11978">
        <ele>128.420975</ele>
        <time>2017-01-29T16:14:36Z</time>
      </trkpt>
      <trkpt lat="49.03828" lon="1.11978">
        <ele>128.350159</ele>
        <time>2017-01-29T16:14:41Z</time>
      </trkpt>
      <trkpt lat="49.03843" lon="1.11988">
        <ele>129.728455</ele>
        <time>2017-01-29T16:14:45Z</time>
      </trkpt>
      <trkpt lat="49.03858" lon="1.11988">
        <ele>129.946396</ele>
        <time>2017-01-29T16:14:49Z</time>
      </trkpt>
      <trkpt lat="49.0387" lon="1.11978">
        <ele>129.372833</ele>
        <time>2017-01-29T16:14:52Z</time>
      </trkpt>
      <trkpt lat="49.03883" lon="1.11965">
        <ele>129.270615</ele>
        <time>2017-01-29T16:14:55Z</time>
      </trkpt>
      <trkpt lat="49.039" lon="1.11953">
        <ele>129.800186</ele>
        <time>2017-01-29T16:14:59Z</time>
      </trkpt>
      <trkpt lat="49.03913" lon="1.11935">
        <ele>129.947647</ele>
        <time>2017-01-29T16:15:02Z</time>
      </trkpt>
      <trkpt lat="49.03923" lon="1.11918">
        <ele>129.515198</ele>
        <time>2017-01-29T16:15:05Z</time>
      </trkpt>
      <trkpt lat="49.0393" lon="1.119">
        <ele>128.960052</ele>
        <time>2017-01-29T16:15:08Z</time>
      </trkpt>
      <trkpt lat="49.03938" lon="1.11883">
        <ele>128.752502</ele>
        <time>2017-01-29T16:15:12Z</time>
      </trkpt>
      <trkpt lat="49.03945" lon="1.11865">
        <ele>128.887131</ele>
        <time>2017-01-29T16:15:16Z</time>
      </trkpt>
      <trkpt lat="49.03958" lon="1.11855">
        <ele>130.53862</ele>
        <time>2017-01-29T16:15:37Z</time>
      </trkpt>
      <trkpt lat="49.03973" lon="1.1186">
        <ele>131.565628</ele>
        <time>2017-01-29T16:15:44Z</time>
      </trkpt>
      <trkpt lat="49.0399" lon="1.11858">
        <ele>132.315628</ele>
        <time>2017-01-29T16:15:49Z</time>
      </trkpt>
      <trkpt lat="49.04005" lon="1.1186">
        <ele>133.018753</ele>
        <time>2017-01-29T16:15:53Z</time>
      </trkpt>
      <trkpt lat="49.04018" lon="1.1187">
        <ele>133.600006</ele>
        <time>2017-01-29T16:15:57Z</time>
      </trkpt>
      <trkpt lat="49.04033" lon="1.11878">
        <ele>134.160004</ele>
        <time>2017-01-29T16:16:02Z</time>
      </trkpt>
      <trkpt lat="49.04048" lon="1.11873">
        <ele>134.358749</ele>
        <time>2017-01-29T16:16:06Z</time>
      </trkpt>
      <trkpt lat="49.04063" lon="1.1188">
        <ele>135.109329</ele>
        <time>2017-01-29T16:16:10Z</time>
      </trkpt>
      <trkpt lat="49.04078" lon="1.11888">
        <ele>135.831604</ele>
        <time>2017-01-29T16:16:15Z</time>
      </trkpt>
      <trkpt lat="49.0409" lon="1.119">
        <ele>136.470276</ele>
        <time>2017-01-29T16:16:19Z</time>
      </trkpt>
      <trkpt lat="49.04108" lon="1.1192">
        <ele>136.897995</ele>
        <time>2017-01-29T16:16:24Z</time>
      </trkpt>
      <trkpt lat="49.04118" lon="1.1194">
        <ele>137</ele>
        <time>2017-01-29T16:16:29Z</time>
      </trkpt>
      <trkpt lat="49.04128" lon="1.1196">
        <ele>137</ele>
        <time>2017-01-29T16:16:33Z</time>
      </trkpt>
      <trkpt lat="49.04143" lon="1.1197">
        <ele>136.986557</ele>
        <time>2017-01-29T16:16:37Z</time>
      </trkpt>
      <trkpt lat="49.0416" lon="1.1197">
        <ele>136.858093</ele>
        <time>2017-01-29T16:16:41Z</time>
      </trkpt>
      <trkpt lat="49.04175" lon="1.11965">
        <ele>136.695435</ele>
        <time>2017-01-29T16:16:44Z</time>
      </trkpt>
      <trkpt lat="49.04185" lon="1.1195">
        <ele>136.388702</ele>
        <time>2017-01-29T16:16:47Z</time>
      </trkpt>
      <trkpt lat="49.04198" lon="1.11935">
        <ele>135.89563</ele>
        <time>2017-01-29T16:16:51Z</time>
      </trkpt>
      <trkpt lat="49.0421" lon="1.1192">
        <ele>135.40062</ele>
        <time>2017-01-29T16:16:54Z</time>
      </trkpt>
      <trkpt lat="49.04225" lon="1.11908">
        <ele>134.888123</ele>
        <time>2017-01-29T16:16:58Z</time>
      </trkpt>
      <trkpt lat="49.04243" lon="1.11898">
        <ele>134.067505</ele>
        <time>2017-01-29T16:17:02Z</time>
      </trkpt>
      <trkpt lat="49.04253" lon="1.1188">
        <ele>133.365005</ele>
        <time>2017-01-29T16:17:04Z</time>
      </trkpt>
      <trkpt lat="49.04268" lon="1.11875">
        <ele>132.626877</ele>
        <time>2017-01-29T16:17:10Z</time>
      </trkpt>
      <trkpt lat="49.04275" lon="1.11893">
        <ele>132.555618</ele>
        <time>2017-01-29T16:17:13Z</time>
      </trkpt>
      <trkpt lat="49.04283" lon="1.11913">
        <ele>132.530624</ele>
        <time>2017-01-29T16:17:17Z</time>
      </trkpt>
      <trkpt lat="49.0429" lon="1.11938">
        <ele>132.579376</ele>
        <time>2017-01-29T16:17:21Z</time>
      </trkpt>
      <trkpt lat="49.04298" lon="1.11963">
        <ele>132.617493</ele>
        <time>2017-01-29T16:17:25Z</time>
      </trkpt>
      <trkpt lat="49.04305" lon="1.11983">
        <ele>132.592499</ele>
        <time>2017-01-29T16:17:29Z</time>
      </trkpt>
      <trkpt lat="49.04303" lon="1.12005">
        <ele>133.272491</ele>
        <time>2017-01-29T16:17:33Z</time>
      </trkpt>
      <trkpt lat="49.04293" lon="1.1202">
        <ele>134.153748</ele>
        <time>2017-01-29T16:17:38Z</time>
      </trkpt>
      <trkpt lat="49.04283" lon="1.12035">
        <ele>135.036255</ele>
        <time>2017-01-29T16:17:43Z</time>
      </trkpt>
      <trkpt lat="49.04273" lon="1.1205">
        <ele>135.852814</ele>
        <time>2017-01-29T16:17:48Z</time>
      </trkpt>
      <trkpt lat="49.04255" lon="1.1207">
        <ele>136.561951</ele>
        <time>2017-01-29T16:17:54Z</time>
      </trkpt>
      <trkpt lat="49.04233" lon="1.12095">
        <ele>136.992859</ele>
        <time>2017-01-29T16:18:03Z</time>
      </trkpt>
      <trkpt lat="49.04233" lon="1.12118">
        <ele>136.99852</ele>
        <time>2017-01-29T16:18:09Z</time>
      </trkpt>
      <trkpt lat="49.04235" lon="1.1214">
        <ele>137</ele>
        <time>2017-01-29T16:18:13Z</time>
      </trkpt>
      <trkpt lat="49.04235" lon="1.12163">
        <ele>137</ele>
        <time>2017-01-29T16:18:17Z</time>
      </trkpt>
      <trkpt lat="49.0423" lon="1.12185">
        <ele>137</ele>
        <time>2017-01-29T16:18:22Z</time>
      </trkpt>
      <trkpt lat="49.04225" lon="1.12208">
        <ele>136.970795</ele>
        <time>2017-01-29T16:18:26Z</time>
      </trkpt>
      <trkpt lat="49.0423" lon="1.12228">
        <ele>136.967712</ele>
        <time>2017-01-29T16:18:31Z</time>
      </trkpt>
      <trkpt lat="49.04233" lon="1.1225">
        <ele>136.984177</ele>
        <time>2017-01-29T16:18:35Z</time>
      </trkpt>
      <trkpt lat="49.04233" lon="1.12278">
        <ele>136.975006</ele>
        <time>2017-01-29T16:18:39Z</time>
      </trkpt>
      <trkpt lat="49.0424" lon="1.12295">
        <ele>137</ele>
        <time>2017-01-29T16:18:42Z</time>
      </trkpt>
      <trkpt lat="49.04245" lon="1.1232">
        <ele>137</ele>
        <time>2017-01-29T16:18:46Z</time>
      </trkpt>
      <trkpt lat="49.0425" lon="1.1234">
        <ele>137</ele>
        <time>2017-01-29T16:18:49Z</time>
      </trkpt>
      <trkpt lat="49.0425" lon="1.12365">
        <ele>137</ele>
        <time>2017-01-29T16:18:53Z</time>
      </trkpt>
      <trkpt lat="49.04263" lon="1.12378">
        <ele>137</ele>
        <time>2017-01-29T16:19:01Z</time>
      </trkpt>
      <trkpt lat="49.04278" lon="1.1237">
        <ele>137</ele>
        <time>2017-01-29T16:19:07Z</time>
      </trkpt>
      <trkpt lat="49.04293" lon="1.12358">
        <ele>137</ele>
        <time>2017-01-29T16:19:11Z</time>
      </trkpt>
      <trkpt lat="49.04305" lon="1.12345">
        <ele>137</ele>
        <time>2017-01-29T16:19:14Z</time>
      </trkpt>
      <trkpt lat="49.04313" lon="1.12325">
        <ele>137</ele>
        <time>2017-01-29T16:19:18Z</time>
      </trkpt>
      <trkpt lat="49.0432" lon="1.12308">
        <ele>137</ele>
        <time>2017-01-29T16:19:22Z</time>
      </trkpt>
      <trkpt lat="49.04323" lon="1.12285">
        <ele>137</ele>
        <time>2017-01-29T16:19:28Z</time>
      </trkpt>
      <trkpt lat="49.04325" lon="1.12263">
        <ele>136.965195</ele>
        <time>2017-01-29T16:19:31Z</time>
      </trkpt>
      <trkpt lat="49.04333" lon="1.1224">
        <ele>136.722672</ele>
        <time>2017-01-29T16:19:34Z</time>
      </trkpt>
      <trkpt lat="49.0434" lon="1.12215">
        <ele>136.360168</ele>
        <time>2017-01-29T16:19:37Z</time>
      </trkpt>
      <trkpt lat="49.04348" lon="1.12183">
        <ele>135.576248</ele>
        <time>2017-01-29T16:19:41Z</time>
      </trkpt>
      <trkpt lat="49.0435" lon="1.1216">
        <ele>134.800003</ele>
        <time>2017-01-29T16:19:44Z</time>
      </trkpt>
      <trkpt lat="49.04355" lon="1.12118">
        <ele>133.337296</ele>
        <time>2017-01-29T16:19:49Z</time>
      </trkpt>
      <trkpt lat="49.04348" lon="1.12093">
        <ele>133.104828</ele>
        <time>2017-01-29T16:19:52Z</time>
      </trkpt>
      <trkpt lat="49.04338" lon="1.1207">
        <ele>133.183502</ele>
        <time>2017-01-29T16:19:55Z</time>
      </trkpt>
      <trkpt lat="49.04325" lon="1.12045">
        <ele>133.407486</ele>
        <time>2017-01-29T16:19:58Z</time>
      </trkpt>
      <trkpt lat="49.04318" lon="1.12018">
        <ele>132.988754</ele>
        <time>2017-01-29T16:20:01Z</time>
      </trkpt>
      <trkpt lat="49.04308" lon="1.11993">
        <ele>132.680008</ele>
        <time>2017-01-29T16:20:04Z</time>
      </trkpt>
      <trkpt lat="49.04298" lon="1.11963">
        <ele>132.617493</ele>
        <time>2017-01-29T16:20:08Z</time>
      </trkpt>
      <trkpt lat="49.0429" lon="1.11938">
        <ele>132.579376</ele>
        <time>2017-01-29T16:20:11Z</time>
      </trkpt>
      <trkpt lat="49.0428" lon="1.11915">
        <ele>132.67688</ele>
        <time>2017-01-29T16:20:14Z</time>
      </trkpt>
      <trkpt lat="49.04268" lon="1.11883">
        <ele>132.736877</ele>
        <time>2017-01-29T16:20:18Z</time>
      </trkpt>
      <trkpt lat="49.0426" lon="1.1186">
        <ele>132.735001</ele>
        <time>2017-01-29T16:20:21Z</time>
      </trkpt>
      <trkpt lat="49.0426" lon="1.11838">
        <ele>132.39563</ele>
        <time>2017-01-29T16:20:24Z</time>
      </trkpt>
      <trkpt lat="49.0427" lon="1.11813">
        <ele>131.573746</ele>
        <time>2017-01-29T16:20:27Z</time>
      </trkpt>
      <trkpt lat="49.04283" lon="1.11795">
        <ele>130.921494</ele>
        <time>2017-01-29T16:20:29Z</time>
      </trkpt>
      <trkpt lat="49.04295" lon="1.11775">
        <ele>130.520004</ele>
        <time>2017-01-29T16:20:34Z</time>
      </trkpt>
      <trkpt lat="49.04295" lon="1.11748">
        <ele>130.514999</ele>
        <time>2017-01-29T16:20:38Z</time>
      </trkpt>
      <trkpt lat="49.04285" lon="1.11733">
        <ele>130.735001</ele>
        <time>2017-01-29T16:20:41Z</time>
      </trkpt>
      <trkpt lat="49.04265" lon="1.117">
        <ele>131.169998</ele>
        <time>2017-01-29T16:20:46Z</time>
      </trkpt>
      <trkpt lat="49.04258" lon="1.1168">
        <ele>131.335007</ele>
        <time>2017-01-29T16:20:49Z</time>
      </trkpt>
      <trkpt lat="49.04248" lon="1.11658">
        <ele>131.550003</ele>
        <time>2017-01-29T16:20:53Z</time>
      </trkpt>
      <trkpt lat="49.04253" lon="1.11638">
        <ele>131.505692</ele>
        <time>2017-01-29T16:20:57Z</time>
      </trkpt>
      <trkpt lat="49.04263" lon="1.11618">
        <ele>131.297638</ele>
        <time>2017-01-29T16:21:01Z</time>
      </trkpt>
      <trkpt lat="49.04268" lon="1.11598">
        <ele>131.15683</ele>
        <time>2017-01-29T16:21:04Z</time>
      </trkpt>
      <trkpt lat="49.04273" lon="1.11578">
        <ele>130.891251</ele>
        <time>2017-01-29T16:21:08Z</time>
      </trkpt>
      <trkpt lat="49.04283" lon="1.1156">
        <ele>129.963745</ele>
        <time>2017-01-29T16:21:11Z</time>
      </trkpt>
      <trkpt lat="49.04285" lon="1.11535">
        <ele>129.418747</ele>
        <time>2017-01-29T16:21:16Z</time>
      </trkpt>
      <trkpt lat="49.04283" lon="1.11513">
        <ele>129.238754</ele>
        <time>2017-01-29T16:21:20Z</time>
      </trkpt>
      <trkpt lat="49.0427" lon="1.11503">
        <ele>129.913132</ele>
        <time>2017-01-29T16:21:27Z</time>
      </trkpt>
      <trkpt lat="49.04258" lon="1.11493">
        <ele>130.587494</ele>
        <time>2017-01-29T16:21:46Z</time>
      </trkpt>
      <trkpt lat="49.04258" lon="1.1147">
        <ele>130.243744</ele>
        <time>2017-01-29T16:21:54Z</time>
      </trkpt>
      <trkpt lat="49.04273" lon="1.11453">
        <ele>128.925064</ele>
        <time>2017-01-29T16:21:58Z</time>
      </trkpt>
      <trkpt lat="49.043" lon="1.11413">
        <ele>126.157608</ele>
        <time>2017-01-29T16:22:05Z</time>
      </trkpt>
      <trkpt lat="49.04295" lon="1.11393">
        <ele>126.421364</ele>
        <time>2017-01-29T16:22:09Z</time>
      </trkpt>
      <trkpt lat="49.0429" lon="1.11373">
        <ele>126.59375</ele>
        <time>2017-01-29T16:22:13Z</time>
      </trkpt>
      <trkpt lat="49.04283" lon="1.11343">
        <ele>126.631874</ele>
        <time>2017-01-29T16:22:19Z</time>
      </trkpt>
      <trkpt lat="49.04275" lon="1.11315">
        <ele>126.706879</ele>
        <time>2017-01-29T16:22:24Z</time>
      </trkpt>
      <trkpt lat="49.0427" lon="1.11293">
        <ele>126.90213</ele>
        <time>2017-01-29T16:22:28Z</time>
      </trkpt>
      <trkpt lat="49.04265" lon="1.1127">
        <ele>127.300003</ele>
        <time>2017-01-29T16:22:32Z</time>
      </trkpt>
      <trkpt lat="49.04258" lon="1.11238">
        <ele>127.937195</ele>
        <time>2017-01-29T16:22:37Z</time>
      </trkpt>
      <trkpt lat="49.0425" lon="1.11205">
        <ele>128.967224</ele>
        <time>2017-01-29T16:22:43Z</time>
      </trkpt>
      <trkpt lat="49.04245" lon="1.11183">
        <ele>129.410934</ele>
        <time>2017-01-29T16:22:47Z</time>
      </trkpt>
      <trkpt lat="49.04238" lon="1.11153">
        <ele>129.312683</ele>
        <time>2017-01-29T16:22:53Z</time>
      </trkpt>
      <trkpt lat="49.0422" lon="1.11158">
        <ele>129.618256</ele>
        <time>2017-01-29T16:22:59Z</time>
      </trkpt>
      <trkpt lat="49.042" lon="1.11155">
        <ele>129.539795</ele>
        <time>2017-01-29T16:23:07Z</time>
      </trkpt>
      <trkpt lat="49.04185" lon="1.11158">
        <ele>129.721939</ele>
        <time>2017-01-29T16:23:13Z</time>
      </trkpt>
      <trkpt lat="49.04173" lon="1.11168">
        <ele>130.463348</ele>
        <time>2017-01-29T16:23:18Z</time>
      </trkpt>
      <trkpt lat="49.04158" lon="1.1117">
        <ele>130.288391</ele>
        <time>2017-01-29T16:23:23Z</time>
      </trkpt>
      <trkpt lat="49.04143" lon="1.1118">
        <ele>130.515381</ele>
        <time>2017-01-29T16:23:29Z</time>
      </trkpt>
      <trkpt lat="49.04128" lon="1.1118">
        <ele>130.202942</ele>
        <time>2017-01-29T16:23:34Z</time>
      </trkpt>
      <trkpt lat="49.04113" lon="1.1118">
        <ele>129.88443</ele>
        <time>2017-01-29T16:23:38Z</time>
      </trkpt>
      <trkpt lat="49.04098" lon="1.11185">
        <ele>129.838974</ele>
        <time>2017-01-29T16:23:42Z</time>
      </trkpt>
      <trkpt lat="49.0409" lon="1.11203">
        <ele>130.696655</ele>
        <time>2017-01-29T16:23:46Z</time>
      </trkpt>
      <trkpt lat="49.0408" lon="1.11218">
        <ele>131.418533</ele>
        <time>2017-01-29T16:23:50Z</time>
      </trkpt>
      <trkpt lat="49.04068" lon="1.1123">
        <ele>131.871826</ele>
        <time>2017-01-29T16:23:55Z</time>
      </trkpt>
      <trkpt lat="49.04053" lon="1.11218">
        <ele>131.002243</ele>
        <time>2017-01-29T16:24:01Z</time>
      </trkpt>
      <trkpt lat="49.04048" lon="1.11198">
        <ele>130.022705</ele>
        <time>2017-01-29T16:24:06Z</time>
      </trkpt>
      <trkpt lat="49.0403" lon="1.11193">
        <ele>129.963745</ele>
        <time>2017-01-29T16:24:10Z</time>
      </trkpt>
      <trkpt lat="49.0401" lon="1.1118">
        <ele>129.861496</ele>
        <time>2017-01-29T16:24:15Z</time>
      </trkpt>
      <trkpt lat="49.03995" lon="1.1118">
        <ele>130.166702</ele>
        <time>2017-01-29T16:24:18Z</time>
      </trkpt>
      <trkpt lat="49.0398" lon="1.11188">
        <ele>130.650803</ele>
        <time>2017-01-29T16:24:22Z</time>
      </trkpt>
      <trkpt lat="49.03968" lon="1.11205">
        <ele>131.222855</ele>
        <time>2017-01-29T16:24:26Z</time>
      </trkpt>
      <trkpt lat="49.03953" lon="1.1121">
        <ele>131.455292</ele>
        <time>2017-01-29T16:24:29Z</time>
      </trkpt>
      <trkpt lat="49.03938" lon="1.1122">
        <ele>131.220993</ele>
        <time>2017-01-29T16:24:33Z</time>
      </trkpt>
      <trkpt lat="49.03925" lon="1.1121">
        <ele>130.474457</ele>
        <time>2017-01-29T16:24:36Z</time>
      </trkpt>
      <trkpt lat="49.03908" lon="1.11208">
        <ele>129.643112</ele>
        <time>2017-01-29T16:24:40Z</time>
      </trkpt>
      <trkpt lat="49.03893" lon="1.1122">
        <ele>129.16362</ele>
        <time>2017-01-29T16:24:44Z</time>
      </trkpt>
      <trkpt lat="49.03888" lon="1.1124">
        <ele>130.458359</ele>
        <time>2017-01-29T16:24:47Z</time>
      </trkpt>
      <trkpt lat="49.03883" lon="1.1126">
        <ele>130.731979</ele>
        <time>2017-01-29T16:24:50Z</time>
      </trkpt>
      <trkpt lat="49.03873" lon="1.1128">
        <ele>129.994736</ele>
        <time>2017-01-29T16:24:54Z</time>
      </trkpt>
      <trkpt lat="49.03873" lon="1.11303">
        <ele>129.714432</ele>
        <time>2017-01-29T16:24:59Z</time>
      </trkpt>
      <trkpt lat="49.03883" lon="1.1132">
        <ele>130.009644</ele>
        <time>2017-01-29T16:25:04Z</time>
      </trkpt>
      <trkpt lat="49.03895" lon="1.11348">
        <ele>129.777847</ele>
        <time>2017-01-29T16:25:12Z</time>
      </trkpt>
      <trkpt lat="49.03898" lon="1.11373">
        <ele>129.039368</ele>
        <time>2017-01-29T16:25:17Z</time>
      </trkpt>
      <trkpt lat="49.03903" lon="1.11398">
        <ele>128.70105</ele>
        <time>2017-01-29T16:25:21Z</time>
      </trkpt>
      <trkpt lat="49.03913" lon="1.11418">
        <ele>129.62381</ele>
        <time>2017-01-29T16:25:25Z</time>
      </trkpt>
      <trkpt lat="49.0392" lon="1.11443">
        <ele>129.7332</ele>
        <time>2017-01-29T16:25:29Z</time>
      </trkpt>
      <trkpt lat="49.0393" lon="1.11463">
        <ele>130.006775</ele>
        <time>2017-01-29T16:25:32Z</time>
      </trkpt>
      <trkpt lat="49.03938" lon="1.1148">
        <ele>130.248016</ele>
        <time>2017-01-29T16:25:36Z</time>
      </trkpt>
      <trkpt lat="49.03948" lon="1.11508">
        <ele>130.956894</ele>
        <time>2017-01-29T16:25:47Z</time>
      </trkpt>
      <trkpt lat="49.0394" lon="1.1153">
        <ele>129.539688</ele>
        <time>2017-01-29T16:25:53Z</time>
      </trkpt>
      <trkpt lat="49.0393" lon="1.11553">
        <ele>127.40815</ele>
        <time>2017-01-29T16:25:57Z</time>
      </trkpt>
      <trkpt lat="49.0393" lon="1.11575">
        <ele>126.653366</ele>
        <time>2017-01-29T16:26:00Z</time>
      </trkpt>
      <trkpt lat="49.03938" lon="1.11595">
        <ele>127.320145</ele>
        <time>2017-01-29T16:26:03Z</time>
      </trkpt>
      <trkpt lat="49.03945" lon="1.11613">
        <ele>128.277893</ele>
        <time>2017-01-29T16:26:06Z</time>
      </trkpt>
      <trkpt lat="49.03945" lon="1.11635">
        <ele>127.723717</ele>
        <time>2017-01-29T16:26:10Z</time>
      </trkpt>
      <trkpt lat="49.03945" lon="1.11663">
        <ele>126.970299</ele>
        <time>2017-01-29T16:26:14Z</time>
      </trkpt>
      <trkpt lat="49.0395" lon="1.11683">
        <ele>127.653343</ele>
        <time>2017-01-29T16:26:18Z</time>
      </trkpt>
      <trkpt lat="49.0395" lon="1.11708">
        <ele>127.034416</ele>
        <time>2017-01-29T16:26:23Z</time>
      </trkpt>
      <trkpt lat="49.03945" lon="1.11733">
        <ele>125.184875</ele>
        <time>2017-01-29T16:26:27Z</time>
      </trkpt>
      <trkpt lat="49.03943" lon="1.11765">
        <ele>124.701202</ele>
        <time>2017-01-29T16:26:33Z</time>
      </trkpt>
      <trkpt lat="49.03945" lon="1.1179">
        <ele>125.634125</ele>
        <time>2017-01-29T16:26:39Z</time>
      </trkpt>
      <trkpt lat="49.0394" lon="1.1181">
        <ele>124.995033</ele>
        <time>2017-01-29T16:26:43Z</time>
      </trkpt>
      <trkpt lat="49.03943" lon="1.11833">
        <ele>126.863831</ele>
        <time>2017-01-29T16:26:48Z</time>
      </trkpt>
      <trkpt lat="49.03955" lon="1.11845">
        <ele>129.910065</ele>
        <time>2017-01-29T16:26:54Z</time>
      </trkpt>
      <trkpt lat="49.0396" lon="1.11868">
        <ele>131.212494</ele>
        <time>2017-01-29T16:27:00Z</time>
      </trkpt>
      <trkpt lat="49.0396" lon="1.11893">
        <ele>131.933746</ele>
        <time>2017-01-29T16:27:06Z</time>
      </trkpt>
      <trkpt lat="49.03958" lon="1.11918">
        <ele>132.425034</ele>
        <time>2017-01-29T16:27:12Z</time>
      </trkpt>
      <trkpt lat="49.03953" lon="1.1194">
        <ele>132.807434</ele>
        <time>2017-01-29T16:27:16Z</time>
      </trkpt>
      <trkpt lat="49.03948" lon="1.11963">
        <ele>133.232376</ele>
        <time>2017-01-29T16:27:20Z</time>
      </trkpt>
      <trkpt lat="49.03943" lon="1.12005">
        <ele>134.321228</ele>
        <time>2017-01-29T16:27:28Z</time>
      </trkpt>
      <trkpt lat="49.0394" lon="1.1203">
        <ele>134.738373</ele>
        <time>2017-01-29T16:27:32Z</time>
      </trkpt>
      <trkpt lat="49.03935" lon="1.12053">
        <ele>135.085007</ele>
        <time>2017-01-29T16:27:36Z</time>
      </trkpt>
      <trkpt lat="49.0393" lon="1.12085">
        <ele>135.480286</ele>
        <time>2017-01-29T16:27:41Z</time>
      </trkpt>
      <trkpt lat="49.03928" lon="1.12115">
        <ele>135.776215</ele>
        <time>2017-01-29T16:27:46Z</time>
      </trkpt>
      <trkpt lat="49.03915" lon="1.12125">
        <ele>135.798126</ele>
        <time>2017-01-29T16:27:51Z</time>
      </trkpt>
      <trkpt lat="49.03898" lon="1.12128">
        <ele>135.438751</ele>
        <time>2017-01-29T16:28:50Z</time>
      </trkpt>
      <trkpt lat="49.03878" lon="1.12133">
        <ele>135.059998</ele>
        <time>2017-01-29T16:28:57Z</time>
      </trkpt>
      <trkpt lat="49.03868" lon="1.12148">
        <ele>135.066193</ele>
        <time>2017-01-29T16:29:00Z</time>
      </trkpt>
      <trkpt lat="49.03858" lon="1.12163">
        <ele>135.168625</ele>
        <time>2017-01-29T16:29:04Z</time>
      </trkpt>
      <trkpt lat="49.03845" lon="1.12188">
        <ele>135.582306</ele>
        <time>2017-01-29T16:29:08Z</time>
      </trkpt>
      <trkpt lat="49.03833" lon="1.122">
        <ele>135.850784</ele>
        <time>2017-01-29T16:29:12Z</time>
      </trkpt>
      <trkpt lat="49.03815" lon="1.12208">
        <ele>135.717941</ele>
        <time>2017-01-29T16:29:17Z</time>
      </trkpt>
      <trkpt lat="49.03808" lon="1.12228">
        <ele>135.697281</ele>
        <time>2017-01-29T16:29:20Z</time>
      </trkpt>
      <trkpt lat="49.038" lon="1.12248">
        <ele>135.569992</ele>
        <time>2017-01-29T16:29:24Z</time>
      </trkpt>
      <trkpt lat="49.03798" lon="1.12273">
        <ele>135.581329</ele>
        <time>2017-01-29T16:29:28Z</time>
      </trkpt>
      <trkpt lat="49.03788" lon="1.12293">
        <ele>135.38179</ele>
        <time>2017-01-29T16:29:31Z</time>
      </trkpt>
      <trkpt lat="49.0379" lon="1.12315">
        <ele>135.759201</ele>
        <time>2017-01-29T16:29:34Z</time>
      </trkpt>
      <trkpt lat="49.03785" lon="1.12338">
        <ele>135.922913</ele>
        <time>2017-01-29T16:29:37Z</time>
      </trkpt>
      <trkpt lat="49.0378" lon="1.12363">
        <ele>135.373123</ele>
        <time>2017-01-29T16:29:41Z</time>
      </trkpt>
      <trkpt lat="49.03773" lon="1.12383">
        <ele>134.57312</ele>
        <time>2017-01-29T16:29:44Z</time>
      </trkpt>
      <trkpt lat="49.0376" lon="1.12403">
        <ele>133.429993</ele>
        <time>2017-01-29T16:29:48Z</time>
      </trkpt>
      <trkpt lat="49.03745" lon="1.12405">
        <ele>132.408752</ele>
        <time>2017-01-29T16:29:53Z</time>
      </trkpt>
      <trkpt lat="49.03733" lon="1.12393">
        <ele>131.75563</ele>
        <time>2017-01-29T16:29:58Z</time>
      </trkpt>
      <trkpt lat="49.03715" lon="1.124">
        <ele>130.481873</ele>
        <time>2017-01-29T16:30:03Z</time>
      </trkpt>
      <trkpt lat="49.03695" lon="1.12408">
        <ele>128.977676</ele>
        <time>2017-01-29T16:30:08Z</time>
      </trkpt>
      <trkpt lat="49.03683" lon="1.1242">
        <ele>127.129837</ele>
        <time>2017-01-29T16:30:11Z</time>
      </trkpt>
      <trkpt lat="49.03668" lon="1.1243">
        <ele>125.401802</ele>
        <time>2017-01-29T16:30:14Z</time>
      </trkpt>
      <trkpt lat="49.0365" lon="1.12433">
        <ele>123.034622</ele>
        <time>2017-01-29T16:30:17Z</time>
      </trkpt>
      <trkpt lat="49.03638" lon="1.12448">
        <ele>121.854324</ele>
        <time>2017-01-29T16:30:20Z</time>
      </trkpt>
      <trkpt lat="49.03623" lon="1.12465">
        <ele>122.256775</ele>
        <time>2017-01-29T16:30:23Z</time>
      </trkpt>
      <trkpt lat="49.0361" lon="1.12475">
        <ele>123.064774</ele>
        <time>2017-01-29T16:30:25Z</time>
      </trkpt>
      <trkpt lat="49.03598" lon="1.1249">
        <ele>124.381691</ele>
        <time>2017-01-29T16:30:28Z</time>
      </trkpt>
      <trkpt lat="49.0358" lon="1.12508">
        <ele>124.15831</ele>
        <time>2017-01-29T16:30:32Z</time>
      </trkpt>
      <trkpt lat="49.03568" lon="1.1252">
        <ele>124.458702</ele>
        <time>2017-01-29T16:30:36Z</time>
      </trkpt>
      <trkpt lat="49.03555" lon="1.12533">
        <ele>124.919197</ele>
        <time>2017-01-29T16:30:41Z</time>
      </trkpt>
      <trkpt lat="49.0354" lon="1.12538">
        <ele>124.370346</ele>
        <time>2017-01-29T16:30:47Z</time>
      </trkpt>
      <trkpt lat="49.03525" lon="1.12535">
        <ele>122.699715</ele>
        <time>2017-01-29T16:30:53Z</time>
      </trkpt>
      <trkpt lat="49.0351" lon="1.12535">
        <ele>122.020996</ele>
        <time>2017-01-29T16:30:57Z</time>
      </trkpt>
      <trkpt lat="49.03495" lon="1.12535">
        <ele>122.049789</ele>
        <time>2017-01-29T16:31:01Z</time>
      </trkpt>
      <trkpt lat="49.03478" lon="1.12528">
        <ele>120.647438</ele>
        <time>2017-01-29T16:31:06Z</time>
      </trkpt>
      <trkpt lat="49.03463" lon="1.12518">
        <ele>118.331047</ele>
        <time>2017-01-29T16:31:11Z</time>
      </trkpt>
      <trkpt lat="49.03453" lon="1.12533">
        <ele>119.675003</ele>
        <time>2017-01-29T16:31:18Z</time>
      </trkpt>
      <trkpt lat="49.0344" lon="1.12545">
        <ele>119.401802</ele>
        <time>2017-01-29T16:31:25Z</time>
      </trkpt>
      <trkpt lat="49.03425" lon="1.12558">
        <ele>118.187202</ele>
        <time>2017-01-29T16:31:30Z</time>
      </trkpt>
      <trkpt lat="49.03398" lon="1.12568">
        <ele>120.291</ele>
        <time>2017-01-29T16:32:22Z</time>
      </trkpt>
      <trkpt lat="49.03383" lon="1.12575">
        <ele>121.753342</ele>
        <time>2017-01-29T16:32:33Z</time>
      </trkpt>
      <trkpt lat="49.03365" lon="1.12585">
        <ele>121.949371</ele>
        <time>2017-01-29T16:32:50Z</time>
      </trkpt>
      <trkpt lat="49.03353" lon="1.12595">
        <ele>122.863503</ele>
        <time>2017-01-29T16:32:57Z</time>
      </trkpt>
      <trkpt lat="49.03338" lon="1.12608">
        <ele>124.546791</ele>
        <time>2017-01-29T16:33:03Z</time>
      </trkpt>
      <trkpt lat="49.03323" lon="1.12608">
        <ele>123.902191</ele>
        <time>2017-01-29T16:33:09Z</time>
      </trkpt>
      <trkpt lat="49.0331" lon="1.12593">
        <ele>119.89859</ele>
        <time>2017-01-29T16:33:14Z</time>
      </trkpt>
      <trkpt lat="49.03298" lon="1.1258">
        <ele>115.787376</ele>
        <time>2017-01-29T16:33:19Z</time>
      </trkpt>
      <trkpt lat="49.03283" lon="1.12585">
        <ele>115.910706</ele>
        <time>2017-01-29T16:33:29Z</time>
      </trkpt>
      <trkpt lat="49.03268" lon="1.12588">
        <ele>115.554726</ele>
        <time>2017-01-29T16:33:36Z</time>
      </trkpt>
      <trkpt lat="49.03253" lon="1.12593">
        <ele>116.025421</ele>
        <time>2017-01-29T16:33:42Z</time>
      </trkpt>
      <trkpt lat="49.0322" lon="1.126">
        <ele>112.181877</ele>
        <time>2017-01-29T16:35:41Z</time>
      </trkpt>
      <trkpt lat="49.03205" lon="1.126">
        <ele>109.061874</ele>
        <time>2017-01-29T16:35:48Z</time>
      </trkpt>
      <trkpt lat="49.0319" lon="1.12603">
        <ele>107.125938</ele>
        <time>2017-01-29T16:35:52Z</time>
      </trkpt>
      <trkpt lat="49.03178" lon="1.12613">
        <ele>107.897652</ele>
        <time>2017-01-29T16:35:58Z</time>
      </trkpt>
      <trkpt lat="49.0317" lon="1.1263">
        <ele>111.721565</ele>
        <time>2017-01-29T16:36:05Z</time>
      </trkpt>
      <trkpt lat="49.03168" lon="1.12653">
        <ele>116.251343</ele>
        <time>2017-01-29T16:36:13Z</time>
      </trkpt>
      <trkpt lat="49.0316" lon="1.1267">
        <ele>119.193184</ele>
        <time>2017-01-29T16:36:18Z</time>
      </trkpt>
      <trkpt lat="49.03153" lon="1.12688">
        <ele>121.923279</ele>
        <time>2017-01-29T16:36:23Z</time>
      </trkpt>
      <trkpt lat="49.03143" lon="1.12703">
        <ele>123.135941</ele>
        <time>2017-01-29T16:36:31Z</time>
      </trkpt>
      <trkpt lat="49.03128" lon="1.12713">
        <ele>121.353394</ele>
        <time>2017-01-29T16:36:39Z</time>
      </trkpt>
      <trkpt lat="49.03115" lon="1.12725">
        <ele>120.887489</ele>
        <time>2017-01-29T16:36:46Z</time>
      </trkpt>
      <trkpt lat="49.03103" lon="1.1274">
        <ele>122.149628</ele>
        <time>2017-01-29T16:37:26Z</time>
      </trkpt>
      <trkpt lat="49.0309" lon="1.1275">
        <ele>123.325951</ele>
        <time>2017-01-29T16:37:59Z</time>
      </trkpt>
      <trkpt lat="49.03075" lon="1.1275">
        <ele>123.013062</ele>
        <time>2017-01-29T16:38:08Z</time>
      </trkpt>
      <trkpt lat="49.03058" lon="1.12753">
        <ele>123.628799</ele>
        <time>2017-01-29T16:38:13Z</time>
      </trkpt>
      <trkpt lat="49.0304" lon="1.1275">
        <ele>123.294304</ele>
        <time>2017-01-29T16:38:20Z</time>
      </trkpt>
      <trkpt lat="49.03023" lon="1.12745">
        <ele>122.360252</ele>
        <time>2017-01-29T16:38:26Z</time>
      </trkpt>
      <trkpt lat="49.03008" lon="1.12745">
        <ele>123.633301</ele>
        <time>2017-01-29T16:38:33Z</time>
      </trkpt>
      <trkpt lat="49.02993" lon="1.12738">
        <ele>123.609749</ele>
        <time>2017-01-29T16:38:39Z</time>
      </trkpt>
      <trkpt lat="49.02978" lon="1.12738">
        <ele>124.931252</ele>
        <time>2017-01-29T16:38:47Z</time>
      </trkpt>
      <trkpt lat="49.02965" lon="1.12748">
        <ele>126.356247</ele>
        <time>2017-01-29T16:38:54Z</time>
      </trkpt>
      <trkpt lat="49.0295" lon="1.12753">
        <ele>127.03125</ele>
        <time>2017-01-29T16:39:01Z</time>
      </trkpt>
      <trkpt lat="49.02935" lon="1.12758">
        <ele>127.696785</ele>
        <time>2017-01-29T16:39:08Z</time>
      </trkpt>
      <trkpt lat="49.0292" lon="1.12755">
        <ele>126.161003</ele>
        <time>2017-01-29T16:39:16Z</time>
      </trkpt>
      <trkpt lat="49.02903" lon="1.12755">
        <ele>124.769188</ele>
        <time>2017-01-29T16:39:23Z</time>
      </trkpt>
      <trkpt lat="49.02888" lon="1.12758">
        <ele>124.261299</ele>
        <time>2017-01-29T16:39:28Z</time>
      </trkpt>
      <trkpt lat="49.02873" lon="1.12758">
        <ele>123.849998</ele>
        <time>2017-01-29T16:39:33Z</time>
      </trkpt>
      <trkpt lat="49.02855" lon="1.12753">
        <ele>122.025139</ele>
        <time>2017-01-29T16:39:39Z</time>
      </trkpt>
      <trkpt lat="49.02843" lon="1.12743">
        <ele>119.055199</ele>
        <time>2017-01-29T16:39:44Z</time>
      </trkpt>
      <trkpt lat="49.02828" lon="1.12738">
        <ele>118.672462</ele>
        <time>2017-01-29T16:39:49Z</time>
      </trkpt>
      <trkpt lat="49.02813" lon="1.1274">
        <ele>120.257851</ele>
        <time>2017-01-29T16:39:53Z</time>
      </trkpt>
      <trkpt lat="49.02798" lon="1.12733">
        <ele>119.650574</ele>
        <time>2017-01-29T16:40:35Z</time>
      </trkpt>
      <trkpt lat="49.02783" lon="1.12738">
        <ele>121.980171</ele>
        <time>2017-01-29T16:40:41Z</time>
      </trkpt>
      <trkpt lat="49.02768" lon="1.12738">
        <ele>123.276161</ele>
        <time>2017-01-29T16:40:47Z</time>
      </trkpt>
      <trkpt lat="49.0275" lon="1.1273">
        <ele>123.824951</ele>
        <time>2017-01-29T16:40:53Z</time>
      </trkpt>
      <trkpt lat="49.02738" lon="1.1271">
        <ele>122.999527</ele>
        <time>2017-01-29T16:40:57Z</time>
      </trkpt>
      <trkpt lat="49.02728" lon="1.12695">
        <ele>121.117348</ele>
        <time>2017-01-29T16:41:00Z</time>
      </trkpt>
      <trkpt lat="49.0272" lon="1.12675">
        <ele>118.915314</ele>
        <time>2017-01-29T16:41:04Z</time>
      </trkpt>
      <trkpt lat="49.0271" lon="1.12643">
        <ele>116.932602</ele>
        <time>2017-01-29T16:41:10Z</time>
      </trkpt>
      <trkpt lat="49.02703" lon="1.12615">
        <ele>112.128754</ele>
        <time>2017-01-29T16:41:14Z</time>
      </trkpt>
      <trkpt lat="49.027" lon="1.12593">
        <ele>107.654251</ele>
        <time>2017-01-29T16:41:19Z</time>
      </trkpt>
      <trkpt lat="49.02698" lon="1.1257">
        <ele>103.416878</ele>
        <time>2017-01-29T16:41:23Z</time>
      </trkpt>
      <trkpt lat="49.0269" lon="1.1254">
        <ele>99.129211</ele>
        <time>2017-01-29T16:41:28Z</time>
      </trkpt>
      <trkpt lat="49.02678" lon="1.1253">
        <ele>101.065887</ele>
        <time>2017-01-29T16:41:31Z</time>
      </trkpt>
      <trkpt lat="49.0266" lon="1.12515">
        <ele>102.337738</ele>
        <time>2017-01-29T16:41:36Z</time>
      </trkpt>
      <trkpt lat="49.02648" lon="1.12503">
        <ele>99.425125</ele>
        <time>2017-01-29T16:41:39Z</time>
      </trkpt>
      <trkpt lat="49.02633" lon="1.12495">
        <ele>97.474953</ele>
        <time>2017-01-29T16:41:42Z</time>
      </trkpt>
      <trkpt lat="49.02618" lon="1.1248">
        <ele>92.827103</ele>
        <time>2017-01-29T16:41:45Z</time>
      </trkpt>
      <trkpt lat="49.02595" lon="1.12463">
        <ele>86.087067</ele>
        <time>2017-01-29T16:41:49Z</time>
      </trkpt>
      <trkpt lat="49.02555" lon="1.1243">
        <ele>76.37149</ele>
        <time>2017-01-29T16:41:57Z</time>
      </trkpt>
      <trkpt lat="49.02543" lon="1.12415">
        <ele>74.666039</ele>
        <time>2017-01-29T16:42:03Z</time>
      </trkpt>
      <trkpt lat="49.02525" lon="1.12425">
        <ele>74.685852</ele>
        <time>2017-01-29T16:42:11Z</time>
      </trkpt>
      <trkpt lat="49.02513" lon="1.12435">
        <ele>74.591766</ele>
        <time>2017-01-29T16:42:15Z</time>
      </trkpt>
      <trkpt lat="49.025" lon="1.1245">
        <ele>75.311104</ele>
        <time>2017-01-29T16:42:19Z</time>
      </trkpt>
      <trkpt lat="49.02485" lon="1.12468">
        <ele>75.20211</ele>
        <time>2017-01-29T16:42:22Z</time>
      </trkpt>
      <trkpt lat="49.02473" lon="1.12483">
        <ele>74.557175</ele>
        <time>2017-01-29T16:42:27Z</time>
      </trkpt>
      <trkpt lat="49.02458" lon="1.125">
        <ele>73.448952</ele>
        <time>2017-01-29T16:42:32Z</time>
      </trkpt>
      <trkpt lat="49.02443" lon="1.1251">
        <ele>71.586021</ele>
        <time>2017-01-29T16:42:36Z</time>
      </trkpt>
      <trkpt lat="49.02425" lon="1.1252">
        <ele>69.659378</ele>
        <time>2017-01-29T16:42:41Z</time>
      </trkpt>
      <trkpt lat="49.0241" lon="1.12518">
        <ele>68.380623</ele>
        <time>2017-01-29T16:43:45Z</time>
      </trkpt>
      <trkpt lat="49.024" lon="1.12533">
        <ele>67.264999</ele>
        <time>2017-01-29T16:43:49Z</time>
      </trkpt>
      <trkpt lat="49.02388" lon="1.12543">
        <ele>66.480934</ele>
        <time>2017-01-29T16:43:54Z</time>
      </trkpt>
      <trkpt lat="49.02378" lon="1.1256">
        <ele>66.195297</ele>
        <time>2017-01-29T16:43:58Z</time>
      </trkpt>
      <trkpt lat="49.02363" lon="1.12573">
        <ele>66.038902</ele>
        <time>2017-01-29T16:44:01Z</time>
      </trkpt>
      <trkpt lat="49.02348" lon="1.12588">
        <ele>65.955002</ele>
        <time>2017-01-29T16:44:05Z</time>
      </trkpt>
      <trkpt lat="49.02335" lon="1.12598">
        <ele>65.675003</ele>
        <time>2017-01-29T16:44:08Z</time>
      </trkpt>
      <trkpt lat="49.0232" lon="1.12613">
        <ele>65.339996</ele>
        <time>2017-01-29T16:44:12Z</time>
      </trkpt>
      <trkpt lat="49.02308" lon="1.12623">
        <ele>65.059998</ele>
        <time>2017-01-29T16:44:15Z</time>
      </trkpt>
      <trkpt lat="49.0229" lon="1.12635">
        <ele>64.746239</ele>
        <time>2017-01-29T16:44:19Z</time>
      </trkpt>
      <trkpt lat="49.02275" lon="1.12648">
        <ele>64.373131</ele>
        <time>2017-01-29T16:44:24Z</time>
      </trkpt>
      <trkpt lat="49.0226" lon="1.1265">
        <ele>64.033127</ele>
        <time>2017-01-29T16:44:30Z</time>
      </trkpt>
      <trkpt lat="49.02265" lon="1.12628">
        <ele>64.430954</ele>
        <time>2017-01-29T16:44:36Z</time>
      </trkpt>
      <trkpt lat="49.0227" lon="1.12608">
        <ele>64.731949</ele>
        <time>2017-01-29T16:44:40Z</time>
      </trkpt>
    </trkseg>
  </trk>
</gpx>